[[{"header":{"parameterUnit":"m.s-1","parameterCategory":1,"la1":30.6,"la2":29.2853,"lo1":-89.7004,"lo2":-87.6739,"dx":0.0162,"dy":0.0183,"nx":112,"ny":82,"refTime":"2022-12-03T06:00:00:Z","depth":0,"parameterNumber":2,"parameterNumberName":"U-component_of_WINDS"},"data":[0.0,0.0,0.0,0.0,0.0,0.0,0.0,0.0,0.0,0.0,0.0,0.0,0.0,0.0,0.0,0.0,0.0,0.0,0.0,0.0,0.0,0.0,0.0,0.0,0.0,0.0,0.0,0.0,0.0,0.0,0.0,0.0,0.0,0.0,0.0,0.0,0.0,0.0,0.0,0.0,0.0,0.0,0.0,0.0,0.0,0.0,0.0,0.0,0.0,0.0,0.0,0.0,0.0,0.0,0.0,0.0,0.0,0.0,0.0,0.0,0.0,0.0,0.0,0.0,0.0,0.0,0.0,0.0,0.0,0.0,0.0,0.0,0.0,0.0,0.0,0.0,0.0,0.0,0.0,0.0,0.0,0.0,0.0,0.0,0.0,0.0,0.0,0.0,0.0,0.0,-3.9858,-4.0311,-4.1562,-4.2062,-4.1338,-4.1828,-4.0365,-3.6147,0.0,0.0,0.0,0.0,0.0,0.0,0.0,0.0,0.0,0.0,0.0,0.0,0.0,0.0,0.0,0.0,0.0,0.0,0.0,0.0,0.0,0.0,0.0,0.0,0.0,0.0,0.0,0.0,0.0,0.0,0.0,0.0,0.0,0.0,0.0,0.0,0.0,0.0,0.0,0.0,0.0,0.0,0.0,0.0,0.0,0.0,0.0,0.0,0.0,0.0,0.0,0.0,0.0,0.0,0.0,0.0,0.0,0.0,0.0,0.0,0.0,0.0,0.0,0.0,0.0,0.0,0.0,0.0,0.0,0.0,0.0,0.0,0.0,0.0,0.0,0.0,0.0,0.0,0.0,0.0,0.0,0.0,0.0,0.0,0.0,0.0,0.0,0.0,0.0,0.0,0.0,0.0,0.0,0.0,0.0,0.0,0.0,0.0,0.0,0.0,0.0,0.0,0.0,0.0,-3.9776,-4.2566,-4.3025,-4.3072,-4.2956,-4.2375,-4.051,-3.6945,0.0,0.0,0.0,0.0,0.0,0.0,0.0,0.0,0.0,0.0,0.0,0.0,0.0,0.0,0.0,0.0,0.0,0.0,0.0,0.0,0.0,0.0,0.0,0.0,0.0,0.0,0.0,0.0,0.0,0.0,0.0,0.0,0.0,0.0,0.0,0.0,0.0,0.0,0.0,0.0,0.0,0.0,0.0,0.0,0.0,0.0,0.0,0.0,0.0,0.0,0.0,0.0,0.0,0.0,0.0,0.0,0.0,0.0,0.0,0.0,0.0,0.0,0.0,0.0,0.0,0.0,0.0,0.0,0.0,0.0,0.0,0.0,0.0,0.0,0.0,0.0,0.0,0.0,0.0,0.0,0.0,0.0,0.0,0.0,0.0,0.0,0.0,0.0,0.0,0.0,0.0,0.0,0.0,0.0,0.0,0.0,0.0,0.0,0.0,0.0,0.0,0.0,0.0,-3.9497,-4.1071,-4.2534,-4.3485,-4.3808,-4.3343,-4.2937,-4.1042,-3.7154,-3.58,0.0,0.0,0.0,0.0,0.0,0.0,0.0,0.0,0.0,0.0,0.0,0.0,0.0,0.0,0.0,0.0,0.0,0.0,0.0,0.0,0.0,0.0,0.0,0.0,0.0,0.0,0.0,0.0,0.0,0.0,0.0,0.0,0.0,0.0,0.0,0.0,0.0,0.0,0.0,0.0,0.0,0.0,0.0,0.0,0.0,0.0,0.0,0.0,0.0,0.0,0.0,0.0,0.0,0.0,0.0,0.0,0.0,0.0,0.0,0.0,0.0,0.0,0.0,0.0,0.0,0.0,0.0,0.0,0.0,0.0,0.0,0.0,0.0,0.0,0.0,0.0,0.0,0.0,0.0,0.0,0.0,0.0,0.0,0.0,0.0,0.0,0.0,0.0,0.0,0.0,0.0,0.0,0.0,0.0,0.0,0.0,0.0,0.0,0.0,0.0,0.0,0.0,-4.124,-4.2466,-4.2391,-4.3873,-4.4446,-4.3401,-4.3305,-4.1564,-3.7464,-3.6265,0.0,0.0,0.0,0.0,0.0,0.0,0.0,0.0,0.0,0.0,0.0,0.0,0.0,0.0,0.0,0.0,0.0,0.0,0.0,0.0,0.0,0.0,0.0,0.0,0.0,0.0,0.0,0.0,0.0,0.0,0.0,0.0,0.0,0.0,0.0,0.0,0.0,0.0,0.0,0.0,0.0,0.0,0.0,0.0,0.0,0.0,0.0,0.0,0.0,0.0,0.0,0.0,0.0,0.0,0.0,0.0,0.0,0.0,0.0,0.0,0.0,0.0,0.0,0.0,0.0,0.0,0.0,0.0,0.0,0.0,0.0,0.0,0.0,0.0,0.0,0.0,0.0,0.0,0.0,0.0,0.0,0.0,0.0,0.0,0.0,0.0,0.0,0.0,0.0,0.0,0.0,0.0,0.0,0.0,0.0,0.0,0.0,0.0,0.0,0.0,0.0,0.0,-4.1326,-4.3294,-4.3215,-4.4724,-4.5065,-4.344,-4.3305,-4.1816,-3.8328,-3.6593,0.0,0.0,0.0,0.0,0.0,0.0,0.0,0.0,0.0,0.0,0.0,0.0,0.0,0.0,0.0,0.0,0.0,0.0,0.0,0.0,0.0,0.0,0.0,0.0,0.0,0.0,0.0,0.0,0.0,0.0,0.0,0.0,0.0,0.0,0.0,0.0,0.0,0.0,0.0,0.0,0.0,0.0,0.0,0.0,0.0,0.0,0.0,0.0,0.0,0.0,0.0,0.0,0.0,0.0,0.0,0.0,0.0,0.0,0.0,0.0,0.0,0.0,0.0,0.0,0.0,0.0,0.0,0.0,0.0,0.0,0.0,0.0,0.0,0.0,0.0,0.0,0.0,0.0,0.0,0.0,0.0,0.0,0.0,0.0,0.0,0.0,0.0,0.0,0.0,0.0,0.0,0.0,0.0,0.0,0.0,0.0,0.0,0.0,0.0,0.0,0.0,0.0,-4.1667,-4.3763,-4.475,-4.542,-4.5336,-4.4214,-4.3614,-4.1835,-3.8425,0.0,0.0,0.0,0.0,0.0,0.0,0.0,0.0,0.0,0.0,0.0,0.0,0.0,0.0,0.0,0.0,0.0,0.0,0.0,0.0,0.0,0.0,0.0,0.0,0.0,0.0,0.0,0.0,0.0,0.0,0.0,0.0,0.0,0.0,0.0,0.0,0.0,0.0,0.0,0.0,0.0,0.0,0.0,0.0,0.0,0.0,0.0,0.0,0.0,0.0,0.0,0.0,0.0,0.0,0.0,0.0,0.0,0.0,0.0,0.0,0.0,0.0,0.0,0.0,0.0,0.0,0.0,0.0,0.0,0.0,0.0,0.0,0.0,0.0,0.0,0.0,0.0,0.0,0.0,0.0,0.0,0.0,0.0,0.0,0.0,0.0,0.0,0.0,0.0,0.0,0.0,0.0,0.0,0.0,0.0,0.0,0.0,0.0,0.0,0.0,0.0,0.0,-3.9484,-4.1854,-4.3999,-4.562,-4.5807,-4.5568,-4.5026,-4.4194,-4.2376,-3.9224,0.0,0.0,0.0,0.0,0.0,0.0,0.0,0.0,0.0,0.0,0.0,0.0,0.0,0.0,0.0,0.0,0.0,0.0,0.0,0.0,0.0,0.0,0.0,0.0,0.0,0.0,0.0,0.0,0.0,0.0,0.0,0.0,0.0,0.0,0.0,0.0,0.0,0.0,0.0,0.0,0.0,0.0,0.0,0.0,0.0,0.0,0.0,0.0,0.0,0.0,0.0,0.0,0.0,0.0,0.0,0.0,0.0,0.0,0.0,0.0,0.0,0.0,0.0,0.0,0.0,0.0,0.0,0.0,0.0,0.0,0.0,0.0,0.0,0.0,0.0,0.0,0.0,0.0,0.0,0.0,0.0,0.0,0.0,0.0,0.0,0.0,0.0,0.0,0.0,0.0,0.0,0.0,0.0,0.0,0.0,0.0,0.0,0.0,0.0,0.0,0.0,0.0,-3.9494,-4.1814,-4.3943,-4.5652,-4.5807,-4.5807,-4.5807,-4.5065,-4.3518,0.0,0.0,0.0,0.0,0.0,0.0,0.0,0.0,0.0,0.0,0.0,0.0,0.0,0.0,0.0,0.0,0.0,0.0,0.0,0.0,0.0,0.0,0.0,0.0,0.0,0.0,0.0,0.0,0.0,0.0,0.0,0.0,0.0,0.0,0.0,0.0,0.0,0.0,0.0,0.0,0.0,0.0,0.0,0.0,0.0,0.0,0.0,0.0,0.0,0.0,0.0,0.0,0.0,0.0,0.0,0.0,0.0,0.0,0.0,0.0,0.0,0.0,0.0,0.0,0.0,0.0,0.0,0.0,0.0,0.0,0.0,0.0,0.0,0.0,0.0,0.0,0.0,0.0,0.0,0.0,0.0,0.0,0.0,0.0,0.0,0.0,0.0,0.0,0.0,0.0,0.0,0.0,0.0,0.0,0.0,0.0,0.0,0.0,0.0,0.0,0.0,0.0,0.0,-4.0269,-4.2133,-4.4407,-4.7328,-4.6542,-4.6058,-4.6651,-4.4852,-4.3092,-4.1719,0.0,0.0,0.0,0.0,0.0,0.0,0.0,0.0,0.0,0.0,0.0,0.0,0.0,0.0,0.0,0.0,0.0,0.0,0.0,0.0,0.0,0.0,0.0,0.0,0.0,0.0,0.0,0.0,0.0,0.0,0.0,0.0,0.0,0.0,0.0,0.0,0.0,0.0,0.0,0.0,0.0,0.0,0.0,0.0,0.0,0.0,0.0,0.0,0.0,0.0,0.0,0.0,0.0,0.0,0.0,0.0,0.0,0.0,0.0,0.0,0.0,0.0,0.0,0.0,0.0,0.0,0.0,0.0,0.0,0.0,0.0,0.0,0.0,0.0,0.0,0.0,0.0,0.0,0.0,0.0,0.0,0.0,0.0,0.0,0.0,0.0,0.0,0.0,0.0,0.0,0.0,0.0,0.0,0.0,0.0,0.0,0.0,0.0,0.0,0.0,0.0,0.0,-4.0684,-4.2898,-4.5402,-4.8109,-4.7463,-4.7192,-4.8063,-4.6109,-4.4446,-4.3576,0.0,0.0,0.0,0.0,0.0,0.0,0.0,0.0,0.0,0.0,0.0,0.0,0.0,0.0,0.0,0.0,0.0,0.0,0.0,0.0,0.0,0.0,0.0,0.0,0.0,0.0,0.0,0.0,0.0,0.0,0.0,0.0,0.0,0.0,0.0,0.0,0.0,0.0,0.0,0.0,0.0,0.0,0.0,0.0,0.0,0.0,0.0,0.0,0.0,0.0,0.0,0.0,0.0,0.0,0.0,0.0,0.0,0.0,0.0,0.0,0.0,0.0,0.0,0.0,0.0,0.0,0.0,0.0,0.0,0.0,0.0,0.0,0.0,0.0,0.0,0.0,0.0,0.0,0.0,0.0,0.0,0.0,0.0,0.0,0.0,0.0,0.0,0.0,0.0,0.0,0.0,0.0,0.0,0.0,0.0,0.0,0.0,0.0,0.0,0.0,0.0,0.0,-4.0937,-4.3878,-4.6601,-4.8232,-4.8392,-4.8759,-4.9629,-4.8024,-4.6689,-4.5974,0.0,0.0,0.0,0.0,0.0,0.0,0.0,0.0,0.0,0.0,0.0,0.0,0.0,0.0,0.0,0.0,0.0,0.0,0.0,0.0,0.0,0.0,0.0,0.0,0.0,0.0,0.0,0.0,0.0,0.0,0.0,0.0,0.0,0.0,0.0,0.0,0.0,0.0,0.0,0.0,0.0,0.0,0.0,0.0,0.0,0.0,0.0,0.0,0.0,0.0,0.0,0.0,0.0,0.0,0.0,0.0,0.0,0.0,0.0,0.0,-3.793,-3.5547,0.0,0.0,0.0,0.0,0.0,0.0,0.0,0.0,0.0,0.0,0.0,0.0,0.0,0.0,0.0,0.0,0.0,0.0,0.0,0.0,0.0,0.0,0.0,0.0,0.0,0.0,0.0,0.0,0.0,0.0,0.0,0.0,0.0,0.0,0.0,0.0,0.0,0.0,0.0,0.0,-4.1743,-4.4144,-4.6499,-4.8225,-4.8392,-4.8759,-4.9629,-4.748,-4.6278,-4.6781,-4.5132,0.0,0.0,0.0,0.0,0.0,0.0,0.0,0.0,0.0,0.0,0.0,0.0,0.0,0.0,0.0,0.0,0.0,0.0,0.0,0.0,0.0,0.0,0.0,0.0,0.0,0.0,0.0,0.0,0.0,0.0,0.0,0.0,0.0,0.0,0.0,0.0,0.0,0.0,0.0,0.0,0.0,0.0,0.0,0.0,0.0,0.0,0.0,0.0,0.0,0.0,0.0,0.0,0.0,0.0,0.0,0.0,0.0,0.0,0.0,-4.123,-3.8926,0.0,0.0,0.0,0.0,0.0,0.0,0.0,0.0,0.0,0.0,0.0,0.0,0.0,0.0,0.0,0.0,0.0,0.0,0.0,0.0,0.0,0.0,0.0,0.0,0.0,0.0,0.0,0.0,0.0,0.0,0.0,0.0,0.0,0.0,0.0,0.0,0.0,0.0,0.0,0.0,-4.3299,-4.5493,-4.7598,-4.8882,-4.9745,-5.0241,-5.0275,-4.9022,-4.8091,-4.7708,-4.6753,0.0,0.0,0.0,0.0,0.0,0.0,0.0,0.0,0.0,0.0,0.0,0.0,0.0,0.0,0.0,0.0,0.0,0.0,0.0,0.0,0.0,0.0,0.0,0.0,0.0,0.0,0.0,0.0,0.0,0.0,0.0,0.0,0.0,0.0,0.0,0.0,0.0,0.0,0.0,0.0,0.0,0.0,0.0,0.0,0.0,0.0,0.0,0.0,0.0,0.0,0.0,0.0,0.0,-4.3867,-4.4687,-4.4883,-4.6328,-4.7363,-4.7851,-4.4316,-4.2422,-4.1738,-3.998,0.0,0.0,0.0,0.0,0.0,0.0,0.0,0.0,0.0,0.0,0.0,0.0,0.0,0.0,0.0,0.0,0.0,0.0,0.0,0.0,0.0,0.0,-4.3066,-4.209,-4.3144,-4.3769,-4.1504,0.0,0.0,0.0,0.0,0.0,0.0,0.0,0.0,0.0,0.0,0.0,-4.5131,-4.7198,-4.902,-4.9811,-5.1409,-5.2136,-5.1418,-5.1208,-5.043,-4.8833,-4.8523,-4.7274,0.0,0.0,0.0,0.0,0.0,0.0,0.0,0.0,0.0,0.0,0.0,0.0,0.0,0.0,0.0,0.0,0.0,0.0,0.0,0.0,0.0,0.0,0.0,0.0,0.0,0.0,0.0,0.0,0.0,0.0,0.0,0.0,-3.5761,-3.6543,0.0,0.0,0.0,0.0,0.0,0.0,0.0,0.0,0.0,0.0,0.0,0.0,0.0,-4.4023,-4.3047,-4.5605,-4.6855,-4.6777,-4.7754,-4.8613,-4.9355,-4.957,-4.9746,-4.9824,-4.9258,0.0,-4.4355,-4.2617,0.0,0.0,0.0,0.0,0.0,0.0,0.0,0.0,0.0,0.0,0.0,0.0,0.0,0.0,0.0,0.0,0.0,0.0,0.0,0.0,0.0,0.0,-4.6504,-4.4883,-4.582,-4.6797,-4.5683,-4.3672,-4.1797,-4.0879,-4.1347,-4.2083,0.0,0.0,0.0,0.0,0.0,0.0,-4.6795,-4.8387,-4.9838,-5.0654,-5.2298,-5.3285,-5.3161,-5.2417,-5.1524,-5.0531,-4.969,-4.8095,-4.5545,-4.4833,0.0,0.0,0.0,0.0,0.0,0.0,0.0,0.0,0.0,0.0,0.0,0.0,0.0,0.0,0.0,0.0,0.0,0.0,0.0,0.0,0.0,0.0,0.0,0.0,0.0,0.0,0.0,0.0,0.0,-3.5253,-3.6328,-3.916,-3.8711,-3.8496,0.0,0.0,0.0,0.0,0.0,0.0,0.0,0.0,0.0,-4.5254,-4.7012,-4.7734,-4.7363,-4.9414,-5.0215,-4.9746,-5.0625,-5.123,-5.1621,-5.2109,-5.2344,-5.2305,-5.1816,-5.0742,-4.9121,-4.6426,-4.5391,-4.5332,0.0,0.0,0.0,0.0,-4.0312,-4.0098,-4.1426,-4.1875,-4.2168,-4.4004,0.0,0.0,0.0,0.0,0.0,0.0,0.0,-4.4433,-4.4433,-4.6016,-4.7539,-4.7266,-4.7773,-4.8223,-4.7832,-4.6855,-4.5508,-4.3691,-4.3592,-4.4224,-4.5516,-4.5998,0.0,0.0,0.0,-4.876,-4.9173,-4.99,-5.0887,-5.2221,-5.3478,-5.4011,-5.3484,-5.3527,-5.2961,-5.1567,-5.1077,-4.9692,-4.7105,-4.6644,-4.524,0.0,0.0,0.0,0.0,0.0,0.0,0.0,0.0,0.0,0.0,0.0,0.0,0.0,0.0,0.0,0.0,0.0,0.0,0.0,0.0,0.0,0.0,0.0,0.0,0.0,0.0,0.0,0.0,-3.7305,-3.7891,-4.2012,-4.1738,-4.1562,0.0,0.0,0.0,0.0,0.0,0.0,-4.5254,-4.5351,-4.6445,-4.8828,-5.0371,-5.1074,-5.084,-5.2305,-5.2715,-5.207,-5.2715,-5.3144,-5.3398,-5.4043,-5.4336,-5.4297,-5.3652,-5.3242,-5.2793,-4.9805,-4.8945,-4.9297,-4.6933,-4.5996,-4.5762,-4.3867,-4.2754,-4.2441,-4.4121,-4.457,-4.4726,-4.668,-4.6992,-4.6621,-4.6621,0.0,0.0,0.0,0.0,-4.5723,-4.5937,-4.7129,-4.8379,-4.8808,-4.9238,-4.9531,-4.9531,-4.9375,-4.8594,-4.6426,-4.5954,-4.6311,-4.7578,-4.7859,0.0,-4.9592,-4.9937,-5.0332,-5.1119,-5.1428,-5.2144,-5.3672,-5.46,-5.4815,-5.4124,-5.4647,-5.4331,-5.2752,-5.2647,-5.1472,-4.8875,-4.8548,-4.7336,-4.5009,0.0,0.0,0.0,0.0,0.0,0.0,0.0,0.0,0.0,0.0,0.0,0.0,0.0,0.0,0.0,0.0,0.0,0.0,0.0,0.0,0.0,0.0,0.0,0.0,0.0,0.0,0.0,0.0,0.0,-4.5625,-4.5273,0.0,0.0,0.0,0.0,-4.7226,-4.6504,-4.7168,-4.9746,-4.9863,-5.0664,-5.2383,-5.332,-5.3418,-5.2578,-5.3476,-5.3906,-5.3867,-5.3906,-5.4375,-5.5176,-5.5215,-5.5234,-5.5234,-5.5195,-5.4707,-5.3789,-5.1953,-5.123,-5.1094,-4.9375,-4.8691,-4.8691,-4.8555,-4.8496,-4.8691,-5.0371,-5.0449,-4.9824,-4.9961,-4.8887,-4.7539,-4.7539,-4.6933,0.0,0.0,-4.7441,-4.7656,-4.8496,-4.9375,-4.9863,-4.9082,-5.0117,-5.1269,-5.1269,-5.0664,-4.9844,-4.8887,-4.8691,-4.8666,-4.8565,0.0,-4.9825,-4.9729,-5.0455,-5.1302,-5.2032,-5.2859,-5.371,-5.4639,-5.547,-5.5907,-5.5868,-5.5845,-5.5442,-5.4535,-5.4399,-5.3232,-5.0673,-4.976,-4.8529,-4.6788,-4.5105,0.0,0.0,0.0,0.0,0.0,0.0,0.0,0.0,0.0,0.0,0.0,0.0,0.0,0.0,0.0,0.0,0.0,0.0,0.0,0.0,0.0,0.0,0.0,0.0,0.0,0.0,0.0,0.0,-4.6797,-4.7851,0.0,-5.0078,-4.9824,-4.9707,-5.0019,-4.9766,-5.0234,-5.1738,-5.1816,-5.2344,-5.3496,-5.4375,-5.4687,-5.4375,-5.5234,-5.5664,-5.5664,-5.5664,-5.584,-5.6133,-5.6133,-5.6133,-5.6133,-5.6133,-5.5957,-5.5625,-5.5,-5.4082,-5.2969,-5.1797,-5.1348,-5.1289,-5.0723,-5.0508,-5.0586,-5.1191,-5.1211,-5.1055,-5.1621,-5.1777,-5.1601,-5.1055,-5.0273,-4.9531,-4.9336,-4.9648,-5.0117,-5.043,-5.1562,-5.2578,-5.2266,-5.2637,-5.3066,-5.3066,-5.2851,-5.2538,-5.2194,-5.0765,-5.0113,-5.1723,-5.1717,-5.1837,-5.2887,-5.2826,-5.2941,-5.3777,-5.4136,-5.4658,-5.549,-5.5838,-5.6012,-5.6012,-5.5989,-5.5817,-5.5461,-5.4853,-5.384,-5.2375,-5.1471,-5.0221,-4.8548,-4.7355,-4.6355,0.0,0.0,0.0,0.0,0.0,0.0,0.0,0.0,0.0,0.0,0.0,0.0,0.0,0.0,0.0,0.0,0.0,0.0,0.0,0.0,0.0,0.0,0.0,0.0,0.0,-4.4023,-4.5644,-4.8535,-5.0156,-5.1269,-5.1855,-5.2148,-5.2285,-5.2285,-5.2285,-5.2656,-5.3535,-5.3574,-5.3984,-5.4844,-5.5449,-5.5742,-5.5742,-5.6308,-5.6601,-5.6601,-5.6601,-5.6601,-5.6601,-5.6601,-5.6601,-5.6601,-5.6601,-5.6601,-5.6601,-5.6601,-5.5918,-5.4785,-5.3926,-5.3574,-5.3516,-5.293,-5.2715,-5.2715,-5.2715,-5.2715,-5.2754,-5.3047,-5.3535,-5.3887,-5.3301,-5.2734,-5.2168,-5.1621,-5.1875,-5.2285,-5.2285,-5.3125,-5.4004,-5.4004,-5.4219,-5.4433,-5.4433,-5.4433,-5.451,-5.4738,-5.2891,-5.1845,-5.3504,-5.322,-5.312,-5.4251,-5.4157,-5.4155,-5.4735,-5.5045,-5.5412,-5.5935,-5.6012,-5.6003,-5.6005,-5.6501,-5.6541,-5.5914,-5.5806,-5.5149,-5.3703,-5.3337,-5.2529,-5.1144,-4.9702,-4.8567,-4.774,0.0,0.0,0.0,0.0,0.0,0.0,0.0,0.0,0.0,0.0,0.0,0.0,0.0,0.0,0.0,0.0,0.0,0.0,0.0,0.0,0.0,0.0,0.0,-4.5273,-4.5918,-4.7715,-5.1074,-5.2246,-5.3437,-5.5137,-5.4551,-5.4082,-5.4082,-5.4082,-5.4453,-5.5293,-5.5332,-5.5723,-5.6562,-5.6601,-5.6601,-5.664,-5.664,-5.664,-5.668,-5.668,-5.668,-5.668,-5.664,-5.664,-5.664,-5.6601,-5.6601,-5.6601,-5.6601,-5.6601,-5.6523,-5.5664,-5.5332,-5.5332,-5.5332,-5.5332,-5.5332,-5.5332,-5.5332,-5.5195,-5.4355,-5.4082,-5.4082,-5.4043,-5.4043,-5.4023,-5.4004,-5.4023,-5.4043,-5.4043,-5.4062,-5.4082,-5.4082,-5.4726,-5.5332,-5.5332,-5.5332,-5.5564,-5.6339,-5.5135,-5.3907,-5.3705,-5.3676,-5.365,-5.358,-5.4291,0.0,-5.4832,-5.5528,-5.6012,-5.6012,-5.6012,-5.6005,-5.5999,-5.7429,-5.7591,-5.5912,-5.7313,-5.7107,-5.4645,-5.5261,-5.5261,-5.4395,-5.1972,-5.0308,-4.9433,0.0,0.0,0.0,0.0,0.0,0.0,0.0,0.0,0.0,0.0,0.0,0.0,0.0,0.0,0.0,0.0,0.0,0.0,0.0,0.0,0.0,-4.6328,-4.832,-4.8711,-4.9473,-5.082,-5.3027,-5.4043,-5.4765,-5.5254,-5.5644,-5.5898,-5.5898,-5.5898,-5.5996,-5.623,-5.623,-5.6348,-5.6582,-5.6601,-5.6894,-5.7539,-5.7539,-5.7851,-5.8496,-5.8496,-5.8496,-5.8457,-5.7832,-5.7539,-5.7519,-5.6875,-5.6601,-5.6601,-5.6601,-5.6601,-5.6582,-5.6348,-5.623,-5.623,-5.623,-5.623,-5.623,-5.623,-5.623,-5.6191,-5.5957,-5.5898,-5.5762,-5.5137,-5.4941,-5.4805,-5.418,-5.4453,-5.4941,-5.4941,-5.541,-5.5898,-5.5898,-5.6074,-5.623,-5.623,-5.6206,-5.62,-5.6338,-5.5939,-5.5553,-5.5488,-5.5399,-5.5327,-5.5324,-5.5528,-5.5664,-5.5664,-5.5857,-5.6012,-5.6012,-5.6012,-5.6005,-5.5999,-5.6348,-5.6357,-5.5835,-5.6178,-5.6107,-5.5395,-5.5011,-5.3857,-5.1789,-5.1625,-5.1164,0.0,0.0,0.0,0.0,0.0,0.0,0.0,0.0,0.0,0.0,0.0,0.0,0.0,0.0,0.0,0.0,0.0,0.0,0.0,0.0,0.0,0.0,-4.9043,-5.0918,-5.2168,-5.2422,-5.3008,-5.4375,-5.5312,-5.584,-5.584,-5.6308,-5.6601,-5.6601,-5.6601,-5.6758,-5.7129,-5.7148,-5.7305,-5.7676,-5.7695,-5.793,-5.8437,-5.8437,-5.8691,-5.9199,-5.9199,-5.9199,-5.918,-5.8672,-5.8437,-5.8418,-5.791,-5.7695,-5.7695,-5.7695,-5.7695,-5.7617,0.0,0.0,0.0,0.0,-5.6601,-5.6601,-5.6601,-5.6601,-5.6601,-5.6601,-5.6601,-5.6504,-5.5996,-5.584,-5.5742,-5.5234,-5.5449,-5.584,-5.584,-5.6211,-5.6601,-5.6601,-5.6601,-5.6582,-5.6558,-5.6523,-5.6447,-5.6295,-5.623,0.0,-5.6132,-5.6059,-5.6012,-5.6012,-5.6012,-5.6012,-5.6012,-5.6012,-5.6012,-5.6012,-5.5995,-5.5998,-5.5971,-5.6531,0.0,0.0,0.0,-5.678,-5.678,-5.5992,0.0,0.0,0.0,-5.2029,-5.1202,-4.9471,0.0,0.0,-4.6431,-4.5235,0.0,0.0,0.0,0.0,0.0,0.0,0.0,0.0,0.0,0.0,0.0,0.0,0.0,0.0,0.0,0.0,-5.1894,-5.3535,-5.5078,-5.4726,-5.457,-5.5351,-5.6133,-5.6601,-5.6601,-5.6601,-5.664,-5.6738,-5.6758,-5.7129,-5.8008,-5.8047,0.0,0.0,0.0,-5.9238,-5.9336,-5.9336,-5.9375,-5.9473,-5.9473,-5.9473,-5.9473,-5.9375,-5.9336,-5.9336,-5.9238,-5.9199,-5.9199,-5.9199,-5.9199,-5.9043,-5.7383,-5.6699,-5.6601,-5.6601,-5.6601,-5.6601,-5.6601,0.0,0.0,-5.6601,-5.6601,-5.6601,-5.6601,-5.6601,-5.6601,-5.6601,-5.6601,-5.6601,-5.6601,-5.6601,-5.6601,-5.6601,-5.6601,-5.6581,-5.6516,-5.6484,-5.6426,-5.6244,-5.6181,-5.6146,-5.6018,-5.6003,-5.6003,-5.6003,-5.6003,-5.6003,-5.6003,-5.6003,-5.6003,-5.6003,-5.5998,0.0,-5.5895,-5.7194,-5.7354,-5.581,-5.7157,-5.8011,-5.8011,-5.7272,-5.681,-5.6714,-5.4395,-5.2779,-5.1904,-5.0221,-4.9394,-4.9356,-4.7246,-4.6129,0.0,0.0,0.0,0.0,0.0,0.0,0.0,0.0,0.0,0.0,0.0,0.0,0.0,0.0,0.0,-5.1914,-5.3672,-5.4902,-5.5254,-5.5762,-5.6152,-5.6328,-5.6504,-5.6601,-5.6601,-5.6601,-5.6894,-5.7598,-5.7656,-5.8027,-5.8906,-5.8945,-5.9023,-5.9199,-5.9199,-5.9512,-6.0156,-6.0176,-6.0527,-6.1211,-6.1211,0.0,-6.1191,-6.0488,-6.0176,-6.0137,-5.9473,-5.9199,-5.9199,-5.9199,-5.9199,-5.9101,-5.8047,-5.7226,-5.6601,-5.6601,-5.6601,-5.6601,-5.6601,-5.6601,-5.6601,-5.6601,-5.6601,-5.6601,-5.6601,-5.6601,0.0,-5.6601,-5.6601,-5.6601,-5.6601,-5.6601,-5.6601,-5.6601,-5.6601,-5.6581,-5.6516,-5.6413,-5.6303,-5.6226,-5.6117,-5.6026,-5.5993,-5.5996,-5.6008,-5.6008,-5.6008,-5.6008,-5.6008,-5.6005,-5.5995,-5.5998,-5.5999,-5.5943,-5.5836,-5.6105,-5.6113,-5.5733,-5.6073,-5.6256,-5.6203,-5.6102,-5.5698,-5.4991,-5.3818,-5.2779,-5.1904,-5.0221,-4.9394,-4.9413,-4.9625,-4.8961,0.0,0.0,0.0,0.0,0.0,0.0,0.0,0.0,0.0,0.0,0.0,-4.7617,-4.9766,0.0,-5.2012,-5.3711,-5.4726,-5.5449,-5.5898,-5.6328,-5.6601,-5.6601,-5.6601,-5.6777,-5.7207,-5.7246,-5.7617,-5.8496,-5.8555,-5.8926,-5.9765,-5.9805,-6.0,-6.0449,-6.0449,-6.0644,-6.1055,-6.1055,-6.1269,-6.1699,-6.1699,-6.1699,-6.1699,-6.125,-6.1055,-6.1035,-6.0625,-6.0449,-6.0449,-6.0449,-6.0195,-5.9765,-5.9316,-5.8633,-5.789,-5.789,-5.7637,-5.7246,-5.7246,-5.6953,-5.6601,-5.6601,-5.6601,-5.6601,-5.6601,-5.6601,-5.6601,-5.6601,-5.6601,-5.6601,-5.6601,-5.6601,-5.6601,-5.6601,-5.658,-5.6527,-5.6422,-5.6635,-5.6833,-5.6772,-5.7058,-5.7308,-5.7308,-5.7272,-5.6974,-5.6123,-5.5996,-5.6007,-5.5999,-5.5996,-5.5977,-5.5943,-5.5953,-5.5905,-5.5816,-5.5766,-5.5735,-5.5714,-5.5735,-5.5735,-5.5703,-5.5735,-5.5542,-5.5107,-5.3857,-5.2991,-5.2538,-5.0875,-5.0048,-5.0048,-5.05,-5.0029,0.0,0.0,0.0,0.0,0.0,0.0,0.0,-4.5076,-4.5702,-4.8319,-4.9394,-5.0351,-5.1875,-5.2734,-5.3711,-5.5293,-5.5547,-5.5801,-5.6504,-5.6758,-5.6855,-5.6855,-5.6855,-5.7187,-5.8066,-5.8144,-5.8515,-5.9375,-5.9433,-5.9785,-6.0605,-6.0644,-6.0976,-6.168,-6.1699,-6.1699,-6.1699,-6.1699,-6.1699,-6.1699,-6.1699,-6.1699,-6.1699,-6.1699,-6.1699,-6.1699,-6.1699,-6.1699,-6.1699,-6.1699,-6.1289,-6.0644,-6.0644,-6.0254,-5.9648,-5.9316,-5.8769,-5.8144,-5.8144,-5.7695,-5.707,-5.6914,-5.6973,-5.707,-5.6894,-5.6973,-5.7109,-5.7109,-5.7109,-5.7109,-5.7109,-5.7109,-5.7109,-5.7069,-5.7037,-5.696,-5.679,-5.7233,-5.7642,-5.7575,-5.812,-5.8613,-5.8613,-5.8557,-5.8055,-5.6691,-5.6497,-5.6488,-5.6482,-5.6499,-5.648,-5.6406,-5.6242,-5.6068,-5.5816,-5.5745,-5.5703,-5.5703,-5.5724,-5.5735,-5.5724,-5.5735,-5.5735,-5.5724,-5.4049,-5.3203,-5.3203,-5.151,-5.0712,-5.0712,-5.0712,-5.0346,-4.1479,-4.0954,-4.1659,-4.3983,-4.455,-4.5605,0.0,-4.998,-5.0195,-5.2754,-5.3359,-5.3711,-5.4687,-5.4941,-5.5332,-5.6308,-5.6445,-5.6484,-5.6582,-5.7265,-5.7754,-5.7754,-5.7754,-5.8105,-5.8965,-5.9043,-5.9394,-6.0195,-6.0273,-6.0644,-6.1504,-6.1543,-6.1601,-6.1699,-6.1699,-6.1699,-6.1699,-6.1699,-6.1699,-6.1699,-6.1699,-6.1699,-6.1699,-6.1699,-6.1699,-6.1699,-6.1699,-6.1699,-6.1699,-6.1699,-6.164,-6.1543,-6.1543,-6.1504,-6.123,-5.9746,-5.914,-5.9043,-5.9043,-5.8984,-5.8789,-5.8008,-5.8281,-5.8769,-5.7988,-5.8301,-5.8906,-5.8906,-5.8906,-5.8906,-5.8906,-5.8906,-5.8886,-5.8769,-5.8736,-5.8663,-5.8478,-5.8506,-5.8527,-5.8465,-5.8526,-5.8613,-5.8613,-5.8584,-5.8489,-5.8259,-5.8211,-5.8211,-5.823,-5.8267,-5.8276,-5.822,-5.7525,-5.6715,-5.5874,-5.5745,-5.5703,-5.5703,-5.5816,-5.5846,-5.5787,-5.5846,-5.5846,-5.5787,-5.407,-5.3203,-5.3203,-5.151,-5.0712,-5.0712,-5.0712,-5.0654,-4.4159,-4.4492,-4.539,-4.75,-4.8027,-4.875,-5.1523,-5.1894,-5.2109,-5.3672,-5.4394,-5.4863,-5.5234,-5.5703,-5.6172,-5.6543,-5.7031,-5.7363,-5.7363,-5.8105,-5.8828,-5.9297,-5.9355,-5.9492,-5.9863,-5.9902,-6.0254,-6.1094,-6.1152,-6.1328,-6.168,-6.1699,-6.1699,-6.1699,-6.1699,-6.1699,-6.1699,-6.1699,-6.1699,-6.1699,-6.1699,-6.1699,-6.1699,-6.1699,-6.1699,-6.1699,-6.1699,-6.1699,-6.1699,-6.1699,-6.1699,-6.1699,-6.1699,-6.1699,-6.1621,-6.0918,-6.0332,-5.9902,-5.9902,-5.959,-5.914,-5.8789,-5.8906,-5.9121,-5.8769,-5.8906,-5.9199,-5.9199,-5.9199,-5.9199,-5.9199,-5.9199,-5.9179,-5.9037,-5.8961,-5.8901,-5.8733,-5.9068,-5.9387,-5.9357,-5.9725,-6.0054,-6.0054,-6.0054,-6.0045,-6.0026,-5.9176,-5.8548,-5.85,-5.8557,-5.8575,-5.85,-5.8143,-5.7545,-5.6695,-5.6588,-5.6366,-5.5855,-5.5875,-5.5885,-5.5856,-5.5846,-5.5836,-5.5797,-5.4599,-5.3703,-5.3203,-5.1991,-5.1164,-5.0712,-5.0712,-5.0693,-4.6973,-4.7656,-4.8437,-5.0391,-5.0898,-5.1328,-5.3027,-5.3418,-5.3652,-5.4531,-5.5215,-5.5664,-5.5664,-5.6172,-5.6601,-5.6601,-5.7324,-5.789,-5.789,-5.8848,-5.9746,-6.0332,-6.0605,-6.0762,-6.0762,-6.0762,-6.1015,-6.164,-6.1699,-6.1699,-6.1699,-6.1699,-6.1699,-6.1699,-6.1699,-6.1816,-6.2051,-6.2051,-6.2187,-6.2422,-6.2422,-6.2285,-6.2051,-6.1816,-6.1699,-6.1699,-6.1699,-6.1699,-6.1699,-6.1699,-6.1699,-6.1699,-6.1699,-6.1699,-6.1699,-6.1699,-6.1308,-6.0762,-6.0762,-6.0371,-5.9844,-5.9609,-5.9687,-5.9844,-5.9609,-5.9707,-5.9883,-5.9883,-5.9883,-5.9883,-5.9883,-5.9882,-5.9837,-5.97,-5.9607,-5.9524,-5.9396,-5.9813,-6.0228,-6.0228,-6.0692,-6.1099,-6.1099,-6.1099,-6.1099,-6.1099,-6.0074,-5.9271,-5.9215,-5.9262,-5.9194,-5.8925,-5.8819,-5.8442,-5.7632,-5.7332,-5.6937,-5.631,-5.6049,-5.5943,-5.5943,-5.5856,-5.5826,-5.5826,-5.4956,-5.4068,-5.3203,-5.2327,-5.1491,-5.0712,-5.0712,-5.0693,-4.9844,-4.9473,-4.9473,-5.1992,-5.2617,-5.3086,-5.4824,-5.5215,-5.5469,-5.6348,-5.6543,-5.6562,-5.6562,-5.6582,-5.6601,-5.6601,-5.7324,-5.789,-5.789,-5.9316,-6.0371,-6.039,-6.1152,-6.166,-6.166,-6.166,-6.168,-6.1699,-6.1699,-6.1699,-6.1699,-6.1699,-6.1699,-6.1699,-6.1699,-6.2109,-6.2949,-6.2969,-6.3379,-6.4219,-6.4219,-6.3789,-6.293,-6.209,-6.1699,-6.1699,-6.1699,-6.1699,-6.1699,-6.1699,-6.1699,-6.1699,-6.1699,-6.1699,-6.1699,-6.1699,-6.168,-6.166,-6.166,-6.164,-6.1484,-6.0644,-6.0937,-6.1465,-6.0625,-6.0957,-6.1621,-6.1621,-6.1621,-6.1621,-6.1621,-6.1574,-6.1495,-6.1361,-6.1276,-6.1196,-6.1048,-6.1041,-6.106,-6.106,-6.1079,-6.1099,-6.1099,-6.1099,-6.1099,-6.1099,-6.106,-6.1021,-6.1021,-6.1021,-6.0712,-5.9938,-5.9795,-5.9399,-5.853,-5.7699,-5.7188,-5.7168,-5.6435,-5.599,-5.599,-5.5924,-5.5895,-5.5895,-5.4986,-5.4068,-5.3203,-5.2327,-5.1491,-5.0712,-5.0712,-5.0693,-5.043,-5.1211,-5.2637,-5.4062,-5.4433,-5.4726,-5.5898,-5.6152,-5.625,-5.6543,-5.6133,-5.5742,-5.5742,-5.5742,-5.5742,-5.5742,-5.7441,-5.8769,-5.8769,-6.0215,-6.1269,-6.1269,-6.1523,-6.1699,-6.1699,-6.1699,-6.1699,-6.1699,-6.1699,-6.1699,-6.1699,-6.2246,-6.2558,-6.2558,-6.3125,-6.3574,-6.3867,-6.3867,-6.4004,-6.4297,-6.4297,-6.414,-6.3848,-6.3555,-6.3437,-6.3398,-6.2812,-6.2558,-6.2519,-6.1933,-6.1699,-6.1699,-6.1699,-6.1699,-6.1699,-6.1699,-6.1699,-6.1699,-6.1699,-6.1699,-6.164,-6.1367,-6.1465,-6.164,-6.1348,-6.1465,-6.1699,-6.1699,-6.1699,-6.1699,-6.1699,-6.1651,-6.1571,-6.1435,-6.1348,-6.1267,-6.1125,-6.1099,-6.1099,-6.1099,-6.1099,-6.1099,-6.1099,-6.1099,-6.1099,-6.1099,-6.1099,-6.1099,-6.1099,-6.1099,-6.1002,-6.0731,-6.0674,-6.0316,-5.9494,-5.8625,-5.7881,-5.7292,-5.648,-5.6005,-5.6005,-5.5943,-5.5895,-5.5895,-5.5486,-5.4607,-5.3203,-5.2914,-5.2049,-5.0712,-5.0712,-5.0702,-5.2148,-5.3223,-5.4668,-5.5547,-5.5762,-5.5918,-5.6465,-5.6601,-5.6601,-5.6601,-5.6152,-5.5664,-5.5351,-5.5547,-5.5664,-5.5351,-5.748,-5.9199,-5.9199,-6.0644,-6.1699,-6.1699,-6.1699,-6.1699,-6.1699,-6.1699,-6.1699,-6.1699,-6.1699,-6.1836,-6.2148,-6.2695,-6.3144,-6.3457,-6.4004,-6.4453,-6.4765,-6.4765,-6.4922,-6.5234,-6.4902,-6.4765,-6.4746,-6.4433,-6.4297,-6.4277,-6.3711,-6.3457,-6.3398,-6.2519,-6.2168,-6.2129,-6.1816,-6.1699,-6.1699,-6.1699,-6.1699,-6.1699,-6.1699,-6.1699,-6.1699,-6.1699,-6.1699,-6.1699,-6.1699,-6.1699,-6.1699,-6.1699,-6.1699,-6.1699,-6.1677,-6.1594,-6.1497,-6.1383,-6.1291,-6.1209,-6.1126,-6.1099,-6.1099,-6.1099,-6.1099,-6.1099,-6.1099,-6.1099,-6.1099,-6.1099,-6.1099,-6.1099,-6.1099,-6.1099,-6.1099,-6.1099,-6.1099,-6.0886,-6.0364,-5.9551,-5.8681,-5.783,-5.696,-5.6313,-5.6012,-5.5933,-5.5741,-5.5442,-5.5343,-5.4434,-5.2741,-5.2741,-5.2029,-5.0712,-5.0712,-5.0712,-5.4844,-5.5332,-5.5566,-5.6387,-5.6601,-5.6601,-5.6601,-5.6621,-5.664,-5.6601,-5.6601,-5.6348,-5.5527,-5.6015,-5.6289,-5.5488,-5.748,-5.914,-5.9199,-6.0605,-6.164,-6.1699,-6.1699,-6.1699,-6.1699,-6.1738,-6.1777,-6.1777,-6.1777,-6.2148,-6.3027,-6.3105,-6.3515,-6.4336,-6.4414,-6.4824,-6.5664,-6.5664,-6.6074,-6.6894,-6.6055,-6.5664,-6.5644,-6.4805,-6.4433,-6.4433,-6.4394,-6.4375,-6.4297,-6.3437,-6.3047,-6.293,-6.209,-6.1738,-6.1699,-6.1699,-6.1699,-6.1699,-6.1699,-6.1699,-6.1699,-6.1699,-6.1699,-6.1699,-6.1699,-6.1699,-6.1699,-6.1699,-6.1699,-6.1678,-6.1616,-6.1497,-6.1378,-6.1318,-6.12,-6.1099,-6.1099,-6.1099,-6.1099,-6.1099,-6.1099,-6.1099,-6.1099,-6.1099,-6.1099,-6.1099,-6.1099,-6.1099,-6.1099,-6.1099,-6.1099,-6.1099,-6.1099,-6.1099,-6.1099,-6.0364,-5.9532,-5.8671,-5.7791,-5.6912,-5.6051,-5.5894,-5.5442,-5.4621,-5.4495,-5.3606,-5.1904,-5.1904,-5.1491,-5.0712,-5.0712,-5.0693,-5.5176,-5.5762,-5.6328,-5.6543,-5.6601,-5.6601,-5.6601,-5.7109,-5.7383,-5.6738,-5.6601,-5.6523,-5.6308,-5.5918,-5.5762,-5.6191,-5.7363,-5.8457,-5.9101,-6.0078,-6.0976,-6.1621,-6.1699,-6.1699,-6.1699,-6.2285,-6.2676,-6.2676,-6.2676,-6.3047,-6.3926,-6.457,-6.5039,-6.5254,-6.5898,-6.6348,-6.6562,-6.6562,-6.668,-6.6894,-6.668,-6.6562,-6.6562,-6.6348,-6.623,-6.6191,-6.5547,-6.5273,-6.5195,-6.4336,-6.3594,-6.2988,-6.2754,-6.2265,-6.1699,-6.1699,-6.1699,-6.1699,-6.1699,-6.1699,-6.1699,-6.1699,-6.1699,-6.1699,-6.1699,-6.1699,-6.1699,-6.1699,-6.1656,-6.1619,-6.1607,-6.1454,-6.1311,-6.1297,-6.12,-6.1099,-6.1099,-6.1099,-6.1099,-6.1099,-6.1099,-6.1099,-6.1099,-6.1099,-6.1099,-6.1099,-6.1099,-6.1099,-6.1099,-6.1099,-6.1099,-6.1099,-6.1099,-6.1099,-6.1099,-6.0364,-5.9532,-5.8671,-5.7791,-5.6912,-5.6051,-5.5305,-5.4834,-5.4602,-5.3898,-5.2991,-5.1904,-5.1904,-5.1491,-5.0712,-5.0712,-5.0712,-5.5762,-5.623,-5.6601,-5.6601,-5.6601,-5.6601,-5.6601,-5.668,-5.6738,-5.6621,-5.5996,-5.5683,-5.6465,-5.6191,-5.6035,-5.6523,-5.7656,-5.8633,-5.9121,-5.9883,-6.0723,-6.1601,-6.1699,-6.1855,-6.2226,-6.2715,-6.332,-6.4082,-6.3789,-6.3945,-6.4824,-6.5332,-6.5781,-6.6152,-6.664,-6.6894,-6.6894,-6.6894,-6.6894,-6.6894,-6.6894,-6.6894,-6.6894,-6.6894,-6.6894,-6.6875,-6.6387,-6.6172,-6.6094,-6.5234,-6.457,-6.4062,-6.3301,-6.2695,-6.2226,-6.1836,-6.1699,-6.1699,-6.1699,-6.1699,-6.1699,-6.1699,-6.1699,-6.1699,-6.1699,-6.1699,-6.1699,-6.1656,-6.1623,-6.1573,-6.1495,-6.1384,-6.1289,-6.124,-6.1161,-6.1099,-6.1099,-6.1099,-6.1099,-6.1099,-6.1099,-6.1099,-6.1099,-6.1099,-6.1099,-6.1099,-6.1099,-6.1099,-6.1099,-6.1099,-6.1099,-6.1099,-6.1099,-6.1099,-6.1099,-6.0692,-5.9899,-5.869,-5.8139,-5.7308,-5.6051,-5.5092,-5.4429,-5.4081,-5.3118,-5.2222,-5.1375,-5.1375,-5.1144,-5.0712,-5.0712,-5.0702,-5.6367,-5.6601,-5.6601,-5.6601,-5.6601,-5.6562,-5.6445,-5.5937,-5.5586,-5.5996,-5.4961,-5.4453,-5.5976,-5.6074,-5.6094,-5.668,-5.7754,-5.8711,-5.9277,-5.9863,-6.0605,-6.1582,-6.1699,-6.2031,-6.293,-6.3105,-6.3848,-6.5488,-6.5019,-6.498,-6.5723,-6.5762,-6.6113,-6.6875,-6.6894,-6.6894,-6.6894,-6.6894,-6.6894,-6.6894,-6.6894,-6.6894,-6.6894,-6.6894,-6.6894,-6.6894,-6.6894,-6.6894,-6.6836,-6.6074,-6.5703,-6.5449,-6.3945,-6.3203,-6.291,-6.2148,-6.1797,-6.1699,-6.1699,-6.1699,-6.1699,-6.1699,-6.1699,-6.1699,-6.1699,-6.1699,-6.1677,-6.1616,-6.1576,-6.1517,-6.135,-6.1289,-6.1237,-6.1136,-6.1099,-6.1099,-6.1099,-6.1099,-6.1099,-6.1099,-6.1099,-6.1099,-6.1099,-6.1099,-6.1099,-6.1099,-6.1099,-6.1099,-6.1099,-6.1099,-6.1099,-6.1099,-6.1099,-6.1099,-6.1099,-6.1002,-6.0267,-5.8709,-5.8372,-5.7521,-5.5915,-5.4831,-5.3927,-5.3232,-5.2242,-5.1395,-5.0712,-5.0712,-5.0712,-5.0712,-5.0712,-5.0693,-5.6367,-5.6601,-5.6601,-5.6601,-5.6601,-5.6406,-5.5683,-5.5976,-5.5801,-5.3789,-5.3711,-5.4082,-5.4394,-5.3262,-5.3476,-5.709,-5.6113,-5.6133,-5.9687,-5.9746,-5.998,-6.1523,-6.1699,-6.2031,-6.293,-6.3652,-6.4492,-6.5527,-6.6133,-6.6523,-6.668,-6.668,-6.6738,-6.6894,-6.6894,-6.6894,-6.6894,-6.6894,-6.6894,-6.6894,-6.6894,-6.6894,-6.6894,-6.6894,-6.6894,-6.6894,-6.6894,-6.6894,-6.6894,-6.6738,-6.625,-6.5566,-6.5273,-6.4277,-6.2988,-6.2832,-6.2324,-6.1699,-6.1699,-6.1699,-6.1699,-6.1699,-6.1699,-6.1699,-6.1699,-6.1655,-6.1614,-6.1607,-6.1482,-6.1331,-6.1304,-6.1225,-6.1125,-6.1108,-6.1099,-6.1099,-6.1099,-6.1099,-6.1099,-6.1099,-6.1099,-6.1099,-6.1099,-6.1099,-6.1099,-6.1099,-6.1099,-6.1099,-6.1099,-6.1099,-6.1099,-6.1099,-6.1099,-6.1099,-6.1099,-6.0499,-5.9687,-5.8671,-5.725,-5.6031,-5.5045,-5.3428,-5.2477,-5.2326,-5.1394,-5.0837,-5.0712,-5.0712,-5.0712,-5.0712,-5.0712,-5.0693,-5.6484,-5.6601,-5.6601,-5.6601,-5.6601,-5.6367,-5.5508,-5.4922,-5.4219,-5.2969,-5.1973,-5.1758,-5.3086,-5.2266,-5.2383,-5.5371,-5.5586,-5.6074,-5.8125,-5.9238,-6.0117,-6.0937,-6.1426,-6.2031,-6.293,-6.3789,-6.4668,-6.5527,-6.6406,-6.6894,-6.6894,-6.6894,-6.6894,-6.6894,-6.6894,-6.6894,-6.6894,-6.6894,-6.6894,-6.6894,-6.6894,-6.6894,-6.6894,-6.6894,-6.6894,-6.6894,-6.6894,-6.6894,-6.6894,-6.6894,-6.664,-6.623,-6.5781,-6.4805,-6.3613,-6.3164,-6.2441,-6.1699,-6.1699,-6.1699,-6.1699,-6.1699,-6.1699,-6.1699,-6.1654,-6.1621,-6.1573,-6.1478,-6.1373,-6.1289,-6.1205,-6.1152,-6.1099,-6.1099,-6.1099,-6.1099,-6.1099,-6.1099,-6.1099,-6.1099,-6.1099,-6.1099,-6.1099,-6.1099,-6.1099,-6.1099,-6.1099,-6.1099,-6.1099,-6.1099,-6.1099,-6.1099,-6.1099,-6.1099,-6.1099,-6.0364,-5.9532,-5.8671,-5.696,-5.5644,-5.4832,-5.3072,-5.2092,-5.2094,-5.1192,-5.0693,-5.0712,-5.0712,-5.0712,-5.0712,-5.0712,-5.0702,-5.6543,-5.6601,-5.6601,-5.6601,-5.6601,-5.6269,-5.5039,-5.3672,-5.2441,-5.1523,-4.9746,-4.8906,-5.0723,-5.0644,-5.0937,-5.2871,-5.4648,-5.5957,-5.6523,-5.8652,-6.0215,-6.0371,-6.1172,-6.2031,-6.293,-6.3789,-6.4668,-6.5527,-6.6406,-6.6894,-6.6894,-6.6894,-6.6894,-6.6894,-6.6894,-6.6816,-6.6621,-6.6816,-6.6816,-6.6621,-6.6816,-6.6894,-6.6894,-6.6894,-6.6894,-6.6894,-6.6894,-6.6894,-6.6894,-6.6894,-6.6894,-6.6836,-6.6152,-6.5234,-6.4219,-6.3535,-6.2617,-6.1699,-6.1699,-6.1699,-6.1699,-6.1679,-6.1698,-6.1699,-6.1645,-6.1586,-6.1527,-6.1373,-6.129,-6.1229,-6.1136,-6.1099,-6.1099,-6.1099,-6.1099,-6.1099,-6.1099,-6.1099,-6.1099,-6.1099,-6.1099,-6.1099,-6.1099,-6.1099,-6.1099,-6.1099,-6.1099,-6.1099,-6.1099,-6.1099,-6.1099,-6.1099,-6.1099,-6.1041,-6.0867,-6.0093,-5.9165,-5.8101,-5.6418,-5.5103,-5.4271,-5.2687,-5.1833,-5.1824,-5.1077,-5.0702,-5.0712,-5.0712,-5.0712,-5.0712,-5.0712,-5.0712,-5.6387,-5.6601,-5.6601,-5.6601,-5.6601,-5.5957,-5.3496,-5.2812,-5.1582,-4.7695,-4.6699,-4.6367,-4.5801,-4.6289,-4.7598,-5.0137,-5.1953,-5.3887,-5.6269,-5.8164,-5.957,-6.0312,-6.1172,-6.2031,-6.293,-6.3789,-6.4668,-6.5527,-6.6406,-6.6894,-6.6894,-6.6894,-6.6894,-6.6894,-6.6894,-6.6523,-6.5723,-6.6504,-6.6504,-6.5723,-6.6523,-6.6894,-6.6894,-6.6894,-6.6894,-6.6894,-6.6894,-6.6894,-6.6894,-6.6894,-6.6894,-6.6894,-6.6816,-6.5762,-6.4297,-6.4219,-6.3125,-6.1699,-6.1699,-6.1699,-6.1699,-6.1623,-6.1652,-6.1699,-6.1699,-6.1568,-6.1402,-6.1403,-6.1252,-6.1117,-6.1099,-6.1099,-6.1099,-6.1099,-6.1099,-6.1099,-6.1099,-6.1099,-6.1099,-6.1099,-6.1099,-6.1099,-6.1099,-6.1099,-6.1099,-6.1099,-6.1099,-6.1099,-6.1099,-6.1099,-6.1099,-6.1099,-6.1099,-6.0809,-6.0074,-5.9223,-5.8004,-5.6341,-5.4658,-5.3343,-5.248,-5.1523,-5.0971,-5.0917,-5.0758,-5.0692,-5.0712,-5.0712,-5.0712,-5.0712,-5.0712,-5.0712,-5.5586,-5.582,-5.5937,-5.6465,-5.5019,-5.332,-5.2812,-5.0703,-4.8203,-4.5976,-4.4687,-4.3848,-4.3496,-4.4141,-4.543,-4.7519,-5.0586,-5.3242,-5.4805,-5.7441,-5.9492,-6.0293,-6.0703,-6.1269,-6.2129,-6.3476,-6.4883,-6.6289,-6.6699,-6.6894,-6.6894,-6.6894,-6.6894,-6.6894,-6.6387,-6.5957,-6.5605,-6.5937,-6.5937,-6.5605,-6.6484,-6.6894,-6.6894,-6.6894,-6.6894,-6.6894,-6.6894,-6.6894,-6.6894,-6.6894,-6.6894,-6.6894,-6.6894,-6.582,-6.4297,-6.4297,-6.3203,-6.1699,-6.1653,-6.1647,-6.1623,-6.1511,-6.1508,-6.1501,-6.1475,-6.1408,-6.1311,-6.1243,-6.1156,-6.1099,-6.1099,-6.1099,-6.1099,-6.1099,-6.1099,-6.1099,-6.1099,-6.1099,-6.1099,-6.1099,-6.1099,-6.1099,-6.1099,-6.1099,-6.1099,-6.1099,-6.1099,-6.1099,-6.1099,-6.1099,-6.0905,-6.0422,-6.0383,-6.0248,-5.9919,-5.8139,-5.6747,-5.6051,-5.3923,-5.2542,-5.2161,-5.1288,-5.0801,-5.0729,-5.0702,-5.0712,-5.0712,-5.0712,-5.0712,-5.0712,-5.0712,-5.0712,-5.4922,-5.5488,-5.5762,-5.6133,-5.3984,-5.1758,-5.1601,-4.8633,-4.5527,-4.416,-4.2695,-4.166,-4.166,-4.2773,-4.4101,-4.5332,-4.9551,-5.2812,-5.3183,-5.6445,-5.9121,-5.9941,-6.0254,-6.0742,-6.1621,-6.3281,-6.5019,-6.6777,-6.666,-6.6523,-6.6523,-6.6523,-6.6621,-6.6894,-6.6055,-6.5488,-6.5215,-6.5215,-6.5215,-6.5234,-6.6094,-6.664,-6.6894,-6.6894,-6.6894,-6.6894,-6.6894,-6.6894,-6.6894,-6.6894,-6.6894,-6.6875,-6.6621,-6.5605,-6.4277,-6.4004,-6.2988,-6.1699,-6.1619,-6.1605,-6.1573,-6.1412,-6.1367,-6.1345,-6.1262,-6.1267,-6.1281,-6.1184,-6.1125,-6.1099,-6.1099,-6.1099,-6.1099,-6.1099,-6.1099,-6.1099,-6.1099,-6.1099,-6.1099,-6.1099,-6.1099,-6.1099,-6.1099,-6.1099,-6.1099,-6.1099,-6.1099,-6.1099,-6.1099,-6.0886,-6.0538,-5.9957,-5.9203,-5.8758,-5.8758,-5.7056,-5.5683,-5.4929,-5.3188,-5.207,-5.1749,-5.1127,-5.0775,-5.0701,-5.0693,-5.0712,-5.0712,-5.0712,-5.0712,-5.0712,-5.0712,-5.0712,-5.459,-5.5937,-5.6387,-5.5527,-5.3984,-5.2031,-4.9512,-4.6894,-4.4297,-4.1758,-4.0547,-3.9922,-3.9922,-4.1992,-4.3711,-4.3711,-4.8789,-5.2402,-5.1543,-5.5176,-5.8242,-5.9101,-5.9922,-6.0742,-6.1621,-6.3281,-6.5019,-6.6777,-6.6094,-6.5605,-6.5605,-6.5605,-6.6015,-6.6875,-6.6055,-6.5195,-6.4316,-6.4316,-6.4316,-6.4316,-6.5195,-6.6074,-6.6894,-6.6894,-6.6894,-6.6894,-6.6894,-6.6894,-6.6894,-6.6894,-6.6894,-6.6816,-6.5957,-6.5078,-6.4199,-6.332,-6.2461,-6.1699,-6.1619,-6.1605,-6.1568,-6.1361,-6.131,-6.1281,-6.1143,-6.1192,-6.131,-6.1303,-6.1209,-6.1099,-6.1099,-6.1099,-6.1099,-6.1099,-6.1099,-6.1099,-6.1099,-6.1099,-6.1099,-6.1099,-6.1099,-6.1099,-6.1099,-6.1099,-6.1099,-6.1099,-6.1099,-6.1099,-6.1099,-6.0402,-5.9899,-5.9899,-5.7579,-5.6051,-5.6051,-5.6031,-5.4929,-5.2403,-5.221,-5.1818,-5.0938,-5.0838,-5.0775,-5.0701,-5.0693,-5.0712,-5.0712,-5.0712,-5.0712,-5.0712,-5.0712,-5.0712,-5.0547,-5.1133,-5.1406,-5.1738,-4.916,-4.6484,-4.6289,-4.3789,-4.1113,-3.9707,-3.873,-3.8301,-3.8906,-4.0644,-4.2558,-4.4316,-4.8652,-5.1914,-5.2246,-5.5019,-5.7558,-5.9023,-6.0449,-6.1855,-6.332,-6.3437,-6.4121,-6.5879,-6.5195,-6.4707,-6.4707,-6.4707,-6.4844,-6.5117,-6.4863,-6.4297,-6.3418,-6.4004,-6.4297,-6.4316,-6.5781,-6.6621,-6.6894,-6.6894,-6.6894,-6.6894,-6.6894,-6.6894,-6.6894,-6.6894,-6.6543,-6.5976,-6.5703,-6.4707,-6.3379,-6.3057,-6.2386,-6.1616,-6.1456,-6.1395,-6.1367,-6.1205,-6.115,-6.1161,-6.1117,-6.1125,-6.115,-6.115,-6.1125,-6.1099,-6.1099,-6.1099,-6.1099,-6.1099,-6.1099,-6.1099,-6.1099,-6.1099,-6.1099,-6.1099,-6.1099,-6.1099,-6.1099,-6.1099,-6.1099,-6.1099,-6.1099,-6.0692,-5.9532,-5.9165,-5.8333,-5.6592,-5.5664,-5.5393,-5.5954,-5.4407,-5.3053,-5.2248,-5.1636,-5.1178,-5.0838,-5.0775,-5.072,-5.0693,-5.0693,-5.0712,-5.0712,-5.0712,-5.0712,-5.0712,-5.0712,-5.0712,-4.7812,-4.8652,-4.8867,-4.8769,-4.6191,-4.3769,-4.3965,-4.1367,-3.8847,-3.8611,-3.7614,-3.7243,-3.8766,-4.0212,-4.2225,-4.5469,-4.9023,-5.1816,-5.3027,-5.5156,-5.7246,-5.8984,-6.0683,-6.2265,-6.3672,-6.332,-6.3594,-6.5,-6.4297,-6.3808,-6.3808,-6.3808,-6.3652,-6.332,-6.3633,-6.3711,-6.3496,-6.3691,-6.414,-6.4805,-6.5898,-6.6582,-6.6894,-6.6894,-6.6894,-6.6894,-6.6894,-6.6894,0.0,-6.6894,-6.6387,-6.5566,-6.5234,-6.4237,-6.2923,-6.2553,-6.2022,-6.1494,-6.1349,-6.131,-6.1281,-6.1143,-6.1099,-6.1099,-6.1099,-6.1099,-6.1099,-6.1099,-6.1099,-6.1099,-6.1099,-6.1099,-6.1099,-6.1099,-6.1099,-6.1099,-6.1099,-6.1099,-6.1099,-6.1099,-6.1099,-6.1099,-6.1099,-6.1099,-6.1099,-6.1099,-6.0557,-5.9783,-5.8729,-5.7753,-5.6553,-5.4967,-5.4213,-5.402,-5.4523,-5.3111,-5.2047,-5.1738,-5.1195,-5.0863,-5.0801,-5.0748,-5.0702,-5.0693,-5.0712,-5.0712,-5.0712,-5.0712,-5.0712,-5.0712,-5.0712,-5.0712,0.0,-4.7773,-4.8144,-4.6523,-4.4902,-4.3457,-4.2539,-3.9863,0.0,-3.8384,-3.7264,-3.6949,-3.943,-4.0699,-4.2757,-4.6971,-4.9804,-5.207,-5.3769,-5.5547,-5.7285,-5.8926,-6.0586,-6.1953,-6.2812,-6.2851,-6.3203,-6.414,-6.3398,-6.291,-6.291,-6.291,-6.2539,-6.1738,-6.248,-6.3301,-6.4101,-6.3437,-6.3906,-6.5508,-6.5625,-6.6113,-6.6894,-6.6894,-6.6894,-6.6894,-6.6894,-6.6894,-6.6894,-6.6836,-6.6289,-6.543,-6.4531,-6.3625,-6.2718,-6.1888,-6.1494,-6.1388,-6.1305,-6.1289,-6.1267,-6.1134,-6.1099,-6.1099,-6.1099,-6.1099,-6.1099,-6.1099,-6.1099,-6.1099,-6.1099,-6.1099,-6.1099,-6.1099,-6.1099,-6.1099,-6.1099,-6.1099,-6.1099,-6.1099,-6.1099,-6.1099,-6.1099,-6.1099,-6.1079,-6.1021,-5.9629,-5.8535,-5.8361,-5.6205,-5.4658,-5.4542,-5.3072,-5.2113,-5.2113,-5.2113,-5.1757,-5.0956,-5.0897,-5.0863,-5.0801,-5.0748,-5.0692,-5.0693,-5.0712,-5.0712,-5.0712,-5.0712,-5.0712,-5.0712,-5.0712,-5.0712,-4.1074,0.0,-4.4824,-4.4414,-4.4004,-4.3301,0.0,-4.0859,-3.9961,-3.8808,-3.8738,-3.9266,-4.0498,-4.2478,-4.4907,-4.7888,-5.0547,-5.2632,-5.3764,-5.6031,-5.7754,-5.8164,-5.9687,-6.1055,-6.1914,-6.1406,-6.164,-6.3183,-6.25,-6.2012,-6.2012,-6.2012,-6.1914,-6.1719,-6.1894,-6.2109,-6.2305,-6.3437,-6.4199,-6.4629,-6.5957,-6.6699,-6.6894,-6.6894,-6.6894,-6.6894,-6.6894,-6.6894,-6.6855,-6.6172,-6.539,-6.4511,-6.3583,-6.2689,-6.1869,-6.151,-6.1343,-6.1318,-6.1192,-6.1152,-6.1143,-6.1108,-6.1099,-6.1099,-6.1099,-6.1099,-6.1099,-6.1099,-6.1099,-6.1099,-6.1099,-6.1099,-6.1099,-6.1099,-6.1099,-6.1099,-6.1099,-6.1099,-6.1099,-6.1099,-6.1099,-6.1099,-6.1099,-6.1099,-6.0886,-6.0267,-5.9281,-5.7888,-5.5935,-5.4581,-5.3285,-5.1962,-5.1439,-5.1215,-5.1215,-5.1215,-5.1111,-5.0917,-5.0852,-5.0829,-5.0801,-5.074,-5.0702,-5.0712,-5.0712,-5.0712,-5.0712,-5.0712,-5.0712,-5.0712,-5.0712,-5.0712,-3.7851,-4.0,-4.1855,-4.1465,-4.166,-4.1718,-4.0776,-4.0834,-4.0945,-4.0327,-4.0235,-4.0753,-4.2393,-4.4153,-4.6452,-4.9843,-5.1892,-5.351,-5.4821,-5.6302,-5.7396,-5.7767,-5.9335,-6.0586,-6.1055,-6.1035,-6.1387,-6.2324,-6.1973,-6.1699,-6.1699,-6.1699,-6.1699,-6.1699,-6.209,-6.2305,-6.2305,-6.3633,-6.4492,-6.4902,-6.6269,-6.6894,-6.6894,-6.6894,-6.6894,-6.6894,-6.6894,-6.668,-6.6269,-6.5781,-6.4844,-6.3652,-6.3105,-6.2332,-6.149,-6.1349,-6.1259,-6.12,-6.1136,-6.1099,-6.1099,-6.1099,-6.1099,-6.1099,-6.1099,-6.1099,-6.1099,-6.1099,-6.1099,-6.1099,-6.1099,-6.1099,-6.1099,-6.1099,-6.1099,-6.1099,-6.1099,-6.1099,-6.1099,-6.1099,-6.1099,-6.1099,-6.1099,-6.0789,-6.0267,-5.9435,-5.7907,-5.6205,-5.4426,-5.3091,-5.195,-5.0995,-5.0898,-5.0898,-5.0898,-5.0901,-5.0901,-5.0898,-5.0808,-5.0775,-5.0801,-5.074,-5.0712,-5.0712,-5.0712,-5.0712,-5.0712,-5.0712,-5.0712,-5.0712,-5.0712,-5.0712,-3.6324,-3.8298,-4.0096,-3.9354,-3.9803,-4.0462,-4.0553,-4.1092,-4.1752,-4.2371,-4.201,-4.2344,-4.4826,-4.598,-4.7867,-5.1804,-5.3262,-5.4511,-5.6253,-5.6623,-5.6971,-5.7651,-5.9195,-6.0215,-6.0215,-6.0996,-6.1562,-6.1699,-6.1699,-6.1699,-6.1699,-6.1699,-6.1699,-6.1699,-6.2558,-6.2949,-6.2793,-6.3926,-6.4863,-6.5605,-6.6484,-6.6894,-6.6894,-6.6894,-6.6894,-6.6894,-6.6894,-6.6406,-6.5586,-6.5469,-6.4453,-6.2967,-6.2746,-6.2138,-6.1378,-6.1304,-6.12,-6.1099,-6.1099,-6.1099,-6.1099,-6.1099,-6.1099,-6.1099,-6.1099,-6.1099,-6.1099,-6.1099,-6.1099,-6.1099,-6.1099,-6.1099,-6.1099,-6.1099,-6.1099,-6.1099,-6.1099,-6.1099,-6.1099,-6.1099,-6.1002,-6.0925,-6.0925,-6.0248,-5.9358,-5.8352,-5.6263,-5.4445,-5.342,-5.1912,-5.0898,-5.0898,-5.0898,-5.0898,-5.0898,-5.0897,-5.0888,-5.0898,-5.0773,-5.0739,-5.0775,-5.074,-5.0712,-5.0712,-5.0712,-5.0712,-5.0712,-5.0712,-5.0712,-5.0712,-5.0712,-5.0712,-3.7807,-4.002,-4.1897,-4.1765,-4.2347,-4.3136,-4.3867,-4.414,-4.4247,-4.4355,-4.4773,-4.5684,-4.7561,-4.8574,-4.9829,-5.1903,-5.3683,-5.5416,-5.7154,-5.7569,-5.7733,-5.7851,-5.8769,-5.9375,-5.9375,-6.0117,-6.0918,-6.164,-6.1699,-6.1699,-6.1699,-6.1699,-6.1699,-6.1699,-6.2558,-6.2656,-6.1914,-6.4238,-6.5469,-6.5605,-6.6484,-6.6894,-6.6894,-6.6894,-6.6894,-6.6894,-6.6894,-6.6406,-6.5547,-6.4805,-6.3863,-6.2822,-6.1978,-6.1489,-6.1304,-6.1175,-6.1126,-6.1099,-6.1099,-6.1099,-6.1099,-6.1099,-6.1099,-6.1099,-6.1099,-6.1099,-6.1099,-6.1099,-6.1099,-6.1099,-6.1099,-6.1099,-6.1099,-6.1099,-6.1099,-6.1099,-6.1099,-6.1099,-6.1099,-6.1099,-6.0557,-6.0074,-6.0074,-5.9358,-5.8255,-5.665,-5.549,-5.4213,-5.2616,-5.1525,-5.0898,-5.0898,-5.0898,-5.0898,-5.0898,-5.0852,-5.0844,-5.0898,-5.0773,-5.0702,-5.0712,-5.0721,-5.0712,-5.0712,-5.0712,-5.0712,-5.0712,-5.0712,-5.0712,-5.0712,-5.0712,-5.0712,-3.7349,-3.9282,-4.1263,-4.3056,-4.4191,-4.5223,-4.646,-4.7145,-4.7359,-4.6849,-4.7397,-4.8205,-4.9,-5.0189,-5.1757,-5.3904,-5.5042,-5.61,-5.7364,-5.73,-5.7296,-5.7744,-5.8631,-5.9199,-5.9199,-6.0328,-6.1225,-6.168,-6.1676,-6.1655,-6.1699,-6.1675,-6.1649,-6.1649,-6.2489,-6.2716,-6.2242,-6.4468,-6.5351,-6.4902,-6.6269,-6.6894,-6.6894,-6.6894,-6.6894,-6.6875,-6.6406,-6.5703,-6.4824,-6.392,-6.3009,-6.2145,-6.1568,-6.1324,-6.1289,-6.1152,-6.1099,-6.1099,-6.1099,-6.1099,-6.1099,-6.1099,-6.1099,-6.1099,-6.1099,-6.1099,-6.1099,-6.1099,-6.1099,-6.1099,-6.1099,-6.1099,-6.1099,-6.1099,-6.1099,-6.1099,-6.1099,-6.1099,-6.0963,-6.0538,-6.0151,-5.9745,-5.9281,-5.8468,-5.7462,-5.6186,-5.5316,-5.4175,-5.2422,-5.1854,-5.1428,-5.0956,-5.0898,-5.0898,-5.0898,-5.0844,-5.0793,-5.0784,-5.0766,-5.0749,-5.0693,-5.0712,-5.0712,-5.0712,-5.0712,-5.0712,-5.0712,-5.0712,-5.0712,-5.0712,-5.0712,-5.0712,-3.72,-3.9217,-4.1558,-4.4866,-4.5852,-4.6532,-4.8528,-4.9698,-5.0131,-4.9439,-4.9977,-5.0654,-5.0867,-5.1931,-5.344,-5.5393,-5.6005,-5.6599,-5.7632,-5.7194,-5.6996,-5.7607,-5.8533,-5.9133,-5.9133,-6.0592,-6.1564,-6.1631,-6.1588,-6.1583,-6.1631,-6.1588,-6.1546,-6.1546,-6.2599,-6.2909,-6.2391,-6.467,-6.5403,-6.4588,-6.6152,-6.6894,-6.6894,-6.6894,-6.6777,-6.6502,-6.5838,-6.4937,-6.3877,-6.3145,-6.234,-6.151,-6.1349,-6.1281,-6.1237,-6.1134,-6.1099,-6.1099,-6.1099,-6.1099,-6.1099,-6.1099,-6.1099,-6.1099,-6.1099,-6.1099,-6.1099,-6.1099,-6.1099,-6.1099,-6.1099,-6.1099,-6.1099,-6.1099,-6.1099,-6.106,-6.0867,-6.0828,-6.0576,-5.9745,-5.9435,-5.9087,-5.841,-5.7579,-5.6699,-5.5857,-5.52,-5.4175,-5.2422,-5.221,-5.1873,-5.0995,-5.0898,-5.089,-5.0874,-5.0844,-5.0785,-5.0712,-5.0767,-5.0776,-5.0693,-5.0702,-5.0702,-5.0712,-5.0712,-5.0712,-5.0712,-5.0712,-5.0712,-5.0712,-5.0712,-5.0712,-3.8819,-4.1825,-4.5034,-4.8411,-4.7476,-4.6604,-4.9961,-5.1341,-5.1937,-5.1931,-5.2608,-5.3459,-5.4271,-5.4523,-5.4677,-5.4851,-5.5675,-5.6841,-5.8396,-5.8044,-5.7604,-5.7599,-5.8394,-5.8921,-5.8921,-6.0432,-6.1426,-6.1411,-6.1426,-6.1426,-6.1411,-6.1426,-6.1402,-6.1402,-6.3039,-6.3132,-6.151,-6.4837,-6.6116,-6.5323,-6.6383,-6.6894,-6.6894,-6.6894,-6.6383,-6.5499,-6.544,-6.4434,-6.2804,-6.2736,-6.2171,-6.1318,-6.1317,-6.1213,-6.1117,-6.1099,-6.1099,-6.1099,-6.1099,-6.1099,-6.1099,-6.1099,-6.1099,-6.1099,-6.1099,-6.1099,-6.1099,-6.1099,-6.1099,-6.1099,-6.1099,-6.1099,-6.1099,-6.1099,-6.1099,-6.0905,-6.0151,-5.9996,-5.9725,-5.8855,-5.8043,-5.7473,-5.7396,-5.6661,-5.5818,-5.5006,-5.4832,-5.4175,-5.2422,-5.221,-5.1873,-5.0995,-5.0898,-5.0874,-5.0819,-5.0855,-5.084,-5.0721,-5.0767,-5.0776,-5.0693,-5.0692,-5.0692,-5.0693,-5.0712,-5.0712,-5.0712,-5.0712,-5.0712,-5.0712,-5.0712,-5.0712,-4.0364,-4.3627,-4.6813,-4.9588,-4.9958,-5.0247,-5.2598,-5.3443,-5.3565,-5.305,-5.3674,-5.4233,-5.402,-5.4832,-5.5548,-5.5548,-5.6387,-5.7428,-5.8538,-5.8092,-5.7638,-5.7606,-5.7895,-5.8299,-5.8841,-5.9891,-6.0775,-6.1369,-6.137,-6.1359,-6.1408,-6.137,-6.1343,-6.1343,-6.1991,-6.2218,-6.202,-6.3992,-6.5065,-6.5239,-6.6229,-6.6714,-6.6694,-6.6151,-6.5709,-6.5274,-6.4182,-6.3323,-6.264,-6.2065,-6.1609,-6.1296,-6.1217,-6.1143,-6.1099,-6.1099,-6.1099,-6.1099,-6.1099,-6.1099,-6.1099,-6.1099,-6.1099,-6.1099,-6.1099,-6.1099,-6.1099,-6.1099,-6.1099,-6.1099,-6.1099,-6.1099,-6.0963,-6.046,-6.0344,-6.0112,-5.9261,-5.9087,-5.8836,-5.7965,-5.754,-5.7125,-5.6583,-5.6216,-5.5741,-5.4929,-5.4793,-5.4175,-5.2422,-5.221,-5.1873,-5.0995,-5.0898,-5.0901,-5.0863,-5.0846,-5.0803,-5.0721,-5.073,-5.072,-5.0693,-5.0702,-5.0712,-5.0712,-5.0712,-5.0712,-5.0712,-5.0712,-5.0712,-5.0693,-5.0702,-5.0692,-4.1618,-4.4879,-4.7932,-5.0144,-5.1337,-5.2415,-5.41,-5.4776,-5.4872,-5.4311,-5.4916,-5.5221,-5.4116,-5.5277,-5.6313,-5.6051,-5.6842,-5.7683,-5.8198,-5.7869,-5.7444,-5.7134,-5.7342,-5.7751,-5.8348,-5.9354,-6.0226,-6.089,-6.1114,-6.1262,-6.1298,-6.1269,-6.1229,-6.1229,-6.1772,-6.2161,-6.2394,-6.3922,-6.4828,-6.5078,-6.6021,-6.6516,-6.657,-6.5699,-6.5119,-6.4755,-6.3295,-6.2494,-6.216,-6.1495,-6.1229,-6.124,-6.1134,-6.1099,-6.1099,-6.1099,-6.1099,-6.1099,-6.1099,-6.1099,-6.1099,-6.1099,-6.1099,-6.1099,-6.1099,-6.1099,-6.106,-6.0789,-6.0712,-6.0654,-6.0383,-6.0518,-6.0518,-5.9687,-5.9493,-5.9242,-5.8372,-5.8197,-5.7927,-5.7048,-5.6893,-5.6699,-5.61,-5.5799,-5.5432,-5.4871,-5.4561,-5.3865,-5.2384,-5.221,-5.1873,-5.0995,-5.0874,-5.0869,-5.0863,-5.0801,-5.0757,-5.0702,-5.0702,-5.0702,-5.0693,-5.0702,-5.0702,-5.0712,-5.0952,-5.0952,-5.0712,-5.0952,-5.0952,-5.0693,-5.0702,-5.0701,-4.2537,-4.5618,-4.8548,-5.0308,-5.1337,-5.2365,-5.4107,-5.5178,-5.5807,-5.5866,-5.658,-5.6693,-5.5094,-5.6167,-5.699,-5.6139,-5.6842,-5.7435,-5.7314,-5.7404,-5.7125,-5.6126,-5.6757,-5.728,-5.7299,-5.8874,-5.988,-5.9899,-6.0654,-6.1099,-6.1099,-6.1099,-6.1099,-6.1118,-6.2781,-6.3284,-6.2433,-6.4928,-6.5779,-6.5006,-6.5799,-6.6331,-6.6551,-6.5679,-6.4744,-6.3738,-6.2949,-6.2016,-6.1099,-6.1099,-6.1099,-6.1099,-6.1099,-6.1099,-6.1099,-6.1099,-6.1099,-6.1099,-6.1099,-6.1099,-6.1099,-6.1099,-6.1099,-6.1099,-6.1099,-6.1099,-6.0925,-6.0112,-5.988,-5.9687,-5.8797,-5.9223,-5.9648,-5.8778,-5.8593,-5.8352,-5.7473,-5.728,-5.7028,-5.6158,-5.6012,-5.6012,-5.6012,-5.5335,-5.4813,-5.4793,-5.4039,-5.3169,-5.2306,-5.219,-5.1854,-5.0995,-5.0852,-5.0801,-5.0801,-5.0729,-5.0702,-5.0693,-5.0712,-5.0712,-5.0712,-5.0692,-5.0692,-5.0693,-5.1491,-5.151,-5.0712,-5.151,-5.1491,-5.0693,-5.0702,-5.0701,-4.4107,-4.7383,-5.0471,-5.2799,-5.3087,-5.326,-5.4953,-5.511,-5.4911,-5.5035,-5.5302,-5.5376,-5.489,-5.5664,-5.6293,-5.6051,-5.6248,-5.6651,-5.7211,-5.6809,-5.6322,-5.6031,-5.6235,-5.6622,-5.7241,-5.8314,-5.9242,-5.9841,-6.0654,-6.1099,-6.1099,-6.1099,-6.1389,-6.2008,-6.253,-6.3245,-6.4213,-6.4986,-6.5508,-6.5837,-6.5508,-6.5403,-6.5452,-6.4569,-6.3682,-6.2777,-6.1905,-6.1386,-6.1099,-6.1099,-6.1099,-6.1099,-6.1099,-6.1099,-6.1099,-6.1099,-6.1099,-6.1099,-6.1099,-6.1099,-6.1099,-6.1099,-6.1099,-6.0983,-6.0422,-6.0267,-6.0074,-5.9223,-5.899,-5.8778,-5.7907,-5.7888,-5.8004,-5.7753,-5.7695,-5.7462,-5.6564,-5.639,-5.6313,-5.6051,-5.6012,-5.6012,-5.6012,-5.5799,-5.5238,-5.4058,-5.3672,-5.2956,-5.1486,-5.1288,-5.1195,-5.0935,-5.0836,-5.0801,-5.0801,-5.0729,-5.0692,-5.0702,-5.0712,-5.0712,-5.0712,-5.0702,-5.0702,-5.0712,-5.0933,-5.0933,-5.0712,-5.0933,-5.0933,-5.0693,-5.0758,-5.0775,-4.6243,-4.9633,-5.2568,-5.4126,-5.4107,-5.3895,-5.4568,-5.485,-5.492,-5.4679,-5.5208,-5.565,-5.5339,-5.5956,-5.639,-5.607,-5.6012,-5.6177,-5.6699,-5.6332,-5.6012,-5.6012,-5.6012,-5.6197,-5.6719,-5.7579,-5.8449,-5.9319,-6.0151,-6.077,-6.1079,-6.1099,-6.1505,-6.2375,-6.2743,-6.3594,-6.4986,-6.4986,-6.5238,-6.5702,-6.487,-6.429,-6.3942,-6.342,-6.2897,-6.2356,-6.1485,-6.1099,-6.1099,-6.1099,-6.1099,-6.1099,-6.1099,-6.1099,-6.1099,-6.1099,-6.1099,-6.1099,-6.1099,-6.1099,-6.1099,-6.1099,-6.0886,-6.0538,-6.0054,-5.9648,-5.9203,-5.8333,-5.8081,-5.7888,-5.7009,-5.6777,-5.6777,-5.6777,-5.6777,-5.6641,-5.61,-5.6012,-5.6012,-5.6012,-5.6012,-5.6012,-5.6012,-5.5741,-5.518,-5.4175,-5.342,-5.2484,-5.1075,-5.0897,-5.0891,-5.0855,-5.0793,-5.0766,-5.0766,-5.072,-5.0692,-5.0692,-5.0702,-5.0712,-5.0712,-5.0712,-5.0712,-5.0712,-5.1337,-5.151,-5.1183,-5.1875,-5.1876,-5.1222,-5.1297,-5.1149,-4.8375,-5.1779,-5.4414,-5.4568,-5.4549,-5.428,-5.351,-5.4491,-5.5359,-5.4563,-5.576,-5.6754,-5.6116,-5.6645,-5.6923,-5.6139,-5.6003,-5.6003,-5.6003,-5.6012,-5.6012,-5.6012,-5.6012,-5.6012,-5.6012,-5.6796,-5.7637,-5.841,-5.9281,-6.0132,-6.0944,-6.106,-6.1543,-6.2491,-6.3284,-6.4126,-6.4986,-6.4909,-6.488,-6.488,-6.401,-6.3168,-6.2394,-6.2394,-6.2356,-6.224,-6.1447,-6.1099,-6.1099,-6.1099,-6.1099,-6.1099,-6.1099,-6.1099,-6.1099,-6.1099,-6.1099,-6.1099,-6.1099,-6.1099,-6.1099,-6.1002,-6.0499,-5.9861,-5.9706,-5.9106,-5.8294,-5.7443,-5.7183,-5.699,-5.6197,-5.6012,-5.6012,-5.6012,-5.6012,-5.6012,-5.6012,-5.6012,-5.6012,-5.6012,-5.6012,-5.6012,-5.6012,-5.5393,-5.4871,-5.4813,-5.3382,-5.2,-5.1128,-5.1015,-5.096,-5.0801,-5.0748,-5.0692,-5.0692,-5.0693,-5.0712,-5.0712,-5.0712,-5.0712,-5.0712,-5.0712,-5.0712,-5.0712,-5.2279,-5.2692,-5.1904,-5.3491,-5.3483,-5.1992,-5.1981,-5.161,-4.7644,-5.0875,-5.3799,-5.5107,-5.4972,-5.4453,-5.426,-5.4491,-5.4531,-5.3716,-5.44,-5.5326,-5.5837,-5.6078,-5.6155,-5.6027,-5.5989,-5.6007,-5.6003,-5.6012,-5.6012,-5.6012,-5.6012,-5.6012,-5.6012,-5.6796,-5.7376,-5.7579,-5.8391,-5.9242,-6.0112,-6.077,-6.1814,-6.3362,-6.3603,-6.4126,-6.4986,-6.4319,-6.399,-6.3971,-6.3091,-6.2588,-6.2394,-6.2394,-6.2027,-6.1369,-6.1176,-6.1099,-6.1099,-6.1099,-6.1099,-6.1099,-6.1099,-6.1099,-6.1099,-6.1099,-6.1099,-6.1099,-6.1099,-6.1099,-6.1002,-6.0364,-6.0035,-5.9648,-5.8275,-5.7733,-5.7404,-5.6525,-5.6274,-5.6235,-5.6051,-5.6012,-5.6012,-5.6012,-5.6012,-5.6012,-5.6012,-5.6012,-5.6012,-5.6012,-5.6012,-5.6012,-5.6012,-5.5857,-5.5528,-5.4909,-5.3904,-5.2917,-5.2039,-5.1865,-5.1563,-5.0878,-5.074,-5.0702,-5.0702,-5.0693,-5.0712,-5.0712,-5.0712,-5.0712,-5.0712,-5.0712,-5.0712,-5.0712,-5.1664,-5.2096,-5.1904,-5.2338,-5.2348,-5.1992,-5.1427,-5.1065,-4.7086,-5.001,-5.2606,-5.5068,-5.478,-5.3991,-5.4395,-5.4184,-5.3886,-5.3878,-5.4573,-5.5306,-5.5769,-5.5885,-5.5905,-5.5953,-5.5962,-5.5952,-5.5951,-5.5979,-5.5996,-5.5996,-5.5995,-5.6012,-5.6012,-5.6409,-5.6854,-5.726,-5.7714,-5.8352,-5.9223,-6.0074,-6.1118,-6.2414,-6.2859,-6.3497,-6.4377,-6.3516,-6.3071,-6.3071,-6.2201,-6.1776,-6.1776,-6.1776,-6.1524,-6.1099,-6.1099,-6.1099,-6.1099,-6.1099,-6.1099,-6.1099,-6.1099,-6.1099,-6.1099,-6.1099,-6.1099,-6.1099,-6.1099,-6.0847,-6.046,-6.0035,-5.9339,-5.8488,-5.757,-5.7009,-5.6583,-5.6119,-5.6012,-5.6012,-5.6012,-5.6012,-5.6012,-5.6012,-5.6012,-5.6012,-5.6012,-5.6012,-5.6012,-5.6012,-5.6012,-5.6012,-5.6012,-5.6012,-5.5741,-5.4929,-5.439,-5.36,-5.2324,-5.211,-5.1748,-5.0843,-5.0711,-5.0693,-5.0693,-5.0712,-5.0712,-5.0712,-5.0712,-5.0712,-5.0712,-5.0712,-5.0712,-5.0712,-5.1491,-5.2115,-5.2519,-5.2579,-5.2618,-5.2608,-5.1831,-5.1275,-4.6355,-4.9471,-5.2058,-5.4972,-5.4549,-5.3606,-5.4337,-5.3933,-5.3626,-5.4357,-5.5187,-5.5776,-5.5776,-5.5826,-5.5875,-5.5885,-5.5885,-5.5885,-5.5895,-5.5962,-5.5999,-5.5999,-5.5996,-5.6012,-5.6012,-5.6012,-5.6293,-5.7009,-5.7086,-5.7462,-5.8333,-5.9339,-6.0267,-6.1079,-6.195,-6.2743,-6.3468,-6.2607,-6.2182,-6.2182,-6.1447,-6.1099,-6.1099,-6.1099,-6.1099,-6.1099,-6.1099,-6.1099,-6.1099,-6.1099,-6.1099,-6.1099,-6.1099,-6.1099,-6.1099,-6.1099,-6.1099,-6.1079,-6.0944,-6.046,-5.9841,-5.9551,-5.8488,-5.726,-5.7125,-5.6564,-5.6012,-5.6012,-5.6012,-5.6012,-5.6012,-5.6012,-5.6012,-5.6012,-5.6012,-5.6012,-5.6012,-5.6012,-5.6012,-5.6012,-5.6012,-5.6012,-5.6012,-5.6012,-5.578,-5.5103,-5.4963,-5.4299,-5.2561,-5.2305,-5.1884,-5.0817,-5.0701,-5.0702,-5.0693,-5.0712,-5.0712,-5.0712,-5.0712,-5.0712,-5.0712,-5.0693,-5.0702,-5.0702,-5.1654,-5.2559,-5.3424,-5.3494,-5.3542,-5.3522,-5.2571,-5.1755,-4.494,-4.9875,-5.426,-5.5415,-5.5011,-5.4357,-5.4472,-5.4414,-5.4357,-5.4472,-5.5156,-5.5714,-5.5714,-5.5724,-5.5745,-5.5797,-5.5797,-5.5836,-5.5895,-5.5962,-5.5999,-5.5999,-5.5996,-5.6012,-5.6012,-5.6012,-5.6051,-5.6158,-5.6158,-5.6545,-5.7434,-5.9029,-6.0267,-6.1079,-6.195,-6.2472,-6.2569,-6.1718,-6.1273,-6.1273,-6.1157,-6.1099,-6.1099,-6.1099,-6.1099,-6.1099,-6.1099,-6.1099,-6.1099,-6.1099,-6.1099,-6.1099,-6.1099,-6.1099,-6.1099,-6.1099,-6.1099,-6.1002,-6.0306,-5.9996,-5.9648,-5.8139,-5.7492,-5.7164,-5.639,-5.6089,-5.6012,-5.6012,-5.6012,-5.6012,-5.6012,-5.6012,-5.6012,-5.6012,-5.6012,-5.6012,-5.6012,-5.6012,-5.6012,-5.6012,-5.6012,-5.6012,-5.6012,-5.6012,-5.5973,-5.5857,-5.5833,-5.5207,-5.3449,-5.3173,-5.251,-5.0874,-5.0701,-5.0702,-5.0693,-5.0712,-5.0712,-5.0712,-5.0712,-5.0712,-5.0712,-5.0712,-5.0711,-5.0711,-5.229,-5.3504,-5.4332,-5.4448,-5.4513,-5.4483,-5.2912,-5.2124,-4.4171,-4.8923,-5.2914,-5.5145,-5.5088,-5.4626,-5.5068,-5.4453,-5.4049,-5.4972,-5.5088,-5.5164,-5.5607,-5.5703,-5.5714,-5.5745,-5.5745,-5.5756,-5.5776,-5.5846,-5.5895,-5.5895,-5.5914,-5.596,-5.6007,-5.6007,-5.5996,-5.6003,-5.6012,-5.6158,-5.6545,-5.8217,-5.9319,-5.9687,-6.0983,-6.1679,-6.1679,-6.1292,-6.1099,-6.1099,-6.1099,-6.1099,-6.1099,-6.1099,-6.1099,-6.1099,-6.1099,-6.1099,-6.1099,-6.1099,-6.1099,-6.1099,-6.1099,-6.1099,-6.1099,-6.1099,-6.0809,-6.0383,-6.0016,-5.9261,-5.8314,-5.755,-5.697,-5.6487,-5.6128,-5.6012,-5.6012,-5.6012,-5.6012,-5.6012,-5.6012,-5.6012,-5.6012,-5.6012,-5.6012,-5.6012,-5.6012,-5.6012,-5.6012,-5.6012,-5.6012,-5.6012,-5.6012,-5.6012,-5.6012,-5.6012,-5.596,-5.5499,-5.429,-5.361,-5.2772,-5.1568,-5.1385,-5.1183,-5.075,-5.1106,-5.1375,-5.1375,-5.0952,-5.0914,-5.1405,-5.1424,-5.1654,-5.2154,-5.2463,-5.3022,-5.3832,-5.3916,-5.3971,-5.3951,-5.2746,-5.1931,-4.3143,-4.698,-5.0269,-5.3837,-5.4126,-5.3857,-5.5107,-5.4434,-5.3818,-5.4857,-5.4934,-5.4934,-5.5318,-5.5549,-5.5703,-5.5703,-5.5703,-5.5703,-5.5703,-5.5756,-5.5797,-5.5797,-5.5856,-5.5914,-5.5971,-5.599,-5.5989,-5.6005,-5.6003,-5.6012,-5.6012,-5.7656,-5.8613,-5.8613,-6.0228,-6.1099,-6.1099,-6.1099,-6.1099,-6.1099,-6.1099,-6.1099,-6.1099,-6.1099,-6.1099,-6.1099,-6.1099,-6.1099,-6.1099,-6.1099,-6.1099,-6.1099,-6.1099,-6.1099,-6.1079,-6.0867,-6.0422,-5.9841,-5.9397,-5.8391,-5.726,-5.7028,-5.6525,-5.6012,-5.6012,-5.6012,-5.6012,-5.6012,-5.6012,-5.6012,-5.6012,-5.6012,-5.6012,-5.6012,-5.6012,-5.6003,-5.5995,-5.6005,-5.5986,-5.5977,-5.5968,-5.5977,-5.6005,-5.6005,-5.6005,-5.6005,-5.5933,-5.5596,-5.4756,-5.3986,-5.3233,-5.2396,-5.2271,-5.2001,-5.1395,-5.1895,-5.2135,-5.1904,-5.1347,-5.1318,-5.1973,-5.202,-5.2433,-5.3299,-5.297,-5.3182,-5.4003,-5.4039,-5.3969,-5.3737,-5.2901,-5.2066,-4.147,-4.3893,-4.6883,-5.1038,-5.1491,-5.1539,-5.3991,-5.4491,-5.4222,-5.3491,-5.4568,-5.5415,-5.4703,-5.5184,-5.5703,-5.5703,-5.5703,-5.5703,-5.5703,-5.5756,-5.5797,-5.5797,-5.5856,-5.5895,-5.5905,-5.5962,-5.5999,-5.5999,-5.6005,-5.6012,-5.6012,-5.7656,-5.8613,-5.8613,-6.0228,-6.1099,-6.1099,-6.1099,-6.1099,-6.1099,-6.1099,-6.1099,-6.1099,-6.1099,-6.1099,-6.1099,-6.1099,-6.1099,-6.1099,-6.1099,-6.1099,-6.1099,-6.1099,-6.1099,-6.1002,-6.0248,-5.9938,-5.9667,-5.8023,-5.7376,-5.7164,-5.6332,-5.6051,-5.6012,-5.6012,-5.6012,-5.6012,-5.6012,-5.6012,-5.6012,-5.6012,-5.6012,-5.6012,-5.6012,-5.6012,-5.5995,-5.6008,-5.5999,-5.5981,-5.5914,-5.5905,-5.5924,-5.599,-5.5999,-5.5999,-5.5999,-5.5933,-5.5557,-5.4631,-5.4448,-5.41,-5.3232,-5.3195,-5.3186,-5.3087,-5.3106,-5.2779,-5.1942,-5.1925,-5.1953,-5.1992,-5.2064,-5.2494,-5.3383,-5.4227,-5.5058,-5.5855,-5.587,-5.5462,-5.4716,-5.3846,-5.2975,-4.1038,-4.2874,-4.5009,-4.924,-5.0894,-5.1856,-5.3337,-5.4107,-5.4549,-5.4761,-5.4876,-5.4991,-5.5222,-5.5511,-5.5703,-5.5703,-5.5703,-5.5703,-5.5703,-5.5724,-5.5735,-5.5735,-5.5756,-5.5796,-5.5836,-5.5856,-5.5895,-5.5924,-5.5971,-5.5998,-5.5998,-5.7116,-5.8023,-5.8593,-5.9725,-6.0576,-6.1099,-6.1099,-6.1099,-6.1099,-6.1099,-6.1099,-6.1099,-6.1099,-6.1099,-6.1099,-6.1099,-6.1099,-6.1099,-6.1099,-6.1099,-6.1099,-6.1099,-6.0789,-6.0286,-6.0016,-5.9184,-5.8139,-5.7512,-5.6932,-5.6409,-5.61,-5.6012,-5.6012,-5.6012,-5.6012,-5.6012,-5.6012,-5.6012,-5.6012,-5.6012,-5.6012,-5.6012,-5.6012,-5.6012,-5.5995,-5.6008,-5.5998,-5.5987,-5.5981,-5.5971,-5.5962,-5.5943,-5.5943,-5.5953,-5.599,-5.5905,-5.5721,-5.5451,-5.4871,-5.4368,-5.4062,-5.4062,-5.387,-5.3369,-5.3793,-5.3967,-5.3658,-5.3176,-5.3156,-5.3705,-5.376,-5.393,-5.4285,-5.463,-5.4669,-5.4401,-5.4959,-5.4503,-5.3111,-5.2801,-5.2202,-3.9308,-4.0508,-4.197,-4.622,-4.8548,-5.0317,-5.2318,-5.3433,-5.4299,-5.5126,-5.5088,-5.4972,-5.5241,-5.5511,-5.5703,-5.5703,-5.5703,-5.5703,-5.5703,-5.5703,-5.5703,-5.5703,-5.5703,-5.5724,-5.5756,-5.5787,-5.5826,-5.5856,-5.5924,-5.5971,-5.5971,-5.679,-5.7812,-5.899,-5.9861,-6.0557,-6.1099,-6.1099,-6.1099,-6.1099,-6.1099,-6.1099,-6.1099,-6.1099,-6.1099,-6.1099,-6.1099,-6.1099,-6.1099,-6.1099,-6.1099,-6.1079,-6.0809,-6.0364,-5.9822,-5.9242,-5.8294,-5.726,-5.697,-5.6467,-5.6012,-5.6012,-5.6012,-5.6012,-5.6012,-5.6012,-5.6012,-5.6012,-5.6012,-5.6012,-5.6012,-5.6012,-5.6012,-5.6012,-5.6012,-5.6003,-5.6007,-5.5979,-5.5969,-5.5943,-5.5914,-5.5905,-5.5895,-5.5895,-5.5914,-5.599,-5.5924,-5.5856,-5.5875,-5.5354,-5.4957,-5.4939,-5.4959,-5.4767,-5.4284,-5.4728,-5.4901,-5.4621,-5.411,-5.4099,-5.4685,-5.4723,-5.4749,-5.4793,-5.4793,-5.4233,-5.3072,-5.3942,-5.3614,-5.221,-5.221,-5.1738,0.0,0.0,0.0,-4.197,-4.4316,-4.6682,-5.0827,-5.2538,-5.3491,-5.4337,-5.5145,-5.5453,-5.4684,-5.5164,-5.5703,-5.5703,-5.5684,-5.5665,-5.5665,-5.5665,-5.5665,-5.5703,-5.5703,-5.5703,-5.5703,-5.5756,-5.5787,-5.5787,-5.5856,-5.5895,-5.5895,-5.6744,-5.8055,-5.9841,-6.0673,-6.1099,-6.1099,-6.1099,-6.1099,-6.1099,-6.1099,-6.1099,-6.1099,-6.1099,-6.1099,-6.1099,-6.1099,-6.1099,-6.1099,-6.1099,-6.1099,-6.1021,-6.0209,-5.988,-5.9648,-5.7927,-5.728,-5.7144,-5.6293,-5.6012,-5.6012,-5.6012,-5.6012,-5.6012,-5.6012,-5.6012,-5.6012,-5.6012,-5.6012,-5.6012,-5.6012,-5.6012,-5.6003,-5.6003,-5.6003,-5.6003,-5.6003,-5.5951,-5.5885,-5.5826,-5.5756,-5.5745,-5.5885,-5.5895,-5.5914,-5.599,-5.599,-5.5943,-5.5826,-5.5856,-5.5885,-5.5797,-5.5856,-5.5905,-5.5905,-5.5905,-5.5538,-5.4679,-5.4697,-5.4743,-5.4733,-5.4776,-5.4793,-5.4793,-5.4755,-5.3884,-5.221,-5.3053,-5.3014,-5.2171,-5.2171,-5.1718,-3.6238,0.0,0.0,0.0,0.0,0.0,-4.8606,-5.1741,-5.4203,-5.4453,-5.5145,-5.5626,-5.5415,-5.5549,-5.5703,-5.5703,-5.5203,-5.4818,-5.4818,-5.4818,-5.5049,-5.5626,-5.5703,-5.5703,-5.5703,-5.5724,-5.5735,-5.5735,-5.5776,-5.5826,-5.5826,-5.7245,-5.8616,-5.9795,-6.0597,-6.1041,-6.1099,-6.1099,-6.1099,-6.1099,-6.1099,-6.1099,-6.1099,-6.1099,-6.1099,-6.1099,-6.1099,-6.1099,-6.1099,-6.1099,-6.1099,-6.1021,-6.0209,-5.9513,-5.8816,-5.7714,-5.6893,-5.6332,-5.6081,-5.6012,-5.6012,-5.6012,-5.6012,-5.6012,-5.6012,-5.6012,-5.6012,-5.6012,-5.6012,-5.6012,-5.6012,-5.6012,-5.6003,-5.6007,-5.6005,-5.5995,-5.6007,-5.599,-5.5971,-5.5962,-5.5924,-5.5914,-5.5895,-5.5895,-5.5914,-5.599,-5.5962,-5.5924,-5.5933,-5.5914,-5.5905,-5.5933,-5.5962,-5.5971,-5.5968,-5.5968,-5.5872,-5.562,-5.5638,-5.5638,-5.5647,-5.5094,-5.4793,-5.4793,-5.3556,-5.2693,-5.221,-5.2442,-5.2105,-5.1254,-5.1254,-5.113,-3.5295,-3.5045,-3.5064,-3.7738,0.0,0.0,-4.6971,-5.0067,-5.2876,-5.4645,-5.5107,-5.5299,-5.5645,-5.5703,-5.5588,-5.5241,-5.4799,-5.4491,-5.4491,-5.4491,-5.4664,-5.5145,-5.4876,-5.4934,-5.5626,-5.5395,-5.5338,-5.5665,-5.5735,-5.5766,-5.5787,-5.7436,-5.8614,-5.9196,-6.0374,-6.1022,-6.107,-6.1089,-6.1099,-6.1099,-6.1099,-6.1099,-6.1099,-6.1099,-6.1099,-6.1099,-6.1099,-6.1099,-6.1079,-6.0731,-6.0596,-6.0518,-5.9687,-5.8836,-5.7946,-5.7076,-5.6429,-5.6012,-5.6012,-5.6012,-5.6012,-5.6012,-5.6012,-5.6012,-5.6012,-5.6012,-5.6012,-5.6012,-5.6012,-5.6012,-5.6012,-5.6012,-5.6003,-5.5996,-5.6005,-5.6003,-5.5996,-5.6007,-5.5998,-5.5999,-5.5981,-5.5943,-5.5933,-5.5933,-5.5952,-5.5998,-5.596,-5.5961,-5.599,-5.5971,-5.5961,-5.599,-5.5998,-5.5996,-5.6003,-5.6012,-5.6012,-5.6012,-5.5702,-5.5509,-5.5509,-5.4697,-5.4097,-5.371,-5.2724,-5.2008,-5.166,-5.166,-5.1409,-5.0898,-5.0898,-5.0898,-3.4071,-3.3506,-3.3218,-3.5038,-3.7873,0.0,-4.5413,-4.7702,-5.0106,-5.403,-5.4357,-5.4203,-5.5107,-5.5203,-5.4972,-5.4434,-5.426,-5.428,-5.4472,-5.4491,-5.453,-5.4626,-5.3953,-5.4068,-5.5549,-5.4972,-5.4799,-5.5511,-5.5568,-5.5667,-5.5911,-5.7443,-5.8428,-5.8662,-6.019,-6.0992,-6.0992,-6.1061,-6.1089,-6.1089,-6.1099,-6.1099,-6.1099,-6.1099,-6.1099,-6.1099,-6.1099,-6.1099,-6.1041,-6.0228,-5.9899,-5.9803,-5.8836,-5.7985,-5.7183,-5.6313,-5.6012,-5.6012,-5.6012,-5.6012,-5.6012,-5.6012,-5.6012,-5.6012,-5.6012,-5.6012,-5.6012,-5.6012,-5.6012,-5.6012,-5.6012,-5.6012,-5.6003,-5.6003,-5.6003,-5.6003,-5.6003,-5.6003,-5.5995,-5.5989,-5.5943,-5.5933,-5.5999,-5.5999,-5.5998,-5.6003,-5.6012,-5.5995,-5.6008,-5.6005,-5.5995,-5.6008,-5.6005,-5.6012,-5.6012,-5.6012,-5.5973,-5.5877,-5.52,-5.4755,-5.4658,-5.3826,-5.2995,-5.2229,-5.2113,-5.166,-5.0898,-5.0898,-5.0898,-5.0898,-5.0898,-5.0898,-3.4706,-3.3083,-3.2506,-3.4904,-3.7007,0.0,-4.2143,-4.4624,-4.6951,-4.9125,-5.0029,-5.0856,-5.2346,-5.2106,-5.2068,-5.326,-5.2856,-5.2895,-5.4299,-5.4491,-5.4741,-5.5395,-5.5318,-5.5338,-5.5665,-5.4972,-5.4568,-5.4722,-5.4722,-5.5329,-5.6686,-5.7745,-5.8941,-6.0363,-6.074,-6.0946,-6.1008,-6.1011,-6.1022,-6.1022,-6.108,-6.1099,-6.1099,-6.1099,-6.1099,-6.1099,-6.1099,-6.1099,-6.1041,-6.0228,-5.9899,-5.9745,-5.8178,-5.7454,-5.7183,-5.6313,-5.6012,-5.6012,-5.6012,-5.6012,-5.6012,-5.6012,-5.6012,-5.6012,-5.6012,-5.6012,-5.6012,-5.6012,-5.6012,-5.6012,-5.6012,-5.6012,-5.5995,-5.5998,-5.5996,-5.5995,-5.5998,-5.5996,-5.6003,-5.5995,-5.5986,-5.5986,-5.5995,-5.5995,-5.5995,-5.6003,-5.6012,-5.6003,-5.5995,-5.6003,-5.6003,-5.5995,-5.6003,-5.6012,-5.6012,-5.6012,-5.5722,-5.5084,-5.489,-5.4484,-5.3768,-5.2917,-5.2364,-5.221,-5.1505,-5.1072,-5.0898,-5.0898,-5.0898,-5.0898,-5.0898,-5.0898,-3.5129,-3.3276,-3.2602,-3.3891,-3.5161,0.0,0.0,-4.247,-4.4182,-4.5855,-4.724,-4.8413,-4.925,-4.976,-5.0317,-5.1164,-5.1635,-5.2058,-5.2529,-5.3318,-5.4164,-5.4991,-5.4722,-5.478,-5.5607,-5.4972,-5.4664,-5.5068,-5.5107,-5.5472,-5.631,-5.7184,-5.8253,-5.9557,-6.0022,-6.0479,-6.0955,-6.0989,-6.1,-6.1,-6.1021,-6.1051,-6.1041,-6.1041,-6.107,-6.1099,-6.1099,-6.0867,-6.0441,-5.959,-5.899,-5.8526,-5.7628,-5.7028,-5.6603,-5.6158,-5.6012,-5.6012,-5.6012,-5.6012,-5.6012,-5.6012,-5.6012,-5.6012,-5.6012,-5.6012,-5.6012,-5.6012,-5.6012,-5.6012,-5.6012,-5.6012,-5.6003,-5.5996,-5.5995,-5.6003,-5.5996,-5.5995,-5.6012,-5.6012,-5.6012,-5.6012,-5.6012,-5.6012,-5.6012,-5.6012,-5.6012,-5.6012,-5.6012,-5.6012,-5.6012,-5.6012,-5.6012,-5.6012,-5.6012,-5.5625,-5.5238,-5.4832,-5.3981,-5.3304,-5.2859,-5.2008,-5.1544,-5.1544,-5.1111,-5.0898,-5.0898,-5.0898,-5.0898,-5.0898,-5.0898,-5.0898,-3.6168,-3.4295,-3.3583,-3.3449,-3.393,-3.5437,0.0,0.0,0.0,-4.2989,-4.4451,-4.5547,-4.5865,-4.7028,-4.7875,-4.7702,-4.9106,-4.9933,-4.9106,-5.0721,-5.2549,-5.4068,-5.378,-5.3972,-5.5338,-5.5626,-5.5568,-5.5241,-5.6126,-5.6395,-5.5742,-5.6695,-5.7627,-5.8511,-5.9383,-6.0176,-6.0869,-6.0944,-6.0976,-6.0976,-6.0987,-6.0999,-6.1011,-6.1002,-6.1022,-6.108,-6.1089,-6.0634,-5.9822,-5.8952,-5.8081,-5.728,-5.7125,-5.6622,-5.5995,-5.6003,-5.6003,-5.5995,-5.6003,-5.6012,-5.6012,-5.6012,-5.6012,-5.6012,-5.6012,-5.6012,-5.6012,-5.6012,-5.6012,-5.6012,-5.6012,-5.6012,-5.6012,-5.6012,-5.6012,-5.6012,-5.6012,-5.6012,-5.6012,-5.6012,-5.6012,-5.6012,-5.6012,-5.6012,-5.6012,-5.6012,-5.6012,-5.6012,-5.6012,-5.6012,-5.6012,-5.6012,-5.6012,-5.5935,-5.578,-5.518,-5.4658,-5.431,-5.2975,-5.2132,-5.195,-5.1273,-5.0898,-5.0898,-5.0898,-5.0898,-5.0898,-5.0898,-5.0898,-5.0898,-5.0898,-5.0898,-3.9142,-3.693,-3.6096,-3.5385,-3.5288,-3.5865,-3.7834,0.0,-3.7777,-3.9508,0.0,-4.0623,-4.2104,0.0,0.0,-4.1651,-4.297,-4.3797,-4.2931,-4.5577,-4.9048,-5.2895,-5.3933,-5.4434,-5.4626,-5.7934,-5.8242,-5.3818,-5.7665,-5.8896,-5.5857,-5.7261,-5.8531,-5.9338,-6.0215,-6.0716,-6.0812,-6.0869,-6.0922,-6.0922,-6.0965,-6.0997,-6.1008,-6.1001,-6.1012,-6.1012,-6.108,-6.0634,-5.9822,-5.8952,-5.8081,-5.7222,-5.6448,-5.6102,-5.6008,-5.5995,-5.6005,-5.6008,-5.5995,-5.6012,-5.6012,-5.6012,-5.6012,-5.6012,-5.6012,-5.6012,-5.6012,-5.6012,-5.6012,-5.6012,-5.6012,-5.6012,-5.6012,-5.6012,-5.6012,-5.6012,-5.6012,-5.6012,-5.6012,-5.6012,-5.6012,-5.6012,-5.6012,-5.6012,-5.6012,-5.6012,-5.6012,-5.6012,-5.6012,-5.6012,-5.6012,-5.6012,-5.6012,-5.5722,-5.5006,-5.4851,-5.4136,-5.2597,-5.2306,-5.1854,-5.1072,-5.0956,-5.0898,-5.0898,-5.0898,-5.0898,-5.0898,-5.0898,-5.0898,-5.0898,-5.0898,-5.0898,-4.3143,-4.1393,-4.0566,-3.8277,-3.845,-3.8942,-3.818,-3.8104,-3.7812,-3.6454,0.0,0.0,0.0,0.0,0.0,0.0,-4.1163,-4.222,-4.1846,-4.4316,-4.7163,-4.9913,-5.1452,-5.2683,-5.3645,-5.7569,-5.855,-5.4914,-5.7992,-5.8761,-5.5857,-5.6876,-5.7934,-5.8781,-5.9608,-6.0281,-6.08,-6.0823,-6.0835,-6.0835,-6.0869,-6.0891,-6.0944,-6.0938,-6.0959,-6.0971,-6.0499,-5.9833,-5.9022,-5.8161,-5.7311,-5.6509,-5.613,-5.5995,-5.5996,-5.6003,-5.5995,-5.5996,-5.6003,-5.6012,-5.6012,-5.6012,-5.6012,-5.6012,-5.6012,-5.6012,-5.6012,-5.6012,-5.6012,-5.6012,-5.6012,-5.6012,-5.6012,-5.6012,-5.6012,-5.6012,-5.6012,-5.6012,-5.6012,-5.6012,-5.6012,-5.6012,-5.6012,-5.6012,-5.6012,-5.6012,-5.6012,-5.6012,-5.6012,-5.6012,-5.5818,-5.5354,-5.5296,-5.4967,-5.4116,-5.3575,-5.2975,-5.2248,-5.1738,-5.1273,-5.0917,-5.0898,-5.0898,-5.0898,-5.0898,-5.0898,-5.0898,-5.0898,-5.0898,-5.0898,-5.0898,-5.0898,-4.6894,-4.5355,-4.4432,-4.1989,-4.1931,-4.2008,-4.0142,-3.9854,-3.9035,-3.5714,-3.6272,0.0,0.0,0.0,-3.7897,-3.6981,0.0,-4.0002,-3.908,-4.158,-4.4393,-4.6778,-4.8606,-5.0221,-5.1664,-5.6896,-5.8877,-5.5626,-5.88,-5.9377,-5.5895,-5.6541,-5.728,-5.7915,-5.8954,-5.98,-6.0435,-6.0685,-6.08,-6.08,-6.08,-6.0823,-6.0869,-6.088,-6.0798,-6.058,-5.9975,-5.9099,-5.8085,-5.7458,-5.6733,-5.5998,-5.5996,-5.5995,-5.6012,-5.6012,-5.6003,-5.5995,-5.6003,-5.6012,-5.6012,-5.6012,-5.6012,-5.6012,-5.6012,-5.6012,-5.6012,-5.6012,-5.6012,-5.6012,-5.6012,-5.6012,-5.6012,-5.6012,-5.6012,-5.6012,-5.6012,-5.6012,-5.6012,-5.6012,-5.6012,-5.6012,-5.6012,-5.6012,-5.6012,-5.6012,-5.6012,-5.6012,-5.6012,-5.5818,-5.5451,-5.4851,-5.4581,-5.4097,-5.3207,-5.2558,-5.2113,-5.1854,-5.1254,-5.0898,-5.0898,-5.0898,-5.0898,-5.0898,-5.0898,-5.0898,-5.0898,-5.0898,-5.0898,-5.0898,-5.0898,-5.0898,-4.9952,-4.8048,-4.6788,-4.6673,-4.5432,-4.4201,-4.4124,-4.2854,-4.0981,-3.8404,-3.711,-3.5944,-3.4289,-3.5196,-3.5126,-3.1884,-3.4289,0.0,0.0,-3.5491,-3.9777,-4.3932,-4.597,-4.7355,-4.8182,-5.6588,-5.9946,-5.4914,-6.0685,-6.1877,-5.6011,-5.6541,-5.7003,-5.7041,-5.8646,-5.9511,-5.955,-6.0377,-6.08,-6.08,-6.08,-6.08,-6.0812,-6.0869,-6.0448,-5.9639,-5.9684,-5.8761,-5.7235,-5.7207,-5.6724,-5.6003,-5.5998,-5.6007,-5.6012,-5.6012,-5.5996,-5.6008,-5.5995,-5.6012,-5.6012,-5.6012,-5.6012,-5.6012,-5.6012,-5.6012,-5.6012,-5.6012,-5.6012,-5.6012,-5.6012,-5.6012,-5.6012,-5.6012,-5.6012,-5.6012,-5.6012,-5.6012,-5.6012,-5.6012,-5.6012,-5.6012,-5.6012,-5.6012,-5.6012,-5.6012,-5.6012,-5.6012,-5.6012,-5.5316,-5.4832,-5.4793,-5.4039,-5.3188,-5.2326,-5.2229,-5.1834,-5.0995,-5.0917,-5.0898,-5.0898,-5.0898,-5.0898,-5.0898,-5.0898,-5.0898,-5.0898,-5.0898,-5.0898,-5.0898,-5.0898,-5.0898,-5.3145,-5.2356,-5.1529,-4.9837,-5.024,-5.0317,-4.7451,-4.597,-4.4243,-4.0991,-3.9159,-3.7515,-3.5514,-3.5665,-3.5504,-3.3721,-3.4055,-3.4343,0.0,-3.4617,-3.6078,-3.8223,-4.245,-4.5951,-4.7913,-5.353,-5.6569,-5.5376,-5.8973,-5.9608,-5.5895,-5.6541,-5.7003,-5.7003,-5.8107,-5.8704,-5.8704,-5.8992,-5.9146,-5.9146,-5.9685,-5.9935,-5.9935,-5.9958,-5.9815,-5.9469,-5.8374,-5.7627,-5.709,-5.6502,-5.6146,-5.5933,-5.5933,-5.5952,-5.6007,-5.5995,-5.5995,-5.6005,-5.6003,-5.6012,-5.6012,-5.6012,-5.6012,-5.6012,-5.6012,-5.6012,-5.6012,-5.6012,-5.6012,-5.6012,-5.6012,-5.6012,-5.6012,-5.6012,-5.6012,-5.6012,-5.6012,-5.6012,-5.6012,-5.6012,-5.6012,-5.6012,-5.6012,-5.6012,-5.6012,-5.6012,-5.6012,-5.5818,-5.5277,-5.4967,-5.4368,-5.3188,-5.2821,-5.2279,-5.1409,-5.1351,-5.1215,-5.0917,-5.0898,-5.0898,-5.0898,-5.0898,-5.0898,-5.0898,-5.0898,-5.0898,-5.0898,-5.0898,-5.0898,-5.0898,-5.0898,-5.0898,-5.5068,-5.4491,-5.3857,-5.3117,-5.3722,-5.3857,-5.1375,-4.9845,-4.8085,-4.4959,-4.2336,-4.0191,-3.8814,-3.7662,-3.6637,-3.5881,-3.523,-3.485,0.0,-3.4102,-3.3757,-3.4487,-3.9008,0.0,0.0,-5.101,-5.4241,-5.4761,-5.7723,-5.8396,-5.5838,-5.6233,-5.6541,-5.6541,-5.7376,-5.7838,-5.7838,-5.8146,-5.83,-5.8319,-5.8838,-5.9069,-5.9069,-5.9069,-5.8896,-5.855,-5.7464,-5.6851,-5.6596,-5.6016,-5.5836,-5.5924,-5.5885,-5.5924,-5.6007,-5.5996,-5.5995,-5.6012,-5.6012,-5.6012,-5.6012,-5.6012,-5.6012,-5.6012,-5.6012,-5.6012,-5.6012,-5.6012,-5.6012,-5.6012,-5.6012,-5.6012,-5.6012,-5.6012,-5.6012,-5.6012,-5.6012,-5.6012,-5.6012,-5.6012,-5.6012,-5.6012,-5.6012,-5.6012,-5.6012,-5.6012,-5.576,-5.5393,-5.4871,-5.4252,-5.344,-5.2326,-5.1912,-5.1505,-5.0956,-5.0898,-5.0898,-5.0898,-5.0898,-5.0898,-5.0898,-5.0898,-5.1053,-5.137,-5.1053,-5.1053,-5.137,-5.1053,-5.0898,-5.0898,-5.0898,-5.0898]},{"header":{"parameterUnit":"m.s-1","parameterCategory":1,"la1":30.6,"la2":29.2853,"lo1":-89.7004,"lo2":-87.6739,"dx":0.0162,"dy":0.0183,"nx":112,"ny":82,"refTime":"2022-12-03T06:00:00:Z","depth":0,"parameterNumber":3,"parameterNumberName":"V-component_of_WINDS"},"data":[0.0,0.0,0.0,0.0,0.0,0.0,0.0,0.0,0.0,0.0,0.0,0.0,0.0,0.0,0.0,0.0,0.0,0.0,0.0,0.0,0.0,0.0,0.0,0.0,0.0,0.0,0.0,0.0,0.0,0.0,0.0,0.0,0.0,0.0,0.0,0.0,0.0,0.0,0.0,0.0,0.0,0.0,0.0,0.0,0.0,0.0,0.0,0.0,0.0,0.0,0.0,0.0,0.0,0.0,0.0,0.0,0.0,0.0,0.0,0.0,0.0,0.0,0.0,0.0,0.0,0.0,0.0,0.0,0.0,0.0,0.0,0.0,0.0,0.0,0.0,0.0,0.0,0.0,0.0,0.0,0.0,0.0,0.0,0.0,0.0,0.0,0.0,0.0,0.0,0.0,0.0652,0.1804,0.2861,0.3495,0.348,0.3476,0.362,0.3999,0.0,0.0,0.0,0.0,0.0,0.0,0.0,0.0,0.0,0.0,0.0,0.0,0.0,0.0,0.0,0.0,0.0,0.0,0.0,0.0,0.0,0.0,0.0,0.0,0.0,0.0,0.0,0.0,0.0,0.0,0.0,0.0,0.0,0.0,0.0,0.0,0.0,0.0,0.0,0.0,0.0,0.0,0.0,0.0,0.0,0.0,0.0,0.0,0.0,0.0,0.0,0.0,0.0,0.0,0.0,0.0,0.0,0.0,0.0,0.0,0.0,0.0,0.0,0.0,0.0,0.0,0.0,0.0,0.0,0.0,0.0,0.0,0.0,0.0,0.0,0.0,0.0,0.0,0.0,0.0,0.0,0.0,0.0,0.0,0.0,0.0,0.0,0.0,0.0,0.0,0.0,0.0,0.0,0.0,0.0,0.0,0.0,0.0,0.0,0.0,0.0,0.0,0.0,0.0,0.1954,0.4005,0.5045,0.5623,0.5608,0.5532,0.5333,0.5028,0.0,0.0,0.0,0.0,0.0,0.0,0.0,0.0,0.0,0.0,0.0,0.0,0.0,0.0,0.0,0.0,0.0,0.0,0.0,0.0,0.0,0.0,0.0,0.0,0.0,0.0,0.0,0.0,0.0,0.0,0.0,0.0,0.0,0.0,0.0,0.0,0.0,0.0,0.0,0.0,0.0,0.0,0.0,0.0,0.0,0.0,0.0,0.0,0.0,0.0,0.0,0.0,0.0,0.0,0.0,0.0,0.0,0.0,0.0,0.0,0.0,0.0,0.0,0.0,0.0,0.0,0.0,0.0,0.0,0.0,0.0,0.0,0.0,0.0,0.0,0.0,0.0,0.0,0.0,0.0,0.0,0.0,0.0,0.0,0.0,0.0,0.0,0.0,0.0,0.0,0.0,0.0,0.0,0.0,0.0,0.0,0.0,0.0,0.0,0.0,0.0,0.0,0.0,0.1638,0.2872,0.4517,0.5628,0.6157,0.6092,0.6034,0.5768,0.5222,0.4594,0.0,0.0,0.0,0.0,0.0,0.0,0.0,0.0,0.0,0.0,0.0,0.0,0.0,0.0,0.0,0.0,0.0,0.0,0.0,0.0,0.0,0.0,0.0,0.0,0.0,0.0,0.0,0.0,0.0,0.0,0.0,0.0,0.0,0.0,0.0,0.0,0.0,0.0,0.0,0.0,0.0,0.0,0.0,0.0,0.0,0.0,0.0,0.0,0.0,0.0,0.0,0.0,0.0,0.0,0.0,0.0,0.0,0.0,0.0,0.0,0.0,0.0,0.0,0.0,0.0,0.0,0.0,0.0,0.0,0.0,0.0,0.0,0.0,0.0,0.0,0.0,0.0,0.0,0.0,0.0,0.0,0.0,0.0,0.0,0.0,0.0,0.0,0.0,0.0,0.0,0.0,0.0,0.0,0.0,0.0,0.0,0.0,0.0,0.0,0.0,0.0,0.0,0.2703,0.3809,0.4924,0.5825,0.6246,0.61,0.6086,0.5841,0.5265,0.5097,0.0,0.0,0.0,0.0,0.0,0.0,0.0,0.0,0.0,0.0,0.0,0.0,0.0,0.0,0.0,0.0,0.0,0.0,0.0,0.0,0.0,0.0,0.0,0.0,0.0,0.0,0.0,0.0,0.0,0.0,0.0,0.0,0.0,0.0,0.0,0.0,0.0,0.0,0.0,0.0,0.0,0.0,0.0,0.0,0.0,0.0,0.0,0.0,0.0,0.0,0.0,0.0,0.0,0.0,0.0,0.0,0.0,0.0,0.0,0.0,0.0,0.0,0.0,0.0,0.0,0.0,0.0,0.0,0.0,0.0,0.0,0.0,0.0,0.0,0.0,0.0,0.0,0.0,0.0,0.0,0.0,0.0,0.0,0.0,0.0,0.0,0.0,0.0,0.0,0.0,0.0,0.0,0.0,0.0,0.0,0.0,0.0,0.0,0.0,0.0,0.0,0.0,0.3843,0.4933,0.5881,0.6236,0.6333,0.6105,0.6086,0.5877,0.5429,0.5143,0.0,0.0,0.0,0.0,0.0,0.0,0.0,0.0,0.0,0.0,0.0,0.0,0.0,0.0,0.0,0.0,0.0,0.0,0.0,0.0,0.0,0.0,0.0,0.0,0.0,0.0,0.0,0.0,0.0,0.0,0.0,0.0,0.0,0.0,0.0,0.0,0.0,0.0,0.0,0.0,0.0,0.0,0.0,0.0,0.0,0.0,0.0,0.0,0.0,0.0,0.0,0.0,0.0,0.0,0.0,0.0,0.0,0.0,0.0,0.0,0.0,0.0,0.0,0.0,0.0,0.0,0.0,0.0,0.0,0.0,0.0,0.0,0.0,0.0,0.0,0.0,0.0,0.0,0.0,0.0,0.0,0.0,0.0,0.0,0.0,0.0,0.0,0.0,0.0,0.0,0.0,0.0,0.0,0.0,0.0,0.0,0.0,0.0,0.0,0.0,0.0,0.0,0.3966,0.5131,0.619,0.6333,0.6372,0.6214,0.613,0.588,0.5443,0.0,0.0,0.0,0.0,0.0,0.0,0.0,0.0,0.0,0.0,0.0,0.0,0.0,0.0,0.0,0.0,0.0,0.0,0.0,0.0,0.0,0.0,0.0,0.0,0.0,0.0,0.0,0.0,0.0,0.0,0.0,0.0,0.0,0.0,0.0,0.0,0.0,0.0,0.0,0.0,0.0,0.0,0.0,0.0,0.0,0.0,0.0,0.0,0.0,0.0,0.0,0.0,0.0,0.0,0.0,0.0,0.0,0.0,0.0,0.0,0.0,0.0,0.0,0.0,0.0,0.0,0.0,0.0,0.0,0.0,0.0,0.0,0.0,0.0,0.0,0.0,0.0,0.0,0.0,0.0,0.0,0.0,0.0,0.0,0.0,0.0,0.0,0.0,0.0,0.0,0.0,0.0,0.0,0.0,0.0,0.0,0.0,0.0,0.0,0.0,0.0,0.0,0.2891,0.4261,0.5451,0.631,0.6387,0.6404,0.6328,0.6211,0.5956,0.5513,0.0,0.0,0.0,0.0,0.0,0.0,0.0,0.0,0.0,0.0,0.0,0.0,0.0,0.0,0.0,0.0,0.0,0.0,0.0,0.0,0.0,0.0,0.0,0.0,0.0,0.0,0.0,0.0,0.0,0.0,0.0,0.0,0.0,0.0,0.0,0.0,0.0,0.0,0.0,0.0,0.0,0.0,0.0,0.0,0.0,0.0,0.0,0.0,0.0,0.0,0.0,0.0,0.0,0.0,0.0,0.0,0.0,0.0,0.0,0.0,0.0,0.0,0.0,0.0,0.0,0.0,0.0,0.0,0.0,0.0,0.0,0.0,0.0,0.0,0.0,0.0,0.0,0.0,0.0,0.0,0.0,0.0,0.0,0.0,0.0,0.0,0.0,0.0,0.0,0.0,0.0,0.0,0.0,0.0,0.0,0.0,0.0,0.0,0.0,0.0,0.0,0.0,0.3022,0.481,0.6176,0.6365,0.6387,0.6387,0.6387,0.6333,0.6116,0.0,0.0,0.0,0.0,0.0,0.0,0.0,0.0,0.0,0.0,0.0,0.0,0.0,0.0,0.0,0.0,0.0,0.0,0.0,0.0,0.0,0.0,0.0,0.0,0.0,0.0,0.0,0.0,0.0,0.0,0.0,0.0,0.0,0.0,0.0,0.0,0.0,0.0,0.0,0.0,0.0,0.0,0.0,0.0,0.0,0.0,0.0,0.0,0.0,0.0,0.0,0.0,0.0,0.0,0.0,0.0,0.0,0.0,0.0,0.0,0.0,0.0,0.0,0.0,0.0,0.0,0.0,0.0,0.0,0.0,0.0,0.0,0.0,0.0,0.0,0.0,0.0,0.0,0.0,0.0,0.0,0.0,0.0,0.0,0.0,0.0,0.0,0.0,0.0,0.0,0.0,0.0,0.0,0.0,0.0,0.0,0.0,0.0,0.0,0.0,0.0,0.0,0.0,0.4011,0.5267,0.6241,0.6651,0.6489,0.6422,0.6556,0.6304,0.6056,0.5863,0.0,0.0,0.0,0.0,0.0,0.0,0.0,0.0,0.0,0.0,0.0,0.0,0.0,0.0,0.0,0.0,0.0,0.0,0.0,0.0,0.0,0.0,0.0,0.0,0.0,0.0,0.0,0.0,0.0,0.0,0.0,0.0,0.0,0.0,0.0,0.0,0.0,0.0,0.0,0.0,0.0,0.0,0.0,0.0,0.0,0.0,0.0,0.0,0.0,0.0,0.0,0.0,0.0,0.0,0.0,0.0,0.0,0.0,0.0,0.0,0.0,0.0,0.0,0.0,0.0,0.0,0.0,0.0,0.0,0.0,0.0,0.0,0.0,0.0,0.0,0.0,0.0,0.0,0.0,0.0,0.0,0.0,0.0,0.0,0.0,0.0,0.0,0.0,0.0,0.0,0.0,0.0,0.0,0.0,0.0,0.0,0.0,0.0,0.0,0.0,0.0,0.0,0.4366,0.5125,0.5877,0.6708,0.6671,0.6632,0.6755,0.648,0.6246,0.6124,0.0,0.0,0.0,0.0,0.0,0.0,0.0,0.0,0.0,0.0,0.0,0.0,0.0,0.0,0.0,0.0,0.0,0.0,0.0,0.0,0.0,0.0,0.0,0.0,0.0,0.0,0.0,0.0,0.0,0.0,0.0,0.0,0.0,0.0,0.0,0.0,0.0,0.0,0.0,0.0,0.0,0.0,0.0,0.0,0.0,0.0,0.0,0.0,0.0,0.0,0.0,0.0,0.0,0.0,0.0,0.0,0.0,0.0,0.0,0.0,0.0,0.0,0.0,0.0,0.0,0.0,0.0,0.0,0.0,0.0,0.0,0.0,0.0,0.0,0.0,0.0,0.0,0.0,0.0,0.0,0.0,0.0,0.0,0.0,0.0,0.0,0.0,0.0,0.0,0.0,0.0,0.0,0.0,0.0,0.0,0.0,0.0,0.0,0.0,0.0,0.0,0.0,0.4393,0.4805,0.5412,0.6671,0.6801,0.6853,0.6975,0.6749,0.6562,0.6461,0.0,0.0,0.0,0.0,0.0,0.0,0.0,0.0,0.0,0.0,0.0,0.0,0.0,0.0,0.0,0.0,0.0,0.0,0.0,0.0,0.0,0.0,0.0,0.0,0.0,0.0,0.0,0.0,0.0,0.0,0.0,0.0,0.0,0.0,0.0,0.0,0.0,0.0,0.0,0.0,0.0,0.0,0.0,0.0,0.0,0.0,0.0,0.0,0.0,0.0,0.0,0.0,0.0,0.0,0.0,0.0,0.0,0.0,0.0,0.0,0.0,0.0,0.0,0.0,0.0,0.0,0.0,0.0,0.0,0.0,0.0,0.0,0.0,0.0,0.0,0.0,0.0,0.0,0.0,0.0,0.0,0.0,0.0,0.0,0.0,0.0,0.0,0.0,0.0,0.0,0.0,0.0,0.0,0.0,0.0,0.0,0.0,0.0,0.0,0.0,0.0,0.0,0.5542,0.5861,0.6225,0.6724,0.6801,0.6853,0.6975,0.6831,0.6813,0.6887,0.6947,0.0,0.0,0.0,0.0,0.0,0.0,0.0,0.0,0.0,0.0,0.0,0.0,0.0,0.0,0.0,0.0,0.0,0.0,0.0,0.0,0.0,0.0,0.0,0.0,0.0,0.0,0.0,0.0,0.0,0.0,0.0,0.0,0.0,0.0,0.0,0.0,0.0,0.0,0.0,0.0,0.0,0.0,0.0,0.0,0.0,0.0,0.0,0.0,0.0,0.0,0.0,0.0,0.0,0.0,0.0,0.0,0.0,0.0,0.0,0.0,0.0,0.0,0.0,0.0,0.0,0.0,0.0,0.0,0.0,0.0,0.0,0.0,0.0,0.0,0.0,0.0,0.0,0.0,0.0,0.0,0.0,0.0,0.0,0.0,0.0,0.0,0.0,0.0,0.0,0.0,0.0,0.0,0.0,0.0,0.0,0.0,0.0,0.0,0.0,0.0,0.0,0.5989,0.5939,0.6108,0.6816,0.6991,0.7117,0.729,0.7217,0.7241,0.729,0.7457,0.0,0.0,0.0,0.0,0.0,0.0,0.0,0.0,0.0,0.0,0.0,0.0,0.0,0.0,0.0,0.0,0.0,0.0,0.0,0.0,0.0,0.0,0.0,0.0,0.0,0.0,0.0,0.0,0.0,0.0,0.0,0.0,0.0,0.0,0.0,0.0,0.0,0.0,0.0,0.0,0.0,0.0,0.0,0.0,0.0,0.0,0.0,0.0,0.0,0.0,0.0,0.0,0.0,0.0,0.0,0.0,0.0,0.0,0.0,0.0,0.0,0.0,0.0,0.0,0.0,0.0,0.0,0.0,0.0,0.0,0.0,0.0,0.0,0.0,0.0,0.0,0.0,0.0,0.0,0.0,0.0,0.0,0.0,0.0,0.0,0.0,0.0,0.0,0.0,0.0,0.0,0.0,0.0,0.0,0.0,0.0,0.0,0.0,0.0,0.0,0.0,0.6142,0.5847,0.591,0.6945,0.7225,0.7385,0.757,0.7653,0.7706,0.768,0.8011,0.8017,0.0,0.0,0.0,0.0,0.0,0.0,0.0,0.0,0.0,0.0,0.0,0.0,0.0,0.0,0.0,0.0,0.0,0.0,0.0,0.0,0.0,0.0,0.0,0.0,0.0,0.0,0.0,0.0,0.0,0.0,0.0,0.0,0.0234,0.004,0.0,0.0,0.0,0.0,0.0,0.0,0.0,0.0,0.0,0.0,0.0,0.0,0.0,0.0,0.0,0.0,0.0,0.0,0.0,0.0,0.0,0.0,0.0,0.0,0.0,0.0,0.0,0.0,0.0,0.0,0.0,0.0,0.0,0.0,0.0,0.0,0.0,0.0,0.0,0.0,0.0,0.0,0.0,0.0,0.0,0.0,0.0,0.0,0.0,0.0,0.0,0.0,0.0,0.0,0.0,0.0,0.0,0.0,0.009,0.078,0.0,0.0,0.0,0.0,0.0,0.0,0.6369,0.6693,0.6893,0.7119,0.735,0.7489,0.753,0.7892,0.8045,0.7947,0.8371,0.8426,0.7928,0.7805,0.0,0.0,0.0,0.0,0.0,0.0,0.0,0.0,0.0,0.0,0.0,0.0,0.0,0.0,0.0,0.0,0.0,0.0,0.0,0.0,0.0,0.0,0.0,0.0,0.0,0.0,0.0,0.0,0.0,0.0269,0.0079,0.0,0.0,0.0,0.0,0.0,0.0,0.0,0.0,0.0,0.0,0.0,0.0,0.0,0.0,0.0,0.0,0.0,0.0,0.0,0.0,0.0,0.0,0.0,0.0,0.0,0.0,0.0,0.0,0.0,0.0,0.0,0.0,0.0,0.0,0.0,0.0,0.0,0.0,0.0,0.0,0.0,0.0,0.0,0.0,0.0,0.0,0.0,0.0,0.0,0.0,0.0,0.0,0.0,0.0,0.0,0.0,0.0,0.0,0.0,0.0428,0.111,0.2137,0.2964,0.0,0.0,0.0,0.6257,0.6856,0.7013,0.7152,0.7339,0.7516,0.7651,0.7755,0.8,0.8211,0.8398,0.8605,0.8594,0.8306,0.8225,0.7977,0.0,0.0,0.0,0.0,0.0,0.0,0.0,0.0,0.0,0.0,0.0,0.0,0.0,0.0,0.0,0.0,0.0,0.0,0.0,0.0,0.0,0.0,0.0,0.0,0.0,0.0,0.0,0.0,0.0081,0.0,0.0,0.0,0.0,0.0,0.0,0.0,0.0,0.0,0.0,0.0,0.0,0.0,0.0,0.0,0.0,0.0,0.0,0.0,0.0,0.0,0.0,0.0,0.0,0.0,0.0,0.0,0.0,0.0,0.0,0.0,0.0,0.0,0.0,0.0,0.0,0.0,0.0,0.0,0.0,0.0,0.0,0.0,0.0,0.0,0.0,0.0,0.0,0.0,0.0,0.0,0.0,0.0,0.0,0.0,0.0,0.0,0.0,0.0,0.0,0.0551,0.1263,0.1921,0.3242,0.0,0.5376,0.6132,0.6738,0.7184,0.7228,0.7328,0.7543,0.7674,0.7826,0.7968,0.8167,0.8423,0.865,0.881,0.8845,0.8618,0.856,0.8347,0.7936,0.0,0.0,0.0,0.0,0.0,0.0,0.0,0.0,0.0,0.0,0.0,0.0,0.0,0.0,0.0,0.0,0.0,0.0,0.0,0.0,0.0,0.0,0.0,0.0,0.0,0.0,0.0,0.0,0.0,0.0,0.0,0.0,0.0,0.0,0.0,0.0,0.0,0.0,0.0,0.0,0.0,0.0,0.0,0.0,0.0,0.0,0.0,0.0,0.0,0.0,0.0,0.0,0.0,0.0,0.0,0.0,0.0,0.0,0.0,0.0,0.0,0.0,0.0,0.0,0.0,0.0,0.0,0.0,0.0,0.0,0.0,0.0,0.0,0.0,0.0,0.0,0.0,0.0,0.0,0.0,0.0,0.0,0.0,0.0,0.0,0.0,0.0,0.0,0.0053,0.0743,0.2917,0.0,0.3102,0.6381,0.6083,0.5902,0.7139,0.7429,0.7548,0.7679,0.7796,0.7919,0.7914,0.8471,0.8781,0.8637,0.9225,0.9326,0.8878,0.8774,0.8557,0.8303,0.7953,0.0,0.0,0.0,0.0,0.0,0.0,0.0,0.0,0.0,0.0,0.0,0.0,0.0,0.0,0.0,0.0,0.0,0.0,0.0,0.0,0.0,0.0,0.0,0.0,0.0,0.0,0.0,0.0,0.0,0.0,0.0,0.0,0.0,0.0,0.0,0.0,0.0,0.0,0.0,0.0,0.0,0.0,0.0,0.0,0.0,0.0,0.0,0.0,0.0,0.0,0.0,0.0,0.0,0.0,0.0,0.0,0.0,0.0,0.0,0.0,0.0,0.0,0.0,0.0,0.0,0.0,0.0,0.0,0.0,0.0,0.0,0.0,0.0,0.0,0.0,0.0,0.0,0.0,0.0,0.0,0.0,0.0,0.0,0.0,0.0,0.0229,0.1139,0.1274,0.1531,0.2371,0.3503,0.4706,0.5967,0.6486,0.697,0.7498,0.7608,0.7682,0.7799,0.7847,0.7872,0.7872,0.8305,0.8653,0.8784,0.9118,0.9251,0.9235,0.9076,0.8855,0.856,0.835,0.8174,0.0,0.0,0.0,0.0,0.0,0.0,0.0,0.0,0.0,0.0,0.0,0.0,0.0,0.0,0.0,0.0,0.0,0.0,0.0,0.0,0.0,0.0,0.0,0.0,0.0,0.0,0.0,0.0,0.0,0.0,0.0,0.0,0.0,0.0,0.0,0.0,0.0,0.0,0.0,0.0,0.0,0.0,0.0,0.0,0.0,0.0,0.0,0.0,0.0,0.0,0.0,0.0,0.0,0.0,0.0,0.0,0.0,0.0,0.0,0.0,0.0,0.0,0.0,0.0,0.0,0.0,0.0,0.0,0.0,0.0,0.0,0.0,0.0,0.0,0.0,0.0,0.0,0.0,0.0,0.0,0.0,0.0,0.0,0.0,0.0416,0.1732,0.202,0.2264,0.3097,0.4598,0.5818,0.6241,0.701,0.7611,0.7693,0.7736,0.7788,0.7861,0.7872,0.7933,0.8058,0.8444,0.8829,0.9044,0.9339,0.9476,0.9469,0.9405,0.9262,0.9018,0.8764,0.8564,0.8418,0.0,0.0,0.0,0.0,0.0,0.0,0.0,0.0,0.0,0.0,0.0,0.0,0.0,0.0,0.0,0.0,0.0,0.0,0.0,0.0,0.0,0.0,0.0,0.0,0.0,0.0,0.0,0.0,0.0,0.0,0.0,0.0,0.0,0.0,0.0,0.0,0.0,0.0,0.0,0.0,0.0,0.0,0.0,0.0,0.0,0.0,0.0,0.0,0.0,0.0,0.0,0.0,0.0,0.0,0.0,0.0,0.0,0.0,0.0,0.0,0.0,0.0,0.0,0.0,0.0,0.0,0.0,0.0,0.0,0.0,0.0,0.0,0.0,0.0,0.0,0.0,0.0,0.0,0.0,0.0,0.0,0.0,0.006,0.0485,0.1783,0.2106,0.2884,0.5289,0.576,0.6172,0.7351,0.763,0.0,0.7706,0.7804,0.7872,0.7872,0.7872,0.8058,0.8369,0.8967,0.9315,0.9294,0.9913,1.007,0.9635,0.9744,0.9744,0.9591,0.9164,0.8814,0.8716,0.0,0.0,0.0,0.0,0.0,0.0,0.0,0.0,0.0,0.0,0.0,0.0,0.0,0.0,0.0,0.0,0.0,0.0,0.0,0.0,0.0,0.0152,0.0,0.0,0.0,0.0,0.0,0.0,0.0,0.0,0.0,0.0,0.0,0.0,0.0,0.0,0.0,0.0,0.0,0.0,0.0,0.0,0.0,0.0,0.0,0.0,0.0,0.0,0.0,0.0,0.0,0.0,0.0,0.0,0.0,0.0,0.0,0.0,0.0,0.0,0.0,0.0,0.0,0.0,0.0,0.0,0.0,0.0,0.0,0.0,0.0,0.0,0.0,0.0,0.0,0.0,0.0,0.0,0.0,0.0,0.0,0.0,0.0736,0.184,0.3137,0.4157,0.5043,0.571,0.668,0.7407,0.7714,0.7804,0.7823,0.7823,0.785,0.7872,0.7872,0.7872,0.8058,0.8369,0.8799,0.9115,0.9281,0.9716,0.9893,0.9768,0.97,0.9496,0.9074,0.9103,0.9022,0.0,0.0,0.0,0.0,0.0,0.0,0.0,0.0,0.0,0.0,0.0,0.0,0.0,0.0,0.0,0.0,0.0,0.0,0.0,0.0,0.0,0.0,0.0053,0.0,0.0,0.0,0.0,0.0,0.0,0.0,0.0,0.0,0.0,0.0,0.0,0.0,0.0,0.0,0.0,0.0,0.0,0.0,0.0,0.0,0.0,0.0,0.0,0.0,0.0,0.0,0.0,0.0,0.0,0.0,0.0,0.0,0.0,0.0,0.0,0.0,0.0,0.0,0.0,0.0,0.0,0.0,0.0,0.0,0.0,0.0,0.0,0.0,0.0,0.0,0.0,0.0,0.0,0.0,0.0,0.0,0.0,0.0123,0.074,0.148,0.2526,0.4369,0.5352,0.0,0.6644,0.738,0.7872,0.7872,0.7872,0.7872,0.7872,0.7872,0.7872,0.7872,0.7994,0.8244,0.8552,0.9017,0.0,0.0,0.0,1.0012,1.0012,0.9873,0.0,0.0,0.0,0.9174,0.9028,0.8723,0.0,0.0,0.8083,0.7773,0.0,0.0,0.0,0.0,0.0,0.0,0.0,0.0,0.0,0.0,0.0,0.0,0.0,0.0,0.0,0.0,0.0,0.0,0.0,0.0,0.0,0.0,0.0,0.0,0.0,0.0,0.0,0.0,0.0,0.0,0.0,0.0,0.0,0.0,0.0,0.0,0.0,0.0,0.0,0.0,0.0,0.0,0.0,0.0,0.0,0.0,0.0,0.0,0.0,0.0,0.0,0.0,0.0,0.0,0.0,0.0,0.0,0.0,0.0,0.0,0.0,0.0,0.0,0.0,0.0,0.0,0.0,0.0,0.0,0.0,0.0,0.0,0.0,0.0,0.0,0.037,0.1727,0.2096,0.2957,0.5416,0.6029,0.6521,0.7686,0.7933,0.7933,0.7933,0.7933,0.7933,0.7933,0.7933,0.7933,0.7933,0.8244,0.0,0.8915,0.9443,0.9791,0.9778,1.0014,1.0229,1.0229,1.0034,0.9953,0.9936,0.9591,0.9306,0.921,0.8855,0.871,0.8703,0.8065,0.7875,0.0,0.0,0.0,0.0,0.0,0.0,0.0,0.0,0.0,0.0,0.0,0.0,0.0,0.0,0.0,0.0,0.0,0.0,0.0,0.0,0.0,0.0,0.0,0.0,0.0,0.0,0.0,0.0,0.0,0.0,0.0,0.0,0.0,0.0,0.0,0.0,0.0,0.0,0.0,0.0,0.0,0.0,0.0,0.0,0.0,0.0,0.0,0.0,0.0,0.0,0.0,0.0,0.0,0.0,0.0,0.0,0.0,0.0,0.0,0.0,0.0,0.0,0.0,0.0,0.0,0.0,0.0,0.0,0.0,0.0,0.0,0.0,0.0,0.0,0.0,0.037,0.1727,0.2833,0.3999,0.56,0.6766,0.7625,0.7869,0.8119,0.8308,0.8308,0.8308,0.8308,0.8308,0.8058,0.7994,0.8244,0.8369,0.861,0.9156,0.9326,0.9516,0.9765,0.9635,0.9603,0.991,0.9577,0.9508,0.9696,0.949,0.9306,0.921,0.8855,0.871,0.8713,0.8639,0.8578,0.0,0.0,0.0,0.0,0.0,0.0,0.0,0.0,0.0,0.0,0.0,0.0104,0.0,0.0,0.0,0.0,0.0,0.0,0.0,0.0,0.0,0.0,0.0,0.0,0.0,0.0,0.0,0.0,0.0,0.0,0.0,0.0,0.0,0.0,0.0,0.0,0.0,0.0,0.0,0.0,0.0,0.0,0.0,0.0,0.0,0.0,0.0,0.0,0.0,0.0,0.0,0.0,0.0,0.0,0.0,0.0,0.0,0.0,0.0,0.0,0.0,0.0,0.0,0.0,0.0,0.0,0.0,0.0,0.0,0.0,0.0,0.0,0.0,0.0,0.0494,0.1357,0.2648,0.4022,0.541,0.6719,0.7575,0.8054,0.8054,0.8304,0.8451,0.82,0.8119,0.8183,0.8369,0.8119,0.8116,0.861,0.8674,0.8854,0.9278,0.9457,0.964,0.9761,0.964,0.964,0.9822,0.964,0.9606,0.9717,0.9496,0.9344,0.9323,0.8971,0.8825,0.8825,0.8848,0.8709,0.0,0.0,0.0,0.0,0.0,0.0,0.0,0.0393,0.0249,0.0316,0.0162,0.0,0.0,0.0,0.0,0.0,0.0,0.0,0.0,0.0,0.0,0.0,0.0,0.0,0.0,0.0,0.0,0.0,0.0,0.0,0.0,0.0,0.0,0.0,0.0,0.0,0.0,0.0,0.0,0.0,0.0,0.0,0.0,0.0,0.0,0.0,0.0,0.0,0.0,0.0,0.0,0.0,0.0,0.0,0.0,0.0,0.0,0.0,0.0,0.0,0.0,0.0,0.0,0.0,0.0,0.0,0.0,0.0,0.0,0.0,0.0,0.0,0.0062,0.0374,0.1245,0.2425,0.4033,0.5322,0.6504,0.7836,0.8168,0.8172,0.8172,0.8425,0.8482,0.8094,0.8066,0.8128,0.8441,0.8192,0.8189,0.8808,0.8845,0.8943,0.9278,0.9579,0.9822,0.9822,0.97,0.964,0.97,0.964,0.964,0.97,0.953,0.9381,0.9381,0.9083,0.8885,0.8885,0.8885,0.8708,0.0634,0.0491,0.0318,0.0336,0.0194,0.005,0.0,0.0055,0.0055,0.0058,0.0,0.0,0.0,0.0,0.0,0.0,0.0,0.0,0.0,0.0,0.0,0.0,0.0,0.0,0.0,0.0,0.0,0.0,0.0,0.0,0.0,0.0,0.0,0.0,0.0,0.0,0.0,0.0,0.0,0.0,0.0,0.0,0.0,0.0,0.0,0.0,0.0,0.0,0.0,0.0,0.0,0.0,0.0,0.0,0.0,0.0,0.0,0.0,0.0,0.0,0.0,0.0,0.0,0.0,0.0,0.0,0.0,0.0,0.0,0.0,0.0,0.0,0.0321,0.1539,0.1987,0.2818,0.5438,0.6149,0.6668,0.7957,0.8225,0.8172,0.8172,0.8233,0.835,0.8577,0.8635,0.8635,0.8638,0.8383,0.832,0.8701,0.8597,0.8729,0.9287,0.9579,0.9822,0.9822,0.9278,0.9095,0.9335,0.9095,0.9095,0.9335,0.9412,0.9381,0.9381,0.9083,0.8885,0.8885,0.8885,0.8761,0.0241,0.0194,0.0149,0.0104,0.0052,0.0,0.0,0.0,0.0,0.0,0.0,0.0,0.0,0.0,0.0,0.0,0.0,0.0,0.0,0.0,0.0,0.0,0.0,0.0,0.0,0.0,0.0,0.0,0.0,0.0,0.0,0.0,0.0,0.0,0.0,0.0,0.0,0.0,0.0,0.0,0.0,0.0,0.0,0.0,0.0,0.0,0.0,0.0,0.0,0.0,0.0,0.0,0.0,0.0,0.0,0.0,0.0,0.0,0.0,0.0,0.0,0.0,0.0,0.0,0.0,0.0,0.0,0.0,0.0,0.0,0.0,0.0,0.0323,0.1739,0.2703,0.3796,0.5849,0.6926,0.7687,0.821,0.8394,0.844,0.844,0.844,0.8506,0.8637,0.8514,0.8489,0.8678,0.8425,0.8297,0.8678,0.8819,0.8986,0.9106,0.9279,0.9306,0.9284,0.9037,0.8976,0.9034,0.9095,0.9156,0.9275,0.9443,0.9469,0.9381,0.9167,0.9022,0.8885,0.8885,0.8768,0.0,0.0,0.0,0.0,0.0,0.0,0.0,0.0,0.0,0.0,0.0,0.0,0.0,0.0,0.0,0.0,0.0,0.0,0.0,0.0,0.0,0.0,0.0,0.0,0.0,0.0,0.0,0.0,0.0,0.0,0.0,0.0,0.0,0.0,0.0,0.0,0.0,0.0,0.0,0.0,0.0,0.0,0.0,0.0,0.0,0.0,0.0,0.0,0.0,0.0,0.0,0.0,0.0,0.0,0.0,0.0,0.0,0.0,0.0,0.0,0.0,0.0,0.0,0.0,0.0,0.0,0.0,0.0,0.0,0.0,0.0,0.0261,0.0914,0.2346,0.3776,0.5142,0.6636,0.7742,0.8465,0.8465,0.853,0.8587,0.8587,0.8587,0.8587,0.8587,0.8443,0.8396,0.8652,0.8461,0.8385,0.8609,0.8922,0.906,0.8935,0.8952,0.8954,0.8919,0.8815,0.8735,0.8735,0.9034,0.9217,0.9217,0.9443,0.9534,0.9381,0.9286,0.9079,0.8885,0.8885,0.8768,0.0,0.0,0.0,0.0,0.0,0.0,0.0,0.0,0.0,0.0,0.0,0.0,0.0,0.0,0.0,0.0,0.0,0.0,0.0,0.0,0.0,0.0,0.0,0.0,0.0,0.0,0.0,0.0,0.0,0.0,0.0,0.0,0.0,0.0,0.0,0.0,0.0,0.0,0.0,0.0,0.0,0.0,0.0,0.0,0.0,0.0,0.0,0.0,0.0,0.0,0.0,0.0,0.0,0.0,0.0,0.0,0.0,0.0,0.0,0.0,0.0,0.0,0.0,0.0,0.0,0.0,0.0,0.0,0.0,0.0,0.0,0.1008,0.2416,0.3887,0.5294,0.6702,0.824,0.8579,0.8581,0.8581,0.8584,0.8587,0.8587,0.8587,0.8587,0.8587,0.8581,0.8576,0.8576,0.8576,0.8532,0.8424,0.8736,0.8877,0.8747,0.8881,0.8994,0.8991,0.8623,0.843,0.843,0.8732,0.8915,0.8915,0.9387,0.9534,0.9381,0.9286,0.9079,0.8885,0.8885,0.8768,0.0,0.0,0.0,0.0,0.0,0.0,0.0,0.0,0.0,0.0,0.0,0.0,0.0,0.0,0.0,0.0,0.0,0.0,0.0,0.0,0.0,0.0,0.0,0.0,0.0,0.0,0.0,0.0,0.0,0.0,0.0,0.0,0.0,0.0,0.0,0.0,0.0,0.0,0.0,0.0,0.0,0.0,0.0,0.0,0.0,0.0,0.0,0.0,0.0,0.0,0.0,0.0,0.0,0.0,0.0,0.0,0.0,0.0,0.0,0.0,0.0,0.0,0.0,0.0,0.0,0.0,0.0,0.0,0.0,0.0,0.0,0.1076,0.2486,0.3959,0.5367,0.6777,0.8251,0.8587,0.8587,0.8587,0.8587,0.8587,0.8587,0.8587,0.8587,0.8587,0.8587,0.8587,0.8587,0.8587,0.8573,0.8535,0.8662,0.8678,0.8494,0.85,0.8457,0.8435,0.8189,0.8058,0.8058,0.861,0.8915,0.8915,0.9472,0.9629,0.9381,0.933,0.9178,0.8885,0.8885,0.8826,0.0,0.0,0.0,0.0,0.0,0.0,0.0,0.0,0.0,0.0,0.0,0.0,0.0,0.0,0.0,0.0,0.0,0.0,0.0,0.0,0.0,0.0,0.0,0.0,0.0,0.0,0.0,0.0,0.0,0.0,0.0,0.0,0.0,0.0,0.0,0.0,0.0,0.0,0.0,0.0,0.0,0.0,0.0,0.0,0.0,0.0,0.0,0.0,0.0,0.0,0.0,0.0,0.0,0.0,0.0,0.0,0.0,0.0,0.0,0.0,0.0,0.0,0.0,0.0,0.0,0.0,0.0,0.0,0.0,0.0135,0.0606,0.1815,0.3223,0.4696,0.6172,0.7448,0.8387,0.8587,0.8587,0.8587,0.8587,0.8587,0.8587,0.8587,0.8587,0.8587,0.8587,0.8587,0.8587,0.8587,0.8587,0.8587,0.8587,0.8557,0.8484,0.8369,0.8247,0.8127,0.8005,0.7977,0.7872,0.8546,0.8891,0.8781,0.9385,0.9598,0.93,0.93,0.9174,0.8885,0.8885,0.8885,0.0,0.0,0.0,0.0,0.0,0.0,0.0,0.0,0.0,0.0,0.0,0.0,0.0,0.0,0.0,0.0,0.0,0.0,0.0,0.0,0.0,0.0,0.0,0.0,0.0,0.0,0.0,0.0,0.0,0.0,0.0,0.0,0.0,0.0,0.0,0.0,0.0,0.0,0.0,0.0,0.0,0.0,0.0,0.0,0.0,0.0,0.0,0.0,0.0,0.0,0.0,0.0,0.0,0.0,0.0,0.0,0.0,0.0,0.0,0.0,0.0,0.0,0.0,0.0,0.0,0.0,0.0,0.0,0.0067,0.0404,0.1748,0.3223,0.4763,0.6107,0.7514,0.8587,0.8587,0.8587,0.8587,0.8587,0.8587,0.8587,0.8587,0.8587,0.8587,0.8587,0.8587,0.8587,0.8587,0.8587,0.8587,0.8587,0.8587,0.8587,0.8587,0.8484,0.8367,0.818,0.8122,0.8062,0.7877,0.8541,0.8781,0.859,0.9242,0.9452,0.921,0.921,0.9079,0.8885,0.8885,0.8881,0.0,0.0,0.0,0.0,0.0,0.0,0.0,0.0,0.0,0.0,0.0,0.0,0.0,0.0,0.0,0.0,0.0,0.0,0.0,0.0,0.0,0.0,0.0,0.0,0.0,0.0,0.0,0.0,0.0,0.0,0.0,0.0,0.0,0.0,0.0,0.0,0.0,0.0,0.0,0.0,0.0,0.0,0.0,0.0,0.0,0.0,0.0,0.0,0.0,0.0,0.0,0.0,0.0,0.0,0.0,0.0,0.0,0.0,0.0,0.0,0.0,0.0,0.0,0.0,0.0,0.0,0.0,0.0,0.074,0.1614,0.2017,0.3961,0.5971,0.6307,0.7514,0.8587,0.8587,0.8587,0.8587,0.8587,0.8587,0.8587,0.8587,0.8587,0.8587,0.8587,0.8587,0.8587,0.8587,0.8587,0.8587,0.8587,0.8587,0.8587,0.8587,0.8484,0.8367,0.818,0.8122,0.8062,0.7877,0.8389,0.8624,0.8587,0.914,0.9344,0.921,0.921,0.9079,0.8885,0.8885,0.8771,0.0,0.0,0.0,0.0,0.0,0.0,0.0,0.0,0.0,0.0,0.0,0.0,0.0,0.0,0.0,0.0,0.0,0.0,0.0,0.0,0.0,0.0,0.0,0.0,0.0,0.0,0.0,0.0,0.0,0.0,0.0,0.0,0.0,0.0,0.0,0.0,0.0,0.0,0.0,0.0,0.0,0.0,0.0,0.0,0.0,0.0,0.0,0.0,0.0,0.0,0.0,0.0,0.0,0.0,0.0,0.0,0.0,0.0,0.0,0.0,0.0,0.0,0.0,0.0,0.0,0.0,0.0135,0.074,0.1479,0.2419,0.3627,0.5168,0.6577,0.7181,0.7984,0.8587,0.8587,0.8587,0.8587,0.8587,0.8587,0.8587,0.8587,0.8587,0.8587,0.8587,0.8587,0.8587,0.8587,0.8587,0.8587,0.8587,0.8587,0.8587,0.8587,0.853,0.8418,0.8183,0.8171,0.8054,0.7877,0.8357,0.856,0.8505,0.9068,0.9208,0.9059,0.9059,0.9018,0.8885,0.8885,0.8826,0.0,0.0,0.0,0.0,0.0,0.0,0.0,0.0,0.0,0.0,0.0,0.0,0.0,0.0,0.0,0.0,0.0,0.0,0.0,0.0,0.0,0.0,0.0,0.0,0.0,0.0,0.0,0.0,0.0,0.0,0.0,0.0,0.0,0.0,0.0,0.0,0.0,0.0,0.0,0.0,0.0,0.0,0.0,0.0,0.0,0.0,0.0,0.0,0.0,0.0,0.0,0.0,0.0,0.0,0.0,0.0,0.0,0.0,0.0,0.0,0.0,0.0,0.0,0.0,0.0,0.0135,0.0538,0.1748,0.2352,0.3224,0.5772,0.6577,0.7045,0.832,0.8587,0.8587,0.8587,0.8587,0.8587,0.8587,0.8587,0.8587,0.8587,0.8587,0.8587,0.8587,0.8587,0.8587,0.8587,0.8587,0.8587,0.8587,0.8587,0.8587,0.8587,0.8573,0.847,0.8186,0.8204,0.8084,0.7858,0.8256,0.8481,0.8372,0.886,0.9062,0.8885,0.8885,0.8885,0.8885,0.8885,0.8881,0.0,0.0,0.0,0.0,0.0,0.0,0.0,0.0,0.0,0.0,0.0,0.0,0.0,0.0,0.0,0.0,0.0,0.0,0.0,0.0,0.0,0.0,0.0,0.0,0.0,0.0,0.0,0.0,0.0,0.0,0.0,0.0,0.0,0.0,0.0,0.0,0.0,0.0,0.0,0.0,0.0,0.0,0.0,0.0,0.0,0.0,0.0,0.0,0.0,0.0,0.0,0.0,0.0,0.0,0.0,0.0,0.0,0.0,0.0,0.0,0.0,0.0,0.0,0.0,0.0,0.0807,0.1815,0.2017,0.3828,0.577,0.6241,0.7314,0.8251,0.852,0.8587,0.8587,0.8587,0.8587,0.8587,0.8587,0.8587,0.8587,0.8587,0.8587,0.8587,0.8587,0.8587,0.8587,0.8587,0.8587,0.8587,0.8587,0.8587,0.8587,0.8587,0.8503,0.8388,0.818,0.8046,0.7875,0.7736,0.7866,0.8018,0.8229,0.8485,0.8735,0.8885,0.8885,0.8885,0.8885,0.8885,0.8768,0.0,0.0,0.0,0.0,0.0,0.0,0.0,0.0,0.0,0.0,0.0,0.0,0.0,0.0,0.0,0.0,0.0,0.0,0.0,0.0,0.0,0.0,0.0,0.0,0.0,0.0,0.0,0.0,0.0,0.0,0.0,0.0,0.0,0.0,0.0,0.0,0.0,0.0,0.0,0.0,0.0,0.0,0.0,0.0,0.0,0.0,0.0,0.0,0.0,0.0,0.0,0.0,0.0,0.0,0.0,0.0,0.0,0.0,0.0,0.0,0.0,0.0,0.0,0.0135,0.0874,0.1546,0.2419,0.3895,0.5302,0.6577,0.7312,0.8051,0.8587,0.8587,0.8587,0.8587,0.8587,0.8587,0.8587,0.8587,0.8587,0.8587,0.8587,0.8587,0.8587,0.8587,0.8587,0.8587,0.8587,0.8587,0.8587,0.8587,0.8587,0.8587,0.8587,0.8484,0.8367,0.818,0.8005,0.782,0.7706,0.7872,0.8076,0.8193,0.8509,0.8768,0.8885,0.8885,0.8885,0.8885,0.8885,0.8826,0.0,0.0,0.0,0.0,0.0,0.0,0.0,0.0,0.0,0.0,0.0,0.0,0.0,0.0,0.0,0.0,0.0,0.0,0.0,0.0,0.0,0.0,0.0,0.0,0.0,0.0,0.0,0.0,0.0,0.0,0.0,0.0,0.0,0.0,0.0,0.0,0.0,0.0,0.0,0.0,0.0,0.0,0.0,0.0,0.0,0.0,0.0,0.0,0.0,0.0,0.0,0.0,0.0,0.0,0.0,0.0,0.0,0.0,0.0,0.0,0.0067,0.0336,0.0269,0.0202,0.1345,0.2083,0.3023,0.5302,0.6374,0.7111,0.832,0.8587,0.8587,0.8587,0.8587,0.8587,0.8587,0.8587,0.8587,0.8587,0.8587,0.8587,0.8587,0.8587,0.8587,0.8587,0.8587,0.8587,0.8587,0.8587,0.8587,0.8587,0.8587,0.8579,0.8554,0.8446,0.8315,0.8166,0.7929,0.7744,0.7627,0.7933,0.8094,0.815,0.8605,0.8826,0.8885,0.8885,0.8885,0.8885,0.8885,0.8885,0.0,0.0,0.0,0.0,0.0,0.0,0.0,0.0,0.0,0.0,0.0,0.0,0.0,0.0,0.0,0.0,0.0,0.0,0.0,0.0,0.0,0.0,0.0,0.0,0.0,0.0,0.0,0.0,0.0,0.0,0.0,0.0,0.0,0.0,0.0,0.0,0.0,0.0,0.0,0.0,0.0,0.0,0.0,0.0,0.0,0.0,0.0,0.0,0.0,0.0,0.0,0.0,0.0,0.0,0.0,0.0,0.0,0.0,0.0,0.0,0.0202,0.1479,0.1009,0.0,0.0135,0.2016,0.4159,0.4428,0.637,0.8454,0.8587,0.8587,0.8587,0.8587,0.8587,0.8587,0.8587,0.8587,0.8587,0.8587,0.8587,0.8587,0.8587,0.8587,0.8587,0.8587,0.8587,0.8587,0.8587,0.8587,0.8587,0.8587,0.8587,0.8546,0.8443,0.8323,0.8152,0.7918,0.7682,0.7497,0.7317,0.7528,0.7788,0.8008,0.838,0.8654,0.8885,0.8885,0.8885,0.8885,0.8885,0.8885,0.0,0.0,0.0,0.0,0.0,0.0,0.0,0.0,0.0,0.0,0.0,0.0,0.0,0.0,0.0,0.0,0.0,0.0,0.0,0.0,0.0,0.0,0.0,0.0,0.0,0.0,0.0,0.0,0.0,0.0,0.0,0.0,0.0,0.0,0.0,0.0,0.0,0.0,0.0,0.0,0.0,0.0,0.0,0.0,0.0,0.0,0.0,0.0,0.0,0.0,0.0,0.0,0.0,0.0,0.0,0.0,0.0,0.0135,0.0942,0.1278,0.1479,0.2955,0.3022,0.2752,0.3625,0.4631,0.5769,0.664,0.7712,0.8587,0.8587,0.8587,0.8587,0.8587,0.8587,0.8587,0.8587,0.8587,0.8587,0.8587,0.8587,0.8587,0.8587,0.8587,0.8587,0.8587,0.8587,0.8587,0.8587,0.8587,0.856,0.8492,0.8486,0.8467,0.8421,0.8171,0.7975,0.7877,0.7578,0.7443,0.7621,0.778,0.7989,0.8318,0.8598,0.8771,0.8885,0.8885,0.8885,0.8885,0.8885,0.8885,0.0,0.0,0.0,0.0,0.0,0.0,0.0,0.0,0.0,0.0,0.0,0.0,0.0,0.0,0.0,0.0,0.0,0.0,0.0,0.0,0.0,0.0,0.0,0.0,0.0,0.0,0.0,0.0,0.0,0.0,0.0,0.0,0.0,0.0,0.0,0.0,0.0,0.0,0.0,0.0,0.0,0.0,0.0,0.0,0.0,0.0,0.0,0.0,0.0,0.0,0.0,0.0,0.0,0.0,0.0,0.0,0.0,0.0202,0.1614,0.2084,0.2419,0.4294,0.4897,0.5165,0.6642,0.6777,0.6644,0.7648,0.8251,0.8587,0.8587,0.8587,0.8587,0.8587,0.8587,0.8587,0.8587,0.8587,0.8587,0.8587,0.8587,0.8587,0.8587,0.8587,0.8587,0.8587,0.8587,0.8587,0.8587,0.8557,0.8508,0.8426,0.832,0.8258,0.8258,0.8019,0.7826,0.772,0.7475,0.7434,0.7734,0.7926,0.8156,0.8484,0.8768,0.8885,0.8885,0.8885,0.8885,0.8885,0.8885,0.8885,0.0,0.0,0.0,0.0,0.0,0.0,0.0,0.0,0.0,0.0,0.0,0.0,0.0,0.0,0.0,0.0,0.0,0.0,0.0,0.0,0.0,0.0,0.0,0.0,0.0,0.0,0.0,0.0,0.0,0.0,0.0,0.0,0.0,0.0,0.0,0.0,0.0,0.0,0.0,0.0,0.0,0.0,0.0,0.0,0.0,0.0,0.0,0.0,0.0,0.0,0.0,0.0,0.0,0.0,0.0,0.0,0.0,0.0202,0.1614,0.2084,0.2554,0.5436,0.6376,0.6644,0.8117,0.7581,0.6376,0.6443,0.7448,0.8587,0.8587,0.8587,0.8587,0.8587,0.8587,0.8587,0.8587,0.8587,0.8587,0.8587,0.8587,0.8587,0.8587,0.8587,0.8587,0.8587,0.8587,0.8587,0.8587,0.8489,0.8418,0.8418,0.8092,0.7877,0.7877,0.7875,0.772,0.7306,0.728,0.7398,0.7613,0.7881,0.8156,0.8484,0.8768,0.8885,0.8885,0.8885,0.8885,0.8885,0.8885,0.8885,0.0,0.0,0.0,0.0,0.0,0.0,0.0,0.0,0.0,0.0,0.0,0.0,0.0,0.0,0.0,0.0,0.0,0.0,0.0,0.0,0.0,0.0,0.0,0.0,0.0,0.0,0.0,0.0,0.0,0.0,0.0,0.0,0.0,0.0,0.0,0.0,0.0,0.0,0.0,0.0,0.0,0.0,0.0,0.0,0.0,0.0,0.0,0.0,0.0,0.0,0.0,0.0,0.0,0.0,0.0138,0.1101,0.1429,0.1748,0.423,0.5034,0.5369,0.7312,0.7915,0.7984,0.8454,0.8251,0.7915,0.7915,0.8251,0.8587,0.8587,0.8587,0.8587,0.8587,0.8587,0.8587,0.8587,0.8587,0.8587,0.8587,0.8587,0.8587,0.8587,0.8587,0.8587,0.8587,0.8587,0.853,0.8367,0.8315,0.8198,0.7954,0.7823,0.7785,0.7864,0.7646,0.7456,0.7285,0.7429,0.7592,0.7881,0.8156,0.8488,0.8768,0.8881,0.8885,0.8885,0.8885,0.8885,0.8885,0.8885,0.8885,0.0,0.0,0.0,0.0,0.0,0.0,0.0,0.0,0.0085,0.0421,0.0492,0.0488,0.0507,0.0483,0.0368,0.005,0.0,0.0,0.0,0.0,0.0,0.0,0.0,0.0,0.0,0.0,0.0,0.0,0.0,0.0,0.0,0.0,0.0,0.0,0.0,0.0,0.0,0.0,0.0,0.0,0.0,0.0,0.0,0.0,0.0,0.0,0.0,0.0,0.0,0.0,0.0,0.0,0.0,0.035,0.0892,0.1775,0.2437,0.329,0.557,0.6376,0.6644,0.8117,0.8587,0.8587,0.8587,0.8587,0.8587,0.8587,0.8587,0.8587,0.8587,0.8587,0.8587,0.8587,0.8587,0.8587,0.8587,0.8587,0.8587,0.8587,0.8587,0.8587,0.8587,0.8587,0.8587,0.8587,0.8511,0.8402,0.8188,0.8117,0.7948,0.7725,0.7619,0.7592,0.7663,0.7464,0.7315,0.7271,0.748,0.7715,0.7989,0.8322,0.8598,0.8881,0.8885,0.8885,0.8885,0.8885,0.8885,0.8885,0.8885,0.8885,0.0,0.0,0.0,0.0,0.0,0.0,0.0,0.0,0.0,0.1047,0.1261,0.1331,0.1334,0.1377,0.1166,0.041,0.0272,0.0227,0.0176,0.0061,0.0,0.0,0.0,0.0,0.0,0.0,0.0,0.0,0.0,0.0,0.0,0.0,0.0,0.0,0.0,0.0,0.0,0.0,0.0,0.0,0.0,0.0,0.0,0.0,0.0,0.0,0.0,0.0,0.0,0.0,0.0,0.0,0.0141,0.0972,0.2122,0.2364,0.329,0.4629,0.6038,0.6577,0.6777,0.8184,0.8587,0.8587,0.8587,0.8587,0.8587,0.8587,0.8587,0.8587,0.8587,0.8587,0.8587,0.8587,0.8587,0.8587,0.8587,0.8587,0.8587,0.8587,0.8587,0.8587,0.8587,0.8587,0.8584,0.8576,0.838,0.8161,0.8137,0.7899,0.7682,0.7665,0.7459,0.7266,0.7266,0.7266,0.7274,0.7218,0.7493,0.7715,0.7989,0.8322,0.8654,0.8881,0.8885,0.8885,0.8885,0.8885,0.8885,0.8885,0.8885,0.8885,0.0,0.0,0.0,0.0,0.0,0.0,0.0,0.0,0.0044,0.0254,0.0972,0.1543,0.1547,0.2273,0.2894,0.2772,0.2815,0.2586,0.1643,0.0672,0.0,0.0,0.0,0.0,0.0,0.0,0.0,0.0,0.0,0.0,0.0,0.0,0.0,0.0,0.0,0.0,0.0,0.0,0.0,0.0,0.0,0.0,0.0,0.0,0.0,0.0,0.0,0.0,0.0,0.0,0.0,0.0141,0.1179,0.1778,0.2363,0.4571,0.5637,0.6107,0.7581,0.8051,0.8117,0.852,0.8587,0.8587,0.8587,0.8587,0.8587,0.8587,0.8587,0.8587,0.8587,0.8587,0.8587,0.8587,0.8587,0.8587,0.8587,0.8587,0.8587,0.8587,0.8587,0.8587,0.8587,0.8587,0.8557,0.847,0.8331,0.8136,0.7861,0.7671,0.7489,0.7361,0.7287,0.7198,0.7198,0.7198,0.724,0.7213,0.7657,0.7937,0.7989,0.8491,0.8826,0.8885,0.8885,0.8885,0.8885,0.8885,0.8885,0.8885,0.8885,0.8885,0.0248,0.0131,0.0,0.0,0.0,0.0137,0.0623,0.0713,0.0983,0.1893,0.2505,0.2939,0.3011,0.3572,0.3962,0.3704,0.3799,0.3624,0.2993,0.172,0.0877,0.0882,0.0388,0.0,0.0,0.0,0.0,0.0,0.0,0.0,0.0,0.0,0.0,0.0,0.0,0.0,0.0,0.0,0.0,0.0,0.0,0.0,0.0,0.0,0.0,0.0,0.0,0.0,0.0,0.0,0.0,0.0139,0.1584,0.2517,0.3357,0.557,0.6844,0.7514,0.832,0.8587,0.8587,0.8587,0.8587,0.8587,0.8587,0.8587,0.8587,0.8587,0.8587,0.8587,0.8587,0.8587,0.8587,0.8587,0.8587,0.8587,0.8587,0.8587,0.8587,0.8587,0.8587,0.8587,0.8587,0.8543,0.847,0.8353,0.8138,0.7899,0.7649,0.7462,0.7301,0.7224,0.721,0.721,0.721,0.7324,0.7324,0.721,0.782,0.8156,0.7989,0.8605,0.8885,0.8885,0.8885,0.8885,0.8885,0.8885,0.8885,0.8885,0.8885,0.8885,0.0555,0.046,0.0306,0.0301,0.0391,0.0706,0.1638,0.1839,0.2325,0.3987,0.4462,0.4637,0.4761,0.4985,0.4978,0.4418,0.4075,0.3872,0.3872,0.2534,0.1554,0.1698,0.071,0.0,0.0,0.0,0.0,0.0,0.0,0.0,0.0,0.0,0.0,0.0,0.0,0.0,0.0,0.0,0.0,0.0,0.0,0.0,0.0,0.0,0.0,0.0,0.0,0.0,0.0,0.0,0.0141,0.0481,0.1849,0.3324,0.4763,0.6241,0.7514,0.8587,0.8587,0.8587,0.8587,0.8587,0.8587,0.8587,0.8587,0.8587,0.8587,0.8587,0.8587,0.8587,0.8587,0.8587,0.8587,0.8587,0.8587,0.8587,0.8587,0.8587,0.8587,0.8587,0.8573,0.8562,0.8562,0.8467,0.8342,0.8201,0.7907,0.7652,0.7508,0.7296,0.721,0.721,0.721,0.721,0.721,0.7493,0.7549,0.721,0.8042,0.8377,0.8156,0.8605,0.8885,0.8885,0.8885,0.8885,0.8885,0.8885,0.8885,0.8885,0.8885,0.8885,0.066,0.1223,0.1738,0.1641,0.2173,0.2733,0.2923,0.2941,0.3094,0.3491,0.4311,0.5003,0.5261,0.6018,0.6671,0.6776,0.511,0.3814,0.3871,0.1822,0.0315,0.0316,0.0128,0.0,0.0,0.0,0.0,0.0,0.0,0.0,0.0,0.0,0.0,0.0,0.0,0.0,0.0,0.0,0.0,0.0,0.0,0.0,0.0,0.0,0.0,0.0,0.0,0.0,0.0,0.0,0.0697,0.1919,0.3384,0.4839,0.6241,0.7715,0.8387,0.8587,0.8587,0.8587,0.8587,0.8587,0.8587,0.8587,0.8587,0.8587,0.8587,0.8587,0.8587,0.8587,0.8587,0.8587,0.8587,0.8587,0.8587,0.8587,0.8587,0.8587,0.8587,0.8587,0.8511,0.8443,0.8443,0.8342,0.8187,0.7962,0.7799,0.7619,0.7336,0.7241,0.721,0.721,0.721,0.721,0.721,0.7657,0.7712,0.721,0.8042,0.8598,0.8771,0.883,0.8885,0.8885,0.8885,0.8885,0.8885,0.8885,0.8885,0.8885,0.8885,0.8885,0.159,0.2403,0.3202,0.4004,0.3818,0.3658,0.4525,0.454,0.456,0.5131,0.5662,0.6132,0.6234,0.6775,0.7274,0.7576,0.6028,0.4846,0.4956,0.269,0.1,0.1071,0.0448,0.0,0.0,0.0658,0.0801,0.0067,0.0673,0.0807,0.0067,0.074,0.1143,0.1143,0.1159,0.1505,0.231,0.0774,0.0,0.0,0.0,0.0,0.0,0.0,0.0,0.0,0.0,0.0,0.0071,0.0837,0.1512,0.2306,0.4575,0.5837,0.6577,0.8051,0.8587,0.8587,0.8587,0.8587,0.8587,0.8587,0.8587,0.8587,0.8587,0.8587,0.8587,0.8587,0.8587,0.8587,0.8587,0.8587,0.8587,0.8587,0.8587,0.8587,0.8587,0.8587,0.8568,0.8508,0.8454,0.8397,0.8331,0.8217,0.8076,0.7896,0.7774,0.7614,0.7309,0.7288,0.7228,0.7218,0.721,0.721,0.721,0.7712,0.8045,0.81,0.8211,0.8436,0.8881,0.8885,0.8885,0.8885,0.8885,0.8885,0.8885,0.8885,0.8885,0.8885,0.8885,0.8885,0.252,0.3517,0.4643,0.6056,0.5427,0.4788,0.6066,0.6157,0.6155,0.6783,0.7024,0.7119,0.7149,0.7298,0.751,0.7785,0.6381,0.5388,0.5867,0.3561,0.199,0.2389,0.1597,0.0968,0.0968,0.1984,0.215,0.1076,0.2016,0.2151,0.1076,0.2016,0.262,0.262,0.2665,0.3159,0.4294,0.2188,0.0928,0.0493,0.0144,0.0,0.0,0.0,0.0146,0.0508,0.0503,0.0708,0.1115,0.2205,0.279,0.3358,0.557,0.6644,0.7045,0.8184,0.8587,0.8587,0.8587,0.8587,0.8587,0.8587,0.8587,0.8587,0.8587,0.8587,0.8587,0.8587,0.8587,0.8587,0.8587,0.8587,0.8587,0.8587,0.8587,0.8581,0.8554,0.8549,0.8513,0.8397,0.8353,0.8304,0.8209,0.8092,0.8032,0.785,0.7758,0.7614,0.7309,0.728,0.729,0.7224,0.721,0.7265,0.7376,0.7712,0.8214,0.8885,0.8325,0.8269,0.8881,0.8826,0.8826,0.8885,0.8885,0.8885,0.8885,0.8885,0.8885,0.8885,0.8885,0.8885,0.2885,0.435,0.5979,0.6804,0.699,0.7017,0.7411,0.7558,0.7531,0.7298,0.7394,0.7513,0.7627,0.7663,0.7684,0.7709,0.5606,0.4411,0.588,0.3741,0.2452,0.3649,0.3763,0.3797,0.3797,0.4027,0.4093,0.4025,0.4093,0.4093,0.4025,0.4093,0.4159,0.4159,0.427,0.4345,0.4301,0.4321,0.3537,0.1924,0.0652,0.0,0.0,0.0,0.0724,0.193,0.1928,0.2743,0.3979,0.4112,0.4893,0.6107,0.6309,0.7245,0.8454,0.8587,0.8587,0.8587,0.8587,0.8587,0.8587,0.8587,0.8587,0.8587,0.8587,0.8587,0.8587,0.8587,0.8587,0.8587,0.8587,0.8587,0.8587,0.8587,0.8587,0.856,0.8454,0.8432,0.8394,0.8272,0.8157,0.8141,0.813,0.8026,0.7845,0.7731,0.7706,0.7614,0.7309,0.728,0.729,0.7224,0.721,0.7376,0.7878,0.7771,0.7995,0.883,0.8325,0.8269,0.8881,0.8654,0.8654,0.8881,0.8885,0.8885,0.8885,0.8885,0.8885,0.8885,0.8885,0.8885,0.3842,0.5115,0.6527,0.7909,0.8192,0.8239,0.8507,0.8285,0.8005,0.7751,0.7663,0.7622,0.7592,0.7706,0.7807,0.7807,0.63,0.534,0.6024,0.4444,0.3336,0.3839,0.3921,0.4013,0.4115,0.4977,0.5184,0.4359,0.5099,0.5233,0.4361,0.5099,0.5637,0.5637,0.5628,0.6128,0.7066,0.5388,0.4692,0.4991,0.3616,0.2913,0.2912,0.2816,0.3084,0.3564,0.3504,0.3804,0.438,0.5225,0.5932,0.651,0.7381,0.8117,0.8587,0.8587,0.8587,0.8587,0.8587,0.8587,0.8587,0.8587,0.8587,0.8587,0.8587,0.8587,0.8587,0.8587,0.8587,0.8587,0.8587,0.8587,0.8568,0.8497,0.8481,0.8448,0.8329,0.8304,0.8269,0.8147,0.8087,0.8092,0.8015,0.7963,0.7834,0.772,0.7701,0.7614,0.7309,0.728,0.729,0.7224,0.721,0.7324,0.7715,0.7826,0.8103,0.8602,0.8432,0.8488,0.8881,0.8826,0.8771,0.8885,0.8885,0.8885,0.8885,0.8885,0.8885,0.8881,0.8712,0.8654,0.4972,0.6108,0.7377,0.8616,0.8937,0.9007,0.9235,0.886,0.8507,0.8299,0.8085,0.7884,0.7606,0.7769,0.7977,0.7877,0.6791,0.6126,0.6631,0.5445,0.471,0.5124,0.5206,0.5243,0.5361,0.6304,0.6596,0.5662,0.6558,0.6642,0.57,0.6575,0.7111,0.7111,0.7175,0.7701,0.8769,0.693,0.6528,0.7487,0.6575,0.5673,0.4728,0.4594,0.4768,0.5167,0.5051,0.5261,0.5712,0.6667,0.7111,0.7181,0.8184,0.8587,0.8587,0.8587,0.8587,0.8587,0.8587,0.8587,0.8587,0.8587,0.8587,0.8587,0.8587,0.8587,0.8581,0.8543,0.8532,0.8524,0.8486,0.8505,0.8505,0.8388,0.8361,0.8326,0.8204,0.8179,0.8141,0.8081,0.8059,0.8032,0.7947,0.7842,0.779,0.7712,0.7668,0.757,0.7304,0.728,0.729,0.7224,0.7376,0.7546,0.7715,0.7989,0.8266,0.8598,0.8598,0.8712,0.8881,0.8826,0.8826,0.8885,0.8984,0.8984,0.8885,0.8984,0.8984,0.8881,0.8598,0.8484,0.6215,0.7378,0.856,0.8814,0.9052,0.9292,0.954,0.9419,0.9214,0.8973,0.8708,0.8346,0.7804,0.7894,0.8073,0.7952,0.6791,0.6417,0.7864,0.6858,0.6382,0.7763,0.804,0.8114,0.8117,0.8274,0.8416,0.8418,0.8524,0.8587,0.8587,0.8587,0.8587,0.859,0.8823,0.8894,0.8774,0.9125,0.9245,0.9136,0.9247,0.7704,0.4727,0.4593,0.5309,0.6629,0.6477,0.7272,0.8587,0.8587,0.8587,0.8587,0.8587,0.8587,0.8587,0.8587,0.8587,0.8587,0.8587,0.8587,0.8587,0.8587,0.8587,0.8587,0.8587,0.8587,0.8562,0.8448,0.8416,0.8388,0.8263,0.8323,0.8383,0.8261,0.817,0.8201,0.8141,0.8114,0.8078,0.7955,0.7872,0.7872,0.7872,0.7777,0.7703,0.7701,0.7595,0.7472,0.7293,0.7277,0.7288,0.7224,0.7657,0.7989,0.7989,0.8318,0.8598,0.8881,0.8885,0.8885,0.8885,0.8654,0.8654,0.8881,0.9079,0.9083,0.8885,0.9083,0.9079,0.8881,0.8598,0.8484,0.6543,0.7717,0.8899,0.931,0.9361,0.9391,0.969,0.947,0.9004,0.8471,0.8142,0.7906,0.7714,0.7823,0.7974,0.7877,0.7592,0.7521,0.804,0.7668,0.7477,0.7875,0.7966,0.8021,0.8108,0.8195,0.8326,0.841,0.8524,0.8587,0.8587,0.8587,0.8628,0.8715,0.8788,0.8889,0.9024,0.9133,0.9207,0.9253,0.9207,0.8683,0.7819,0.7642,0.7819,0.8125,0.8013,0.8218,0.8587,0.8587,0.8587,0.8587,0.8587,0.8587,0.8587,0.8587,0.8587,0.8587,0.8587,0.8587,0.8587,0.8587,0.8587,0.8571,0.8492,0.847,0.8443,0.8323,0.8291,0.8261,0.8138,0.8136,0.8152,0.8117,0.8108,0.8076,0.8012,0.7988,0.7977,0.7877,0.7872,0.7872,0.7872,0.7842,0.7763,0.7597,0.7543,0.7442,0.7236,0.7379,0.748,0.7499,0.7768,0.7989,0.7989,0.8318,0.854,0.8598,0.8771,0.8885,0.8885,0.8826,0.8826,0.8885,0.8981,0.8981,0.8885,0.8981,0.8981,0.8881,0.838,0.8156,0.7428,0.8361,0.9269,0.9544,0.954,0.9503,0.9622,0.9486,0.919,0.8599,0.8374,0.8193,0.8024,0.7989,0.7988,0.788,0.7872,0.7958,0.8032,0.798,0.7872,0.7872,0.7872,0.796,0.8034,0.8092,0.8214,0.8337,0.8454,0.8541,0.8584,0.8587,0.8644,0.8766,0.8818,0.8938,0.9133,0.9133,0.9169,0.9234,0.9117,0.9035,0.8986,0.8913,0.884,0.8764,0.8641,0.8587,0.8587,0.8587,0.8587,0.8587,0.8587,0.8587,0.8587,0.8587,0.8587,0.8587,0.8587,0.8587,0.8587,0.8587,0.8557,0.8508,0.844,0.8383,0.832,0.8198,0.8163,0.8136,0.8075,0.8043,0.8043,0.8043,0.8043,0.8023,0.7947,0.7872,0.7872,0.7872,0.7872,0.7872,0.7872,0.7834,0.7755,0.7614,0.7508,0.7434,0.7349,0.7493,0.7662,0.7771,0.8045,0.8211,0.8211,0.8488,0.8654,0.8654,0.8826,0.8885,0.8885,0.8885,0.8885,0.8885,0.9052,0.9083,0.9025,0.9147,0.903,0.8802,0.8354,0.8044,0.853,0.913,0.9595,0.9622,0.9618,0.9571,0.9435,0.9608,0.9637,0.9192,0.9019,0.8862,0.8512,0.8276,0.8127,0.7952,0.7933,0.7933,0.7933,0.7872,0.7872,0.7872,0.7872,0.7872,0.7872,0.8045,0.81,0.8209,0.8331,0.8451,0.8565,0.8581,0.8649,0.8783,0.8894,0.8941,0.9133,0.9122,0.9046,0.9046,0.8925,0.8878,0.8769,0.8769,0.8764,0.8747,0.8636,0.8587,0.8587,0.8587,0.8587,0.8587,0.8587,0.8587,0.8587,0.8587,0.8587,0.8587,0.8587,0.8587,0.8587,0.8573,0.8503,0.8413,0.8391,0.8307,0.8193,0.8073,0.81,0.8073,0.796,0.7872,0.7872,0.7872,0.7872,0.7872,0.7872,0.7872,0.7872,0.7872,0.7872,0.7872,0.7872,0.7785,0.7712,0.7703,0.7502,0.7366,0.7527,0.7624,0.773,0.7989,0.8322,0.854,0.854,0.8768,0.8885,0.8885,0.8885,0.8885,0.8885,0.8885,0.8885,0.8885,0.9218,0.935,0.921,0.9432,0.925,0.87,0.8407,0.8001,0.8401,0.8971,0.9486,0.9717,0.9693,0.9602,0.9568,0.9608,0.9493,0.9049,0.886,0.8763,0.8781,0.8757,0.8643,0.8311,0.8305,0.8183,0.7933,0.7872,0.7872,0.7872,0.7872,0.7872,0.7872,0.8045,0.8128,0.8092,0.8206,0.8326,0.8448,0.8541,0.8687,0.8905,0.8868,0.8941,0.9133,0.8968,0.8922,0.8919,0.8867,0.8796,0.8769,0.8769,0.8717,0.8625,0.8598,0.8587,0.8587,0.8587,0.8587,0.8587,0.8587,0.8587,0.8587,0.8587,0.8587,0.8587,0.8587,0.8587,0.8573,0.8484,0.8437,0.8383,0.819,0.8114,0.8068,0.8007,0.7971,0.7966,0.7877,0.7872,0.7872,0.7872,0.7872,0.7872,0.7872,0.7872,0.7872,0.7872,0.7872,0.7872,0.7872,0.785,0.7804,0.7717,0.7576,0.7437,0.7371,0.7751,0.8051,0.8001,0.8491,0.8826,0.8826,0.8881,0.8885,0.8885,0.8885,0.8885,0.8885,0.8885,0.8885,0.8885,0.911,0.9245,0.921,0.8993,0.8819,0.87,0.803,0.7689,0.8303,0.8818,0.9276,0.971,0.9659,0.952,0.9591,0.9554,0.9441,0.9258,0.9132,0.9007,0.9083,0.8976,0.8854,0.8674,0.8613,0.8549,0.8424,0.8241,0.8119,0.8119,0.7994,0.7872,0.7872,0.7991,0.8054,0.8111,0.8111,0.8201,0.8323,0.8443,0.859,0.8772,0.8834,0.8924,0.8976,0.8927,0.8864,0.8864,0.8742,0.8682,0.8682,0.8682,0.8647,0.8587,0.8587,0.8587,0.8587,0.8587,0.8587,0.8587,0.8587,0.8587,0.8587,0.8587,0.8587,0.8587,0.8587,0.8552,0.8497,0.8437,0.8339,0.822,0.8155,0.8075,0.8015,0.7949,0.7872,0.7872,0.7872,0.7872,0.7872,0.7872,0.7872,0.7872,0.7872,0.7872,0.7872,0.7872,0.7872,0.7872,0.7872,0.7872,0.7834,0.772,0.7765,0.7772,0.7587,0.7962,0.8254,0.8223,0.8543,0.8768,0.8881,0.8885,0.8885,0.8885,0.8885,0.8885,0.8885,0.8885,0.8885,0.8885,0.9079,0.9248,0.932,0.8976,0.8746,0.8568,0.7978,0.7606,0.8174,0.8723,0.9121,0.9693,0.9618,0.9452,0.9581,0.951,0.9456,0.9585,0.9483,0.9396,0.9396,0.9217,0.9037,0.8976,0.8976,0.8976,0.8915,0.8613,0.8369,0.8369,0.8119,0.7872,0.7872,0.7872,0.7974,0.8075,0.8086,0.8076,0.8198,0.8339,0.847,0.8584,0.8706,0.8818,0.8849,0.8799,0.8739,0.8739,0.8636,0.8587,0.8587,0.8587,0.8587,0.8587,0.8587,0.8587,0.8587,0.8587,0.8587,0.8587,0.8587,0.8587,0.8587,0.8587,0.8587,0.8584,0.8565,0.8497,0.841,0.8369,0.822,0.8111,0.8092,0.8012,0.7872,0.7872,0.7872,0.7872,0.7872,0.7872,0.7872,0.7872,0.7872,0.7872,0.7872,0.7872,0.7872,0.7872,0.7872,0.7872,0.7872,0.7872,0.7839,0.7744,0.8031,0.8115,0.7855,0.8109,0.8392,0.8504,0.8484,0.8598,0.8881,0.8885,0.8885,0.8885,0.8885,0.8885,0.8885,0.8881,0.8826,0.8826,0.905,0.9208,0.936,0.8952,0.866,0.8417,0.7915,0.7562,0.7874,0.8794,0.9568,0.9771,0.97,0.9585,0.9605,0.9595,0.9585,0.9605,0.9663,0.9761,0.9761,0.97,0.9579,0.9275,0.9275,0.9156,0.8915,0.8613,0.8369,0.8369,0.8119,0.7872,0.7872,0.7872,0.7877,0.7955,0.7955,0.801,0.8136,0.8296,0.847,0.8584,0.8706,0.878,0.8793,0.8674,0.8611,0.8611,0.8595,0.8587,0.8587,0.8587,0.8587,0.8587,0.8587,0.8587,0.8587,0.8587,0.8587,0.8587,0.8587,0.8587,0.8587,0.8587,0.8587,0.8573,0.8475,0.8432,0.8383,0.8171,0.8144,0.8097,0.7988,0.7883,0.7872,0.7872,0.7872,0.7872,0.7872,0.7872,0.7872,0.7872,0.7872,0.7872,0.7872,0.7872,0.7872,0.7872,0.7872,0.7872,0.7872,0.7872,0.7867,0.785,0.8158,0.8251,0.7988,0.8244,0.8434,0.8513,0.8484,0.8598,0.8881,0.8885,0.8885,0.8885,0.8885,0.8885,0.8885,0.8657,0.8543,0.8543,0.8809,0.9013,0.9153,0.8563,0.8269,0.8203,0.7613,0.7326,0.7739,0.8571,0.933,0.9724,0.9713,0.9632,0.971,0.9602,0.953,0.9693,0.9713,0.9727,0.9805,0.9822,0.9761,0.9579,0.9579,0.9518,0.9396,0.9095,0.8915,0.8915,0.8668,0.8363,0.8183,0.8183,0.8119,0.7933,0.7872,0.7955,0.801,0.8182,0.8337,0.8388,0.8571,0.8668,0.8668,0.8614,0.8587,0.8587,0.8587,0.8587,0.8587,0.8587,0.8587,0.8587,0.8587,0.8587,0.8587,0.8587,0.8587,0.8587,0.8587,0.8587,0.8587,0.8587,0.8546,0.8486,0.8435,0.8329,0.8195,0.8152,0.807,0.8002,0.7888,0.7872,0.7872,0.7872,0.7872,0.7872,0.7872,0.7872,0.7872,0.7872,0.7872,0.7872,0.7872,0.7872,0.7872,0.7872,0.7872,0.7872,0.7872,0.7872,0.7872,0.7872,0.8363,0.8542,0.8174,0.8611,0.889,0.863,0.8772,0.891,0.8892,0.9011,0.9059,0.9059,0.8984,0.8863,0.8775,0.8663,0.8586,0.8435,0.8485,0.8576,0.8707,0.8298,0.8066,0.8063,0.753,0.7298,0.7607,0.8231,0.8807,0.9493,0.9544,0.9496,0.9717,0.9598,0.949,0.9673,0.9686,0.9686,0.9754,0.9795,0.9822,0.9822,0.9822,0.9822,0.9822,0.9518,0.9275,0.9275,0.9034,0.8793,0.8552,0.843,0.8305,0.8058,0.7933,0.7872,0.7872,0.8103,0.8172,0.8172,0.8465,0.8587,0.8587,0.8587,0.8587,0.8587,0.8587,0.8587,0.8587,0.8587,0.8587,0.8587,0.8587,0.8587,0.8587,0.8587,0.8587,0.8587,0.8587,0.8587,0.8584,0.8554,0.8492,0.841,0.8348,0.8206,0.8111,0.8078,0.8007,0.7872,0.7872,0.7872,0.7872,0.7872,0.7872,0.7872,0.7872,0.7872,0.7872,0.7872,0.7872,0.7933,0.7994,0.8058,0.8055,0.8116,0.8177,0.8116,0.8058,0.8058,0.8058,0.8058,0.8546,0.8806,0.8489,0.8974,0.9207,0.8886,0.904,0.9111,0.9062,0.915,0.9251,0.921,0.8996,0.8818,0.8697,0.853,0.8422,0.8323,0.8153,0.8186,0.8372,0.8136,0.7945,0.7911,0.7552,0.7317,0.7312,0.774,0.8214,0.9057,0.9079,0.903,0.952,0.9608,0.9561,0.9432,0.9622,0.9771,0.9646,0.973,0.9822,0.9822,0.9822,0.9822,0.9822,0.9518,0.9275,0.9275,0.9034,0.8915,0.8854,0.8613,0.8369,0.8369,0.8058,0.7872,0.7872,0.8103,0.8172,0.8172,0.8465,0.8587,0.8587,0.8587,0.8587,0.8587,0.8587,0.8587,0.8587,0.8587,0.8587,0.8587,0.8587,0.8587,0.8587,0.8587,0.8587,0.8587,0.8587,0.8587,0.8573,0.8467,0.8424,0.8386,0.8155,0.8128,0.8097,0.798,0.7877,0.7872,0.7872,0.7872,0.7872,0.7872,0.7872,0.7872,0.7872,0.7872,0.7872,0.7872,0.7872,0.7994,0.8308,0.8369,0.8491,0.8793,0.8854,0.8732,0.843,0.8369,0.8369,0.8369,0.8671,0.8924,0.902,0.9172,0.9235,0.9326,0.9081,0.902,0.9361,0.9364,0.9306,0.9217,0.8864,0.8694,0.87,0.813,0.7904,0.8038,0.7802,0.7922,0.841,0.8039,0.7856,0.769,0.7568,0.7445,0.7282,0.756,0.7936,0.8682,0.8974,0.9144,0.9405,0.954,0.9618,0.9656,0.9676,0.9696,0.9737,0.9788,0.9822,0.9822,0.9822,0.9822,0.9822,0.97,0.964,0.964,0.9518,0.94,0.9156,0.9034,0.8915,0.8732,0.8427,0.8244,0.8244,0.8154,0.8155,0.817,0.8394,0.8513,0.8587,0.8587,0.8587,0.8587,0.8587,0.8587,0.8587,0.8587,0.8587,0.8587,0.8587,0.8587,0.8587,0.8587,0.8587,0.8587,0.8587,0.8543,0.8473,0.8435,0.8318,0.8171,0.8147,0.8065,0.7991,0.7947,0.7872,0.7872,0.7872,0.7872,0.7872,0.7872,0.7872,0.7872,0.7872,0.7872,0.7872,0.7872,0.7872,0.7994,0.8308,0.8244,0.818,0.8491,0.8552,0.8613,0.8735,0.8735,0.8674,0.843,0.8854,0.9137,0.8969,0.9244,0.9403,0.9229,0.9108,0.8954,0.8751,0.8821,0.8849,0.8799,0.8601,0.8479,0.8386,0.8154,0.794,0.781,0.7739,0.7744,0.7827,0.7785,0.766,0.7464,0.7421,0.7336,0.6975,0.7143,0.74,0.815,0.856,0.8872,0.9225,0.9422,0.9574,0.972,0.9713,0.9693,0.9741,0.9788,0.9822,0.9822,0.9822,0.9822,0.9822,0.9822,0.9822,0.9822,0.9822,0.97,0.9518,0.9335,0.9217,0.9034,0.8732,0.8552,0.8552,0.8361,0.8254,0.8291,0.8413,0.8511,0.8587,0.8587,0.8587,0.8587,0.8587,0.8587,0.8587,0.8587,0.8587,0.8587,0.8587,0.8587,0.8587,0.8587,0.8587,0.8584,0.8546,0.8484,0.8407,0.8326,0.8193,0.8111,0.807,0.7999,0.7872,0.7872,0.7872,0.7872,0.7872,0.7872,0.7872,0.7872,0.7872,0.7872,0.7872,0.7872,0.7872,0.7872,0.7872,0.7933,0.8183,0.8241,0.8302,0.861,0.8793,0.8854,0.8915,0.8915,0.8793,0.843,0.8732,0.9034,0.9037,0.9201,0.932,0.9194,0.9074,0.8919,0.8598,0.8668,0.8696,0.859,0.8449,0.8266,0.8173,0.8056,0.7877,0.7701,0.7701,0.7622,0.7459,0.7581,0.7535,0.728,0.728,0.7271,0.0,0.0,0.0,0.74,0.7814,0.8231,0.9019,0.9323,0.9432,0.9581,0.9724,0.9778,0.9642,0.9727,0.9822,0.9822,0.9819,0.9815,0.9815,0.9815,0.9815,0.9822,0.9822,0.9822,0.9822,0.9518,0.9335,0.9335,0.9034,0.8915,0.8915,0.867,0.8482,0.841,0.8527,0.8587,0.8587,0.8587,0.8587,0.8587,0.8587,0.8587,0.8587,0.8587,0.8587,0.8587,0.8587,0.8587,0.8587,0.8587,0.8587,0.8576,0.8462,0.8416,0.8383,0.8141,0.8114,0.8095,0.7974,0.7872,0.7872,0.7872,0.7872,0.7872,0.7872,0.7872,0.7872,0.7872,0.7872,0.7872,0.7872,0.7872,0.7933,0.7933,0.7933,0.7933,0.7933,0.8424,0.8976,0.9217,0.9518,0.9579,0.8976,0.8915,0.8793,0.843,0.843,0.861,0.9217,0.9034,0.8976,0.9275,0.9034,0.8854,0.8854,0.8854,0.8796,0.8599,0.8358,0.8181,0.8119,0.782,0.7701,0.7701,0.7695,0.7573,0.728,0.7456,0.7451,0.7274,0.7274,0.7269,0.639,0.0,0.0,0.0,0.0,0.0,0.857,0.9123,0.9557,0.9602,0.9724,0.9808,0.9771,0.9795,0.9822,0.9822,0.9734,0.9666,0.9666,0.9666,0.9707,0.9808,0.9822,0.9822,0.9822,0.97,0.964,0.964,0.9396,0.9217,0.9217,0.9131,0.8956,0.8736,0.8921,0.8851,0.8587,0.8587,0.8587,0.8587,0.8587,0.8587,0.8587,0.8587,0.8587,0.8587,0.8587,0.8587,0.8587,0.8587,0.8587,0.8576,0.8462,0.8364,0.8266,0.8111,0.8059,0.798,0.7944,0.7872,0.7872,0.7872,0.7872,0.7872,0.7872,0.7872,0.7872,0.7872,0.7872,0.7872,0.7872,0.7872,0.7933,0.8183,0.8058,0.7994,0.8183,0.843,0.8552,0.8613,0.8732,0.8793,0.8915,0.8915,0.8793,0.843,0.8613,0.8732,0.8671,0.8793,0.8854,0.8671,0.8613,0.8427,0.8177,0.8177,0.8163,0.8127,0.8005,0.8005,0.7944,0.7804,0.7701,0.7701,0.7527,0.7347,0.728,0.7312,0.7323,0.7203,0.7203,0.7243,0.6224,0.6179,0.6183,0.6654,0.0,0.0,0.8282,0.8828,0.9323,0.9635,0.9717,0.9751,0.9812,0.9822,0.9802,0.9741,0.9663,0.9608,0.9608,0.9608,0.9639,0.9724,0.9676,0.9686,0.9808,0.9768,0.9758,0.9815,0.964,0.9457,0.9335,0.9418,0.9349,0.9045,0.909,0.8984,0.8787,0.8653,0.8587,0.8587,0.8587,0.8587,0.8587,0.8587,0.8587,0.8587,0.8587,0.8587,0.8584,0.8535,0.8516,0.8505,0.8388,0.8269,0.8144,0.8021,0.7993,0.7872,0.7872,0.7872,0.7872,0.7872,0.7872,0.7872,0.7872,0.7872,0.7872,0.7872,0.7872,0.7872,0.7872,0.7872,0.7933,0.8119,0.8058,0.7933,0.8119,0.8183,0.8244,0.8369,0.8491,0.861,0.8671,0.8671,0.8549,0.8244,0.8363,0.8488,0.843,0.8427,0.8488,0.843,0.8244,0.8119,0.7933,0.7872,0.7872,0.7872,0.7828,0.7801,0.7801,0.7687,0.7603,0.7548,0.741,0.7309,0.726,0.726,0.7225,0.721,0.721,0.721,0.5969,0.5908,0.5857,0.6218,0.6678,0.0,0.8007,0.8411,0.8835,0.9527,0.9585,0.9557,0.9717,0.9734,0.9693,0.9598,0.9568,0.9571,0.9605,0.9608,0.9615,0.9632,0.9513,0.9534,0.9795,0.9693,0.9663,0.9788,0.9798,0.969,0.9419,0.9613,0.9646,0.9422,0.9264,0.9183,0.9183,0.8853,0.8653,0.8653,0.8587,0.8587,0.8587,0.8587,0.8587,0.8587,0.8587,0.8587,0.8579,0.8465,0.8418,0.8405,0.8269,0.8149,0.81,0.7977,0.7872,0.7872,0.7872,0.7872,0.7872,0.7872,0.7872,0.7872,0.7872,0.7872,0.7872,0.7872,0.7872,0.7872,0.7872,0.7872,0.7933,0.7933,0.7933,0.7933,0.7933,0.7933,0.7994,0.8305,0.861,0.8671,0.8369,0.8369,0.8244,0.7933,0.7872,0.7994,0.8308,0.8058,0.7994,0.8308,0.8058,0.7872,0.7872,0.7872,0.7867,0.7853,0.7758,0.7695,0.7682,0.7565,0.7448,0.7282,0.7266,0.726,0.721,0.721,0.721,0.721,0.721,0.721,0.6081,0.5833,0.5732,0.6194,0.6525,0.0,0.7431,0.7868,0.8279,0.8662,0.8821,0.8967,0.9289,0.9188,0.9181,0.9391,0.932,0.9327,0.9574,0.9608,0.9652,0.9768,0.9754,0.9758,0.9815,0.9693,0.9622,0.9649,0.9649,0.9694,0.9868,1.0052,1.0128,1.0034,1.0028,0.9857,0.9594,0.9186,0.8984,0.8984,0.872,0.8587,0.8587,0.8587,0.8587,0.8587,0.8587,0.8587,0.8579,0.8465,0.8418,0.8397,0.8176,0.8139,0.81,0.7977,0.7872,0.7872,0.7872,0.7872,0.7872,0.7872,0.7872,0.7872,0.7872,0.7872,0.7872,0.7872,0.7872,0.7872,0.7872,0.7872,0.7994,0.8244,0.8119,0.7994,0.8244,0.8119,0.7933,0.7994,0.8055,0.8055,0.7994,0.7994,0.7994,0.7933,0.7872,0.7933,0.7994,0.7933,0.7933,0.7994,0.7933,0.7872,0.7872,0.7872,0.7831,0.7741,0.7714,0.7657,0.7557,0.7437,0.7301,0.728,0.7239,0.7235,0.721,0.721,0.721,0.721,0.721,0.721,0.6155,0.5867,0.5749,0.5976,0.62,0.0,0.0,0.7489,0.779,0.8085,0.833,0.8537,0.874,0.8774,0.8872,0.9022,0.9163,0.9238,0.9262,0.9401,0.9551,0.9696,0.9649,0.9659,0.9805,0.9693,0.9639,0.971,0.9717,0.9781,0.9866,1.0083,1.0206,1.0234,1.0179,1.0053,0.9927,0.9591,0.9389,0.9389,0.9256,0.9056,0.8851,0.8851,0.8787,0.8587,0.8587,0.8554,0.8494,0.8375,0.8291,0.8225,0.8163,0.8078,0.8018,0.7955,0.7872,0.7872,0.7872,0.7872,0.7872,0.7872,0.7872,0.7872,0.7872,0.7872,0.7872,0.7872,0.7872,0.7872,0.7872,0.7872,0.7933,0.8119,0.7994,0.7933,0.8119,0.7994,0.7872,0.7872,0.7872,0.7872,0.7872,0.7872,0.7872,0.7872,0.7872,0.7872,0.7872,0.7872,0.7872,0.7872,0.7872,0.7872,0.7872,0.7818,0.7763,0.7706,0.7587,0.7491,0.7429,0.7309,0.7244,0.7244,0.724,0.721,0.721,0.721,0.721,0.721,0.721,0.721,0.6337,0.6047,0.5922,0.5898,0.5983,0.6209,0.0,0.0,0.0,0.758,0.7838,0.8031,0.8139,0.8292,0.8442,0.8411,0.8659,0.8804,0.8659,0.8944,0.9266,0.9534,0.9483,0.9517,0.9758,0.9808,0.9798,0.9741,0.9897,0.9944,0.9829,0.9933,1.0161,1.0317,1.0204,1.0205,1.0323,0.9994,0.9794,0.9794,0.9728,0.9525,0.9186,0.9117,0.8984,0.872,0.8653,0.8522,0.8407,0.8285,0.8163,0.8114,0.8092,0.8021,0.7994,0.7933,0.7933,0.7994,0.7933,0.7872,0.7872,0.7872,0.7872,0.7872,0.7872,0.7872,0.7872,0.7872,0.7872,0.7872,0.7872,0.7872,0.7872,0.7872,0.7872,0.7872,0.7872,0.7872,0.7872,0.7872,0.7872,0.7872,0.7872,0.7872,0.7872,0.7872,0.7872,0.7872,0.7872,0.7872,0.7872,0.7872,0.7872,0.7861,0.7839,0.7755,0.7682,0.7633,0.7445,0.7269,0.7301,0.7206,0.721,0.721,0.721,0.721,0.721,0.721,0.721,0.721,0.721,0.721,0.6902,0.6512,0.6405,0.6279,0.6262,0.6364,0.6671,0.0,0.6661,0.6966,0.0,0.7163,0.7424,0.0,0.0,0.7297,0.7577,0.7723,0.757,0.8088,0.8648,0.9327,0.951,0.9598,0.9632,1.0215,1.027,0.949,1.0168,1.0385,0.9849,1.0097,1.0321,1.0463,1.055,1.0638,1.0654,1.0323,1.0127,1.0127,0.9861,0.9661,0.9594,0.9253,0.905,0.905,0.872,0.8522,0.8407,0.8285,0.8163,0.8106,0.7996,0.8072,0.8308,0.7994,0.8058,0.8308,0.7994,0.7872,0.7872,0.7872,0.7872,0.7872,0.7872,0.7872,0.7872,0.7872,0.7872,0.7872,0.7872,0.7872,0.7872,0.7872,0.7872,0.7872,0.7872,0.7872,0.7872,0.7872,0.7872,0.7872,0.7872,0.7872,0.7872,0.7872,0.7872,0.7872,0.7872,0.7872,0.7872,0.7872,0.7872,0.7831,0.7731,0.7709,0.7608,0.7333,0.7293,0.7288,0.7235,0.7218,0.721,0.721,0.721,0.721,0.721,0.721,0.721,0.721,0.721,0.721,0.7607,0.7299,0.7153,0.6749,0.678,0.691,0.6732,0.6719,0.6795,0.7045,0.0,0.0,0.0,0.0,0.0,0.0,0.7583,0.7444,0.7426,0.7814,0.8316,0.8801,0.9072,0.9289,0.9459,1.0151,1.0324,0.9683,1.0226,1.0361,0.9849,1.0029,1.0215,1.0365,1.051,1.0629,1.0721,1.0588,1.0522,1.0522,1.0323,1.019,0.9994,0.9788,0.9655,0.9452,0.9177,0.8875,0.8623,0.8433,0.831,0.8256,0.8013,0.7994,0.8119,0.7933,0.7994,0.8119,0.7933,0.7872,0.7872,0.7872,0.7872,0.7872,0.7872,0.7872,0.7872,0.7872,0.7872,0.7872,0.7872,0.7872,0.7872,0.7872,0.7872,0.7872,0.7872,0.7872,0.7872,0.7872,0.7872,0.7872,0.7872,0.7872,0.7872,0.7872,0.7872,0.7872,0.7872,0.7872,0.7845,0.778,0.7771,0.7725,0.7606,0.7529,0.7445,0.7285,0.7271,0.7206,0.7213,0.721,0.721,0.721,0.721,0.721,0.721,0.721,0.721,0.721,0.721,0.721,0.8269,0.7997,0.7834,0.7404,0.7394,0.7407,0.7078,0.7027,0.7059,0.7064,0.7462,0.0,0.0,0.0,0.8271,0.8072,0.0,0.7414,0.7243,0.7472,0.7828,0.8248,0.857,0.8855,0.911,1.0032,1.0382,0.9808,1.0368,1.047,0.9856,0.9906,1.01,1.0212,1.0395,1.0544,1.0656,1.07,1.0721,1.0721,1.0721,1.0588,1.0323,1.0256,1.0038,0.9798,0.9499,0.9162,0.8681,0.8651,0.8479,0.8244,0.8119,0.7994,0.7872,0.7872,0.7933,0.7994,0.7933,0.7872,0.7872,0.7872,0.7872,0.7872,0.7872,0.7872,0.7872,0.7872,0.7872,0.7872,0.7872,0.7872,0.7872,0.7872,0.7872,0.7872,0.7872,0.7872,0.7872,0.7872,0.7872,0.7872,0.7872,0.7872,0.7872,0.7872,0.7872,0.7872,0.7872,0.7845,0.7793,0.7709,0.7671,0.7603,0.7478,0.7328,0.7266,0.7288,0.7203,0.721,0.721,0.721,0.721,0.721,0.721,0.721,0.721,0.721,0.721,0.721,0.721,0.721,0.8808,0.8472,0.8303,0.8282,0.8011,0.7794,0.778,0.7556,0.7272,0.6815,0.7255,0.7599,0.721,0.8085,0.8636,0.7913,0.7759,0.0,0.0,0.6778,0.7014,0.7746,0.8106,0.835,0.8496,0.9978,1.0503,0.9683,1.07,1.0911,0.9876,0.9906,0.9987,0.9994,1.0341,1.0493,1.05,1.0646,1.0721,1.0721,1.0721,1.0721,1.0654,1.0323,1.0116,0.998,0.9587,0.9044,0.8554,0.8869,0.8541,0.7933,0.8244,0.8183,0.7872,0.7872,0.8119,0.8308,0.7994,0.7872,0.7872,0.7872,0.7872,0.7872,0.7872,0.7872,0.7872,0.7872,0.7872,0.7872,0.7872,0.7872,0.7872,0.7872,0.7872,0.7872,0.7872,0.7872,0.7872,0.7872,0.7872,0.7872,0.7872,0.7872,0.7872,0.7872,0.7872,0.7872,0.7872,0.7774,0.7706,0.7701,0.7595,0.7475,0.7296,0.7282,0.7285,0.7224,0.7213,0.721,0.721,0.721,0.721,0.721,0.721,0.721,0.721,0.721,0.721,0.721,0.721,0.721,0.9371,0.9232,0.9086,0.8788,0.8859,0.8872,0.8367,0.8106,0.8,0.7968,0.7967,0.8188,0.8937,0.8975,0.8976,0.9154,0.857,0.8047,0.0,0.7358,0.6931,0.6826,0.7485,0.8102,0.8448,0.9439,0.9975,0.9764,1.0399,1.051,0.9856,0.9906,0.9987,0.9987,1.0246,1.0351,1.0351,1.0402,1.0429,1.0429,1.0524,1.0568,1.0568,1.0437,1.0345,1.0285,0.9965,0.9579,0.9234,0.9202,0.8955,0.8546,0.8671,0.8549,0.8183,0.7994,0.7994,0.8058,0.7933,0.7872,0.7872,0.7872,0.7872,0.7872,0.7872,0.7872,0.7872,0.7872,0.7872,0.7872,0.7872,0.7872,0.7872,0.7872,0.7872,0.7872,0.7872,0.7872,0.7872,0.7872,0.7872,0.7872,0.7872,0.7872,0.7872,0.7872,0.7872,0.7845,0.7769,0.7725,0.7641,0.7475,0.7423,0.7347,0.7225,0.7217,0.7198,0.7213,0.721,0.721,0.721,0.721,0.721,0.721,0.721,0.721,0.721,0.721,0.721,0.721,0.721,0.721,0.971,0.9608,0.9496,0.9306,0.9473,0.9496,0.9059,0.9182,0.9238,0.8739,0.8902,0.9371,1.0219,0.9916,0.9817,1.0628,0.9853,0.8932,0.0,0.7521,0.6791,0.6197,0.6878,0.0,0.0,0.8994,0.9564,0.9656,1.0178,1.0297,0.9846,0.9852,0.9906,0.9906,1.0117,1.0198,1.0198,1.0253,1.028,1.0283,1.0375,1.0415,1.0415,1.0415,1.0385,1.0324,1.0068,0.9833,0.9471,0.95,0.9156,0.8732,0.8976,0.8732,0.8183,0.8119,0.7994,0.7872,0.7872,0.7872,0.7872,0.7872,0.7872,0.7872,0.7872,0.7872,0.7872,0.7872,0.7872,0.7872,0.7872,0.7872,0.7872,0.7872,0.7872,0.7872,0.7872,0.7872,0.7872,0.7872,0.7872,0.7872,0.7872,0.7872,0.7872,0.7872,0.7837,0.7785,0.7712,0.7625,0.751,0.7296,0.7296,0.7239,0.7218,0.721,0.721,0.721,0.721,0.721,0.721,0.721,0.7232,0.722,0.7232,0.7232,0.722,0.7232,0.721,0.721,0.721,0.721]}]]